| time (UTC) | temp F | wind direction | speed knots | gust knots | rain 1hr in | rain 24hr in | rain mn in | humidity % | barometer mb |
| 20260831102531 | 74 | 200 | 4.3 | 9.6 | 0.00 | 0.00 | 0.00 | 80 | 1017.0 |
| 20260831102430 | 74 | 195 | 3.5 | 9.6 | 0.00 | 0.00 | 0.00 | 80 | 1017.0 |
| 20260831102329 | 74 | 185 | 4.3 | 11.3 | 0.00 | 0.00 | 0.00 | 80 | 1017.0 |
| 20260831102229 | 74 | 188 | 5.2 | 11.3 | 0.00 | 0.00 | 0.00 | 80 | 1017.0 |
| 20260831102127 | 74 | 191 | 3.5 | 11.3 | 0.00 | 0.00 | 0.00 | 80 | 1017.0 |
| 20260831102027 | 74 | 178 | 5.2 | 11.3 | 0.00 | 0.00 | 0.00 | 80 | 1017.0 |
| 20260831101931 | 74 | 199 | 6.1 | 11.3 | 0.00 | 0.00 | 0.00 | 80 | 1017.0 |
| 20260831101830 | 74 | 205 | 4.3 | 11.3 | 0.00 | 0.00 | 0.00 | 80 | 1017.0 |
| 20260831101751 | 74 | 200 | 3.5 | 11.3 | 0.00 | 0.00 | 0.00 | 80 | 1017.0 |
| 20260831101720 | 74 | 188 | 5.2 | 11.3 | 0.00 | 0.00 | 0.00 | 80 | 1017.0 |
| 20260831101538 | 74 | 192 | 4.3 | 11.3 | 0.00 | 0.00 | 0.00 | 80 | 1017.0 |
| 20260831101435 | 74 | 202 | 5.2 | 11.3 | 0.00 | 0.00 | 0.00 | 80 | 1017.0 |
| 20260831101335 | 74 | 179 | 5.2 | 8.7 | 0.00 | 0.00 | 0.00 | 80 | 1017.0 |
| 20260831101234 | 74 | 206 | 6.1 | 8.7 | 0.00 | 0.00 | 0.00 | 80 | 1016.9 |
| 20260831101138 | 74 | 178 | 5.2 | 8.7 | 0.00 | 0.00 | 0.00 | 80 | 1016.9 |
| 20260831101036 | 74 | 179 | 5.2 | 8.7 | 0.00 | 0.00 | 0.00 | 80 | 1016.9 |
| 20260831100936 | 74 | 188 | 4.3 | 8.7 | 0.00 | 0.00 | 0.00 | 80 | 1016.9 |
| 20260831100835 | 74 | 186 | 4.3 | 8.7 | 0.00 | 0.00 | 0.00 | 80 | 1016.9 |
| 20260831100734 | 74 | 191 | 2.6 | 7.0 | 0.00 | 0.00 | 0.00 | 80 | 1016.9 |
| 20260831100633 | 74 | 188 | 3.5 | 7.0 | 0.00 | 0.00 | 0.00 | 80 | 1016.9 |
| 20260831100553 | 74 | 182 | 2.6 | 7.0 | 0.00 | 0.00 | 0.00 | 80 | 1016.9 |
| 20260831100434 | 74 | 169 | 4.3 | 7.0 | 0.00 | 0.00 | 0.00 | 80 | 1016.9 |
| 20260831100333 | 74 | 189 | 2.6 | 7.0 | 0.00 | 0.00 | 0.00 | 80 | 1016.9 |
| 20260831100233 | 74 | 175 | 2.6 | 7.0 | 0.00 | 0.00 | 0.00 | 80 | 1016.9 |
| 20260831100204 | 74 | 186 | 2.6 | 7.0 | 0.00 | 0.00 | 0.00 | 80 | 1016.9 |
| 20260831100040 | 74 | 186 | 3.5 | 7.8 | 0.00 | 0.00 | 0.00 | 80 | 1016.9 |
| 20260831095959 | 74 | 196 | 3.5 | 7.8 | 0.00 | 0.00 | 0.00 | 80 | 1016.9 |
| 20260831095837 | 74 | 185 | 4.3 | 7.8 | 0.00 | 0.00 | 0.00 | 80 | 1016.9 |
| 20260831095755 | 74 | 195 | 4.3 | 7.8 | 0.00 | 0.00 | 0.00 | 80 | 1016.9 |
| 20260831095634 | 74 | 193 | 4.3 | 7.8 | 0.00 | 0.00 | 0.00 | 80 | 1016.9 |
| 20260831095557 | 74 | 213 | 3.5 | 7.8 | 0.00 | 0.00 | 0.00 | 80 | 1016.9 |
| 20260831095454 | 74 | 184 | 4.3 | 7.8 | 0.00 | 0.00 | 0.00 | 80 | 1016.9 |
| 20260831095331 | 74 | 196 | 3.5 | 8.7 | 0.00 | 0.00 | 0.00 | 80 | 1016.9 |
| 20260831095230 | 74 | 193 | 3.5 | 8.7 | 0.00 | 0.00 | 0.00 | 80 | 1016.9 |
| 20260831095127 | 74 | 182 | 3.5 | 8.7 | 0.00 | 0.00 | 0.00 | 80 | 1016.9 |
| 20260831095024 | 74 | 189 | 4.3 | 8.7 | 0.00 | 0.00 | 0.00 | 80 | 1016.9 |
| 20260831094943 | 74 | 192 | 3.5 | 8.7 | 0.00 | 0.00 | 0.00 | 80 | 1016.9 |
| 20260831094843 | 74 | 189 | 2.6 | 8.7 | 0.00 | 0.00 | 0.00 | 80 | 1016.9 |
| 20260831094726 | 74 | 178 | 2.6 | 8.7 | 0.00 | 0.00 | 0.00 | 80 | 1016.9 |
| 20260831094657 | 74 | 182 | 4.3 | 8.7 | 0.00 | 0.00 | 0.00 | 80 | 1016.9 |
| 20260831094535 | 74 | 182 | 4.3 | 8.7 | 0.00 | 0.00 | 0.00 | 80 | 1016.9 |
| 20260831094453 | 74 | 191 | 3.5 | 8.7 | 0.00 | 0.00 | 0.00 | 80 | 1016.9 |
| 20260831094330 | 74 | 184 | 4.3 | 6.1 | 0.00 | 0.00 | 0.00 | 80 | 1016.9 |
| 20260831094228 | 74 | 193 | 3.5 | 6.1 | 0.00 | 0.00 | 0.00 | 80 | 1016.7 |
| 20260831094146 | 74 | 199 | 3.5 | 6.1 | 0.00 | 0.00 | 0.00 | 80 | 1016.7 |
| 20260831094104 | 74 | 193 | 2.6 | 6.1 | 0.00 | 0.00 | 0.00 | 80 | 1016.7 |
| 20260831093926 | 75 | 185 | 3.5 | 6.1 | 0.00 | 0.00 | 0.00 | 80 | 1016.7 |
| 20260831093825 | 75 | 188 | 2.6 | 6.1 | 0.00 | 0.00 | 0.00 | 80 | 1016.7 |
| 20260831093744 | 75 | 178 | 3.5 | 6.1 | 0.00 | 0.00 | 0.00 | 80 | 1016.7 |
| 20260831093702 | 75 | 175 | 4.3 | 6.1 | 0.00 | 0.00 | 0.00 | 80 | 1016.7 |
| 20260831093540 | 75 | 164 | 2.6 | 6.1 | 0.00 | 0.00 | 0.00 | 80 | 1016.7 |
| 20260831093440 | 75 | 167 | 2.6 | 6.1 | 0.00 | 0.00 | 0.00 | 80 | 1016.7 |
| 20260831093338 | 75 | 145 | 4.3 | 6.1 | 0.00 | 0.00 | 0.00 | 80 | 1016.7 |
| 20260831093242 | 75 | 144 | 5.2 | 6.1 | 0.00 | 0.00 | 0.00 | 80 | 1016.7 |
| 20260831093212 | 75 | 151 | 2.6 | 7.0 | 0.00 | 0.00 | 0.00 | 80 | 1016.7 |
| 20260831093026 | 75 | 165 | 3.5 | 7.0 | 0.00 | 0.00 | 0.00 | 80 | 1016.7 |
| 20260831092946 | 75 | 151 | 3.5 | 7.0 | 0.00 | 0.00 | 0.00 | 80 | 1016.7 |
| 20260831092844 | 75 | 145 | 4.3 | 7.0 | 0.00 | 0.00 | 0.00 | 80 | 1016.7 |
| 20260831092743 | 75 | 162 | 4.3 | 7.0 | 0.00 | 0.00 | 0.00 | 80 | 1016.7 |
| 20260831092703 | 75 | 169 | 3.5 | 7.0 | 0.00 | 0.00 | 0.00 | 80 | 1016.7 |
| 20260831092542 | 75 | 169 | 3.5 | 7.0 | 0.00 | 0.00 | 0.00 | 80 | 1016.7 |
| 20260831092425 | 75 | 160 | 2.6 | 7.0 | 0.00 | 0.00 | 0.00 | 79 | 1016.7 |
| 20260831092342 | 75 | 158 | 4.3 | 7.0 | 0.00 | 0.00 | 0.00 | 80 | 1016.7 |
| 20260831092240 | 75 | 137 | 4.3 | 7.0 | 0.00 | 0.00 | 0.00 | 80 | 1016.7 |
| 20260831092138 | 75 | 169 | 4.3 | 6.1 | 0.00 | 0.00 | 0.00 | 79 | 1016.7 |
| 20260831092037 | 75 | 169 | 2.6 | 7.0 | 0.00 | 0.00 | 0.00 | 79 | 1016.7 |
| 20260831091934 | 75 | 162 | 3.5 | 7.0 | 0.00 | 0.00 | 0.00 | 79 | 1016.7 |
| 20260831091852 | 75 | 182 | 3.5 | 7.0 | 0.00 | 0.00 | 0.00 | 79 | 1016.7 |
| 20260831091740 | 75 | 144 | 3.5 | 7.0 | 0.00 | 0.00 | 0.00 | 79 | 1016.7 |
| 20260831091650 | 75 | 162 | 3.5 | 7.0 | 0.00 | 0.00 | 0.00 | 79 | 1016.7 |
| 20260831091526 | 75 | 167 | 4.3 | 7.0 | 0.00 | 0.00 | 0.00 | 79 | 1016.7 |
| 20260831091427 | 75 | 171 | 1.7 | 7.0 | 0.00 | 0.00 | 0.00 | 79 | 1016.7 |
| 20260831091345 | 75 | 179 | 3.5 | 8.7 | 0.00 | 0.00 | 0.00 | 79 | 1016.7 |
| 20260831091242 | 75 | 167 | 4.3 | 8.7 | 0.00 | 0.00 | 0.00 | 79 | 1016.6 |
| 20260831091140 | 75 | 169 | 4.3 | 8.7 | 0.00 | 0.00 | 0.00 | 79 | 1016.6 |
| 20260831091038 | 75 | 168 | 3.5 | 8.7 | 0.00 | 0.00 | 0.00 | 79 | 1016.6 |
| 20260831090936 | 75 | 164 | 2.6 | 8.7 | 0.00 | 0.00 | 0.00 | 79 | 1016.6 |
| 20260831090835 | 75 | 168 | 4.3 | 8.7 | 0.00 | 0.00 | 0.00 | 79 | 1016.6 |
| 20260831090738 | 75 | 168 | 3.5 | 8.7 | 0.00 | 0.00 | 0.00 | 79 | 1016.6 |
| 20260831090635 | 75 | 165 | 3.5 | 8.7 | 0.00 | 0.00 | 0.00 | 79 | 1016.6 |
| 20260831090535 | 75 | 169 | 3.5 | 8.7 | 0.00 | 0.00 | 0.00 | 79 | 1016.6 |
| 20260831090435 | 75 | 169 | 3.5 | 7.0 | 0.00 | 0.00 | 0.00 | 79 | 1016.6 |
| 20260831090332 | 75 | 184 | 3.5 | 7.0 | 0.00 | 0.00 | 0.00 | 79 | 1016.6 |
| 20260831090240 | 75 | 182 | 4.3 | 7.0 | 0.00 | 0.00 | 0.00 | 79 | 1016.6 |
| 20260831090149 | 75 | 179 | 5.2 | 7.0 | 0.00 | 0.00 | 0.00 | 79 | 1016.6 |
| 20260831090029 | 75 | 165 | 3.5 | 7.0 | 0.00 | 0.00 | 0.00 | 79 | 1016.6 |
| 20260831085932 | 75 | 185 | 3.5 | 8.7 | 0.00 | 0.00 | 0.00 | 79 | 1016.6 |
| 20260831085830 | 75 | 174 | 4.3 | 8.7 | 0.00 | 0.00 | 0.00 | 79 | 1016.6 |
| 20260831085729 | 75 | 174 | 4.3 | 8.7 | 0.00 | 0.00 | 0.00 | 79 | 1016.5 |
| 20260831085626 | 75 | 181 | 4.3 | 8.7 | 0.00 | 0.00 | 0.00 | 79 | 1016.5 |
| 20260831085544 | 75 | 178 | 3.5 | 8.7 | 0.00 | 0.00 | 0.00 | 79 | 1016.5 |
| 20260831085441 | 75 | 165 | 3.5 | 8.7 | 0.00 | 0.00 | 0.00 | 79 | 1016.5 |
| 20260831085324 | 75 | 175 | 2.6 | 8.7 | 0.00 | 0.00 | 0.00 | 79 | 1016.5 |
| 20260831085244 | 75 | 165 | 2.6 | 8.7 | 0.00 | 0.00 | 0.00 | 79 | 1016.5 |
| 20260831085140 | 75 | 162 | 4.3 | 8.7 | 0.00 | 0.00 | 0.00 | 79 | 1016.5 |
| 20260831085038 | 75 | 161 | 4.3 | 8.7 | 0.00 | 0.00 | 0.00 | 79 | 1016.5 |
| 20260831084957 | 75 | 182 | 3.5 | 7.8 | 0.00 | 0.00 | 0.00 | 79 | 1016.5 |
| 20260831084857 | 75 | 172 | 4.3 | 7.8 | 0.00 | 0.00 | 0.00 | 79 | 1016.5 |
| 20260831084815 | 75 | 169 | 3.5 | 7.8 | 0.00 | 0.00 | 0.00 | 78 | 1016.5 |
| 20260831084723 | 75 | 179 | 2.6 | 7.8 | 0.00 | 0.00 | 0.00 | 79 | 1016.5 |
| 20260831084539 | 75 | 172 | 3.5 | 7.8 | 0.00 | 0.00 | 0.00 | 78 | 1016.5 |
| 20260831084458 | 75 | 181 | 4.3 | 7.8 | 0.00 | 0.00 | 0.00 | 78 | 1016.5 |
| 20260831084339 | 75 | 176 | 3.5 | 7.0 | 0.00 | 0.00 | 0.00 | 78 | 1016.5 |
| 20260831084239 | 75 | 164 | 4.3 | 7.0 | 0.00 | 0.00 | 0.00 | 78 | 1016.5 |
| 20260831084139 | 75 | 178 | 4.3 | 7.0 | 0.00 | 0.00 | 0.00 | 78 | 1016.5 |
| 20260831084037 | 75 | 179 | 4.3 | 7.0 | 0.00 | 0.00 | 0.00 | 78 | 1016.5 |
| 20260831083936 | 75 | 178 | 4.3 | 7.0 | 0.00 | 0.00 | 0.00 | 78 | 1016.5 |
| 20260831083834 | 75 | 176 | 4.3 | 7.0 | 0.00 | 0.00 | 0.00 | 78 | 1016.5 |
| 20260831083733 | 75 | 185 | 3.5 | 7.0 | 0.00 | 0.00 | 0.00 | 78 | 1016.5 |
| 20260831083637 | 75 | 178 | 3.5 | 7.0 | 0.00 | 0.00 | 0.00 | 78 | 1016.5 |
| 20260831083535 | 75 | 174 | 3.5 | 7.0 | 0.00 | 0.00 | 0.00 | 78 | 1016.5 |
| 20260831083432 | 75 | 168 | 2.6 | 7.8 | 0.00 | 0.00 | 0.00 | 79 | 1016.5 |
| 20260831083331 | 75 | 167 | 3.5 | 7.8 | 0.00 | 0.00 | 0.00 | 79 | 1016.5 |
| 20260831083231 | 75 | 158 | 4.3 | 7.8 | 0.00 | 0.00 | 0.00 | 79 | 1016.5 |
| 20260831083201 | 75 | 154 | 4.3 | 7.8 | 0.00 | 0.00 | 0.00 | 79 | 1016.5 |
| 20260831083041 | 75 | 164 | 3.5 | 7.8 | 0.00 | 0.00 | 0.00 | 79 | 1016.5 |
| 20260831082943 | 75 | 161 | 2.6 | 7.8 | 0.00 | 0.00 | 0.00 | 79 | 1016.5 |
| 20260831082902 | 75 | 158 | 3.5 | 7.8 | 0.00 | 0.00 | 0.00 | 79 | 1016.5 |
| 20260831082739 | 75 | 162 | 5.2 | 7.8 | 0.00 | 0.00 | 0.00 | 78 | 1016.4 |
| 20260831082638 | 75 | 179 | 6.1 | 7.8 | 0.00 | 0.00 | 0.00 | 78 | 1016.4 |
| 20260831082537 | 75 | 152 | 5.2 | 7.8 | 0.00 | 0.00 | 0.00 | 78 | 1016.4 |
| 20260831082436 | 75 | 167 | 4.3 | 7.8 | 0.00 | 0.00 | 0.00 | 78 | 1016.4 |
| 20260831082333 | 75 | 161 | 3.5 | 7.0 | 0.00 | 0.00 | 0.00 | 78 | 1016.4 |
| 20260831082236 | 75 | 157 | 3.5 | 7.0 | 0.00 | 0.00 | 0.00 | 78 | 1016.4 |
| 20260831082134 | 75 | 147 | 3.5 | 7.0 | 0.00 | 0.00 | 0.00 | 78 | 1016.4 |
| 20260831082034 | 75 | 171 | 4.3 | 7.0 | 0.00 | 0.00 | 0.00 | 78 | 1016.4 |
| 20260831081933 | 75 | 160 | 4.3 | 7.0 | 0.00 | 0.00 | 0.00 | 78 | 1016.4 |
| 20260831081831 | 75 | 158 | 3.5 | 7.0 | 0.00 | 0.00 | 0.00 | 78 | 1016.4 |
| 20260831081731 | 75 | 161 | 4.3 | 7.0 | 0.00 | 0.00 | 0.00 | 78 | 1016.4 |
| 20260831081700 | 75 | 152 | 4.3 | 7.0 | 0.00 | 0.00 | 0.00 | 78 | 1016.4 |
| 20260831081541 | 75 | 167 | 3.5 | 7.0 | 0.00 | 0.00 | 0.00 | 78 | 1016.4 |
| 20260831081438 | 75 | 165 | 3.5 | 7.0 | 0.00 | 0.00 | 0.00 | 78 | 1016.4 |
| 20260831081336 | 75 | 160 | 3.5 | 7.0 | 0.00 | 0.00 | 0.00 | 78 | 1016.4 |
| 20260831081234 | 75 | 161 | 3.5 | 7.0 | 0.00 | 0.00 | 0.00 | 78 | 1016.4 |
| 20260831081131 | 75 | 162 | 2.6 | 7.0 | 0.00 | 0.00 | 0.00 | 78 | 1016.4 |
| 20260831081030 | 75 | 150 | 3.5 | 7.0 | 0.00 | 0.00 | 0.00 | 78 | 1016.4 |
| 20260831080930 | 75 | 169 | 2.6 | 7.0 | 0.00 | 0.00 | 0.00 | 78 | 1016.4 |
| 20260831080828 | 75 | 164 | 3.5 | 7.0 | 0.00 | 0.00 | 0.00 | 78 | 1016.4 |
| 20260831080733 | 75 | 157 | 4.3 | 7.0 | 0.00 | 0.00 | 0.00 | 78 | 1016.4 |
| 20260831080630 | 75 | 171 | 3.5 | 7.8 | 0.00 | 0.00 | 0.00 | 78 | 1016.4 |
| 20260831080527 | 75 | 175 | 4.3 | 7.8 | 0.00 | 0.00 | 0.00 | 78 | 1016.4 |
| 20260831080446 | 75 | 162 | 5.2 | 7.8 | 0.00 | 0.00 | 0.00 | 78 | 1016.4 |
| 20260831080325 | 75 | 165 | 5.2 | 7.8 | 0.00 | 0.00 | 0.00 | 78 | 1016.4 |
| 20260831080237 | 75 | 157 | 6.1 | 7.8 | 0.00 | 0.00 | 0.00 | 78 | 1016.4 |
| 20260831080146 | 75 | 169 | 3.5 | 7.8 | 0.00 | 0.00 | 0.00 | 78 | 1016.4 |
| 20260831080024 | 75 | 178 | 5.2 | 7.8 | 0.00 | 0.00 | 0.00 | 78 | 1016.4 |
| 20260831075927 | 75 | 179 | 2.6 | 7.8 | 0.00 | 0.00 | 0.00 | 78 | 1016.4 |
| 20260831075826 | 75 | 185 | 4.3 | 7.8 | 0.00 | 0.00 | 0.00 | 77 | 1016.4 |
| 20260831075724 | 75 | 184 | 3.5 | 7.8 | 0.00 | 0.00 | 0.00 | 77 | 1016.5 |
| 20260831075643 | 75 | 143 | 4.3 | 7.0 | 0.00 | 0.00 | 0.00 | 77 | 1016.5 |
| 20260831075543 | 75 | 160 | 3.5 | 6.1 | 0.00 | 0.00 | 0.00 | 77 | 1016.5 |
| 20260831075442 | 75 | 175 | 3.5 | 6.1 | 0.00 | 0.00 | 0.00 | 77 | 1016.5 |
| 20260831075325 | 75 | 169 | 4.3 | 6.1 | 0.00 | 0.00 | 0.00 | 77 | 1016.5 |
| 20260831075242 | 75 | 168 | 4.3 | 7.8 | 0.00 | 0.00 | 0.00 | 77 | 1016.5 |
| 20260831075141 | 75 | 168 | 3.5 | 8.7 | 0.00 | 0.00 | 0.00 | 77 | 1016.5 |
| 20260831075040 | 75 | 171 | 2.6 | 8.7 | 0.00 | 0.00 | 0.00 | 77 | 1016.5 |
| 20260831074938 | 75 | 172 | 3.5 | 8.7 | 0.00 | 0.00 | 0.00 | 77 | 1016.5 |
| 20260831074836 | 75 | 172 | 4.3 | 8.7 | 0.00 | 0.00 | 0.00 | 77 | 1016.5 |
| 20260831074755 | 75 | 175 | 3.5 | 8.7 | 0.00 | 0.00 | 0.00 | 77 | 1016.5 |
| 20260831074702 | 75 | 169 | 3.5 | 8.7 | 0.00 | 0.00 | 0.00 | 77 | 1016.5 |
| 20260831074601 | 75 | 189 | 3.5 | 8.7 | 0.00 | 0.00 | 0.00 | 77 | 1016.5 |
| 20260831074503 | 75 | 202 | 4.3 | 8.7 | 0.00 | 0.00 | 0.00 | 77 | 1016.5 |
| 20260831074400 | 75 | 195 | 5.2 | 8.7 | 0.00 | 0.00 | 0.00 | 77 | 1016.5 |
| 20260831074236 | 75 | 165 | 4.3 | 7.0 | 0.00 | 0.00 | 0.00 | 77 | 1016.5 |
| 20260831074134 | 75 | 167 | 3.5 | 7.0 | 0.00 | 0.00 | 0.00 | 77 | 1016.5 |
| 20260831074053 | 75 | 161 | 4.3 | 7.0 | 0.00 | 0.00 | 0.00 | 77 | 1016.5 |
| 20260831073931 | 75 | 158 | 4.3 | 7.0 | 0.00 | 0.00 | 0.00 | 77 | 1016.5 |
| 20260831073829 | 75 | 154 | 4.3 | 6.1 | 0.00 | 0.00 | 0.00 | 77 | 1016.5 |
| 20260831073748 | 75 | 155 | 4.3 | 7.0 | 0.00 | 0.00 | 0.00 | 77 | 1016.5 |
| 20260831073627 | 75 | 160 | 3.5 | 7.0 | 0.00 | 0.00 | 0.00 | 77 | 1016.5 |
| 20260831073531 | 75 | 169 | 4.3 | 7.0 | 0.00 | 0.00 | 0.00 | 77 | 1016.5 |
| 20260831073430 | 75 | 165 | 4.3 | 7.0 | 0.00 | 0.00 | 0.00 | 77 | 1016.5 |
| 20260831073328 | 75 | 154 | 3.5 | 8.7 | 0.00 | 0.00 | 0.00 | 77 | 1016.5 |
| 20260831073239 | 75 | 158 | 2.6 | 8.7 | 0.00 | 0.00 | 0.00 | 77 | 1016.5 |
| 20260831073148 | 75 | 151 | 2.6 | 8.7 | 0.00 | 0.00 | 0.00 | 77 | 1016.5 |
| 20260831073045 | 75 | 168 | 2.6 | 8.7 | 0.00 | 0.00 | 0.00 | 77 | 1016.5 |
| 20260831073004 | 76 | 168 | 4.3 | 8.7 | 0.00 | 0.00 | 0.00 | 77 | 1016.5 |
| 20260831072901 | 76 | 158 | 4.3 | 8.7 | 0.00 | 0.00 | 0.00 | 77 | 1016.5 |
| 20260831072739 | 76 | 165 | 2.6 | 8.7 | 0.00 | 0.00 | 0.00 | 77 | 1016.5 |
| 20260831072642 | 76 | 182 | 4.3 | 8.7 | 0.00 | 0.00 | 0.00 | 77 | 1016.5 |
| 20260831072541 | 76 | 167 | 5.2 | 9.6 | 0.00 | 0.00 | 0.00 | 77 | 1016.5 |
| 20260831072439 | 76 | 161 | 4.3 | 9.6 | 0.00 | 0.00 | 0.00 | 77 | 1016.5 |
| 20260831072338 | 76 | 158 | 2.6 | 9.6 | 0.00 | 0.00 | 0.00 | 77 | 1016.5 |
| 20260831072236 | 76 | 162 | 3.5 | 9.6 | 0.00 | 0.00 | 0.00 | 77 | 1016.5 |
| 20260831072135 | 76 | 171 | 4.3 | 9.6 | 0.00 | 0.00 | 0.00 | 77 | 1016.5 |
| 20260831072040 | 76 | 145 | 4.3 | 9.6 | 0.00 | 0.00 | 0.00 | 77 | 1016.5 |
| 20260831071937 | 76 | 148 | 2.6 | 9.6 | 0.00 | 0.00 | 0.00 | 77 | 1016.5 |
| 20260831071834 | 76 | 145 | 3.5 | 9.6 | 0.00 | 0.00 | 0.00 | 77 | 1016.5 |
| 20260831071743 | 76 | 154 | 6.1 | 9.6 | 0.00 | 0.00 | 0.00 | 77 | 1016.5 |
| 20260831071652 | 76 | 144 | 3.5 | 9.6 | 0.00 | 0.00 | 0.00 | 77 | 1016.5 |
| 20260831071529 | 76 | 172 | 2.6 | 6.1 | 0.00 | 0.00 | 0.00 | 77 | 1016.5 |
| 20260831071427 | 76 | 175 | 1.7 | 6.1 | 0.00 | 0.00 | 0.00 | 77 | 1016.5 |
| 20260831071329 | 76 | 161 | 1.7 | 6.1 | 0.00 | 0.00 | 0.00 | 77 | 1016.5 |
| 20260831071232 | 76 | 169 | 2.6 | 6.1 | 0.00 | 0.00 | 0.00 | 77 | 1016.4 |
| 20260831071130 | 76 | 161 | 1.7 | 6.1 | 0.00 | 0.00 | 0.00 | 77 | 1016.4 |
| 20260831071029 | 76 | 155 | 2.6 | 6.1 | 0.00 | 0.00 | 0.00 | 77 | 1016.4 |
| 20260831070929 | 76 | 151 | 3.5 | 6.1 | 0.00 | 0.00 | 0.00 | 77 | 1016.4 |
| 20260831070829 | 76 | 169 | 2.6 | 6.1 | 0.00 | 0.00 | 0.00 | 77 | 1016.4 |
| 20260831070728 | 76 | 162 | 2.6 | 6.1 | 0.00 | 0.00 | 0.00 | 77 | 1016.4 |
| 20260831070631 | 76 | 154 | 3.5 | 6.1 | 0.00 | 0.00 | 0.00 | 77 | 1016.4 |
| 20260831070530 | 76 | 154 | 2.6 | 6.1 | 0.00 | 0.00 | 0.00 | 77 | 1016.4 |
| 20260831070429 | 76 | 152 | 3.5 | 7.0 | 0.00 | 0.00 | 0.00 | 77 | 1016.4 |
| 20260831070330 | 76 | 152 | 4.3 | 7.0 | 0.00 | 0.00 | 0.00 | 77 | 1016.4 |
| 20260831070249 | 76 | 157 | 4.3 | 7.0 | 0.00 | 0.00 | 0.00 | 76 | 1016.4 |
| 20260831070157 | 76 | 164 | 3.5 | 7.0 | 0.00 | 0.00 | 0.00 | 77 | 1016.4 |
| 20260831070033 | 76 | 165 | 3.5 | 7.0 | 0.00 | 0.00 | 0.00 | 77 | 1016.4 |
| 20260831065937 | 76 | 162 | 3.5 | 7.0 | 0.00 | 0.00 | 0.00 | 77 | 1016.4 |
| 20260831065835 | 76 | 169 | 2.6 | 7.0 | 0.00 | 0.00 | 0.00 | 77 | 1016.4 |
| 20260831065733 | 76 | 158 | 2.6 | 7.0 | 0.00 | 0.00 | 0.00 | 77 | 1016.5 |
| 20260831065633 | 76 | 143 | 4.3 | 7.0 | 0.00 | 0.00 | 0.00 | 77 | 1016.5 |
| 20260831065532 | 76 | 151 | 3.5 | 7.0 | 0.00 | 0.00 | 0.00 | 77 | 1016.5 |
| 20260831065432 | 76 | 154 | 4.3 | 7.0 | 0.00 | 0.00 | 0.00 | 77 | 1016.5 |
| 20260831065352 | 76 | 148 | 3.5 | 7.0 | 0.00 | 0.00 | 0.00 | 77 | 1016.5 |
| 20260831065232 | 76 | 191 | 3.5 | 7.0 | 0.00 | 0.00 | 0.00 | 77 | 1016.5 |
| 20260831065132 | 76 | 186 | 0.9 | 7.0 | 0.00 | 0.00 | 0.00 | 77 | 1016.5 |
| 20260831065031 | 76 | 188 | 1.7 | 7.0 | 0.00 | 0.00 | 0.00 | 77 | 1016.5 |
| 20260831064930 | 76 | 186 | 1.7 | 7.0 | 0.00 | 0.00 | 0.00 | 77 | 1016.5 |
| 20260831064829 | 76 | 186 | 2.6 | 7.0 | 0.00 | 0.00 | 0.00 | 77 | 1016.5 |
| 20260831064748 | 76 | 192 | 4.3 | 7.0 | 0.00 | 0.00 | 0.00 | 77 | 1016.5 |
| 20260831064657 | 76 | 174 | 3.5 | 5.2 | 0.00 | 0.00 | 0.00 | 77 | 1016.5 |
| 20260831064536 | 76 | 181 | 2.6 | 5.2 | 0.00 | 0.00 | 0.00 | 77 | 1016.5 |
| 20260831064459 | 76 | 171 | 1.7 | 5.2 | 0.00 | 0.00 | 0.00 | 77 | 1016.5 |
| 20260831064337 | 76 | 165 | 3.5 | 5.2 | 0.00 | 0.00 | 0.00 | 77 | 1016.5 |
| 20260831064237 | 76 | 175 | 1.7 | 5.2 | 0.00 | 0.00 | 0.00 | 77 | 1016.5 |
| 20260831064136 | 76 | 178 | 2.6 | 5.2 | 0.00 | 0.00 | 0.00 | 77 | 1016.5 |
| 20260831064035 | 76 | 178 | 1.7 | 5.2 | 0.00 | 0.00 | 0.00 | 77 | 1016.5 |
| 20260831063954 | 76 | 178 | 0.9 | 5.2 | 0.00 | 0.00 | 0.00 | 77 | 1016.5 |
| 20260831063831 | 76 | 175 | 1.7 | 6.1 | 0.00 | 0.00 | 0.00 | 77 | 1016.5 |
| 20260831063733 | 76 | 176 | 2.6 | 7.0 | 0.00 | 0.00 | 0.00 | 77 | 1016.5 |
| 20260831063633 | 76 | 172 | 0.9 | 7.0 | 0.00 | 0.00 | 0.00 | 77 | 1016.5 |
| 20260831063532 | 76 | 172 | 1.7 | 7.0 | 0.00 | 0.00 | 0.00 | 77 | 1016.5 |
| 20260831063452 | 76 | 169 | 2.6 | 7.0 | 0.00 | 0.00 | 0.00 | 76 | 1016.5 |
| 20260831063330 | 76 | 176 | 2.6 | 7.0 | 0.00 | 0.00 | 0.00 | 76 | 1016.5 |
| 20260831063240 | 76 | 171 | 2.6 | 7.0 | 0.00 | 0.00 | 0.00 | 76 | 1016.5 |
| 20260831063151 | 76 | 175 | 1.7 | 7.0 | 0.00 | 0.00 | 0.00 | 76 | 1016.5 |
| 20260831063026 | 76 | 165 | 3.5 | 7.0 | 0.00 | 0.00 | 0.00 | 76 | 1016.5 |
| 20260831062928 | 76 | 188 | 4.3 | 7.0 | 0.00 | 0.00 | 0.00 | 76 | 1016.5 |
| 20260831062828 | 76 | 167 | 4.3 | 6.1 | 0.00 | 0.00 | 0.00 | 76 | 1016.5 |
| 20260831062725 | 76 | 172 | 2.6 | 6.1 | 0.00 | 0.00 | 0.00 | 76 | 1016.6 |
| 20260831062643 | 76 | 169 | 2.6 | 6.1 | 0.00 | 0.00 | 0.00 | 76 | 1016.6 |
| 20260831062542 | 76 | 161 | 3.5 | 6.1 | 0.00 | 0.00 | 0.00 | 76 | 1016.6 |
| 20260831062501 | 76 | 155 | 4.3 | 6.1 | 0.00 | 0.00 | 0.00 | 76 | 1016.6 |
| 20260831062359 | 76 | 144 | 3.5 | 7.0 | 0.00 | 0.00 | 0.00 | 76 | 1016.6 |
| 20260831062237 | 76 | 182 | 3.5 | 7.0 | 0.00 | 0.00 | 0.00 | 76 | 1016.6 |
| 20260831062136 | 76 | 165 | 3.5 | 7.0 | 0.00 | 0.00 | 0.00 | 76 | 1016.6 |
| 20260831062037 | 76 | 158 | 2.6 | 7.0 | 0.00 | 0.00 | 0.00 | 76 | 1016.6 |
| 20260831061936 | 76 | 162 | 2.6 | 7.0 | 0.00 | 0.00 | 0.00 | 76 | 1016.6 |
| 20260831061834 | 76 | 174 | 2.6 | 7.0 | 0.00 | 0.00 | 0.00 | 76 | 1016.6 |
| 20260831061754 | 76 | 171 | 2.6 | 7.0 | 0.00 | 0.00 | 0.00 | 76 | 1016.6 |
| 20260831061702 | 76 | 171 | 3.5 | 7.0 | 0.00 | 0.00 | 0.00 | 76 | 1016.6 |
| 20260831061559 | 76 | 174 | 3.5 | 7.0 | 0.00 | 0.00 | 0.00 | 76 | 1016.6 |
| 20260831061437 | 76 | 161 | 4.3 | 7.0 | 0.00 | 0.00 | 0.00 | 76 | 1016.6 |
| 20260831061335 | 76 | 150 | 4.3 | 7.0 | 0.00 | 0.00 | 0.00 | 76 | 1016.6 |
| 20260831061233 | 76 | 151 | 3.5 | 7.0 | 0.00 | 0.00 | 0.00 | 76 | 1016.8 |
| 20260831061138 | 76 | 160 | 4.3 | 7.0 | 0.00 | 0.00 | 0.00 | 76 | 1016.8 |
| 20260831061038 | 76 | 164 | 3.5 | 7.0 | 0.00 | 0.00 | 0.00 | 76 | 1016.8 |
| 20260831060937 | 76 | 165 | 3.5 | 7.0 | 0.00 | 0.00 | 0.00 | 76 | 1016.8 |
| 20260831060835 | 76 | 155 | 3.5 | 7.0 | 0.00 | 0.00 | 0.00 | 76 | 1016.8 |
| 20260831060753 | 76 | 150 | 4.3 | 7.0 | 0.00 | 0.00 | 0.00 | 76 | 1016.8 |
| 20260831060631 | 76 | 138 | 2.6 | 7.0 | 0.00 | 0.00 | 0.00 | 76 | 1016.8 |
| 20260831060530 | 76 | 128 | 3.5 | 7.0 | 0.00 | 0.00 | 0.00 | 76 | 1016.8 |
| 20260831060433 | 76 | 144 | 4.3 | 7.0 | 0.00 | 0.00 | 0.00 | 76 | 1016.8 |
| 20260831060330 | 76 | 161 | 5.2 | 6.1 | 0.00 | 0.00 | 0.00 | 76 | 1016.8 |
| 20260831060240 | 76 | 151 | 4.3 | 6.1 | 0.00 | 0.00 | 0.00 | 76 | 1016.8 |
| 20260831060151 | 76 | 154 | 5.2 | 6.1 | 0.00 | 0.00 | 0.00 | 76 | 1016.8 |
| 20260831060047 | 76 | 150 | 5.2 | 6.1 | 0.00 | 0.00 | 0.00 | 76 | 1016.8 |
| 20260831055944 | 76 | 152 | 4.3 | 6.1 | 0.00 | 0.00 | 0.00 | 76 | 1016.8 |
| 20260831055902 | 76 | 154 | 3.5 | 6.1 | 0.00 | 0.00 | 0.00 | 76 | 1016.8 |
| 20260831055739 | 76 | 162 | 2.6 | 6.1 | 0.00 | 0.00 | 0.00 | 76 | 1016.7 |
| 20260831055658 | 76 | 158 | 2.6 | 6.1 | 0.00 | 0.00 | 0.00 | 76 | 1016.7 |
| 20260831055540 | 76 | 160 | 2.6 | 6.1 | 0.00 | 0.00 | 0.00 | 76 | 1016.7 |
| 20260831055439 | 76 | 162 | 1.7 | 6.1 | 0.00 | 0.00 | 0.00 | 76 | 1016.7 |
| 20260831055337 | 76 | 160 | 2.6 | 6.1 | 0.00 | 0.00 | 0.00 | 75 | 1016.7 |
| 20260831055235 | 76 | 160 | 5.2 | 6.1 | 0.00 | 0.00 | 0.00 | 75 | 1016.7 |
| 20260831055138 | 76 | 162 | 3.5 | 6.1 | 0.00 | 0.00 | 0.00 | 75 | 1016.7 |
| 20260831055036 | 76 | 165 | 3.5 | 6.1 | 0.00 | 0.00 | 0.00 | 75 | 1016.7 |
| 20260831054935 | 76 | 165 | 2.6 | 6.1 | 0.00 | 0.00 | 0.00 | 75 | 1016.7 |
| 20260831054838 | 76 | 161 | 2.6 | 6.1 | 0.00 | 0.00 | 0.00 | 75 | 1016.7 |
| 20260831054757 | 76 | 157 | 3.5 | 6.1 | 0.00 | 0.00 | 0.00 | 75 | 1016.7 |
| 20260831054707 | 76 | 152 | 3.5 | 6.1 | 0.00 | 0.00 | 0.00 | 75 | 1016.7 |
| 20260831054524 | 76 | 154 | 4.3 | 6.1 | 0.00 | 0.00 | 0.00 | 75 | 1016.7 |
| 20260831054444 | 76 | 150 | 4.3 | 6.1 | 0.00 | 0.00 | 0.00 | 75 | 1016.7 |
| 20260831054403 | 76 | 157 | 3.5 | 6.1 | 0.00 | 0.00 | 0.00 | 75 | 1016.7 |
| 20260831054239 | 76 | 171 | 3.5 | 6.1 | 0.00 | 0.00 | 0.00 | 75 | 1016.5 |
| 20260831054138 | 76 | 167 | 2.6 | 6.1 | 0.00 | 0.00 | 0.00 | 75 | 1016.5 |
| 20260831054036 | 76 | 151 | 2.6 | 6.1 | 0.00 | 0.00 | 0.00 | 75 | 1016.5 |
| 20260831053939 | 76 | 155 | 3.5 | 6.1 | 0.00 | 0.00 | 0.00 | 75 | 1016.5 |
| 20260831053837 | 76 | 161 | 3.5 | 6.1 | 0.00 | 0.00 | 0.00 | 75 | 1016.5 |
| 20260831053737 | 76 | 167 | 4.3 | 6.1 | 0.00 | 0.00 | 0.00 | 75 | 1016.5 |
| 20260831053635 | 76 | 148 | 4.3 | 6.1 | 0.00 | 0.00 | 0.00 | 75 | 1016.5 |
| 20260831053534 | 76 | 151 | 4.3 | 6.1 | 0.00 | 0.00 | 0.00 | 75 | 1016.5 |
| 20260831053432 | 76 | 151 | 2.6 | 6.1 | 0.00 | 0.00 | 0.00 | 75 | 1016.5 |
| 20260831053350 | 76 | 161 | 3.5 | 6.1 | 0.00 | 0.00 | 0.00 | 75 | 1016.5 |
| 20260831053252 | 76 | 147 | 4.3 | 6.1 | 0.00 | 0.00 | 0.00 | 75 | 1016.5 |
| 20260831053222 | 76 | 154 | 3.5 | 6.1 | 0.00 | 0.00 | 0.00 | 75 | 1016.5 |
| 20260831053058 | 76 | 161 | 4.3 | 7.0 | 0.00 | 0.00 | 0.00 | 75 | 1016.5 |
| 20260831052936 | 76 | 145 | 5.2 | 7.0 | 0.00 | 0.00 | 0.00 | 75 | 1016.5 |
| 20260831052855 | 76 | 148 | 3.5 | 7.0 | 0.00 | 0.00 | 0.00 | 75 | 1016.5 |
| 20260831052733 | 76 | 148 | 3.5 | 7.0 | 0.00 | 0.00 | 0.00 | 75 | 1016.5 |
| 20260831052632 | 76 | 137 | 3.5 | 7.0 | 0.00 | 0.00 | 0.00 | 75 | 1016.5 |
| 20260831052530 | 76 | 145 | 4.3 | 7.0 | 0.00 | 0.00 | 0.00 | 75 | 1016.5 |
| 20260831052433 | 76 | 144 | 4.3 | 7.0 | 0.00 | 0.00 | 0.00 | 75 | 1016.5 |
| 20260831052350 | 76 | 144 | 3.5 | 7.0 | 0.00 | 0.00 | 0.00 | 75 | 1016.5 |
| 20260831052248 | 77 | 136 | 4.3 | 7.0 | 0.00 | 0.00 | 0.00 | 75 | 1016.5 |
| 20260831052127 | 77 | 128 | 6.1 | 7.0 | 0.00 | 0.00 | 0.00 | 75 | 1016.5 |
| 20260831052026 | 77 | 147 | 4.3 | 7.0 | 0.00 | 0.00 | 0.00 | 75 | 1016.5 |
| 20260831051926 | 77 | 137 | 4.3 | 7.0 | 0.00 | 0.00 | 0.00 | 75 | 1016.5 |
| 20260831051824 | 77 | 141 | 5.2 | 7.0 | 0.00 | 0.00 | 0.00 | 75 | 1016.5 |
| 20260831051733 | 77 | 137 | 4.3 | 7.0 | 0.00 | 0.00 | 0.00 | 75 | 1016.5 |
| 20260831051645 | 77 | 136 | 5.2 | 7.0 | 0.00 | 0.00 | 0.00 | 75 | 1016.5 |
| 20260831051543 | 77 | 145 | 3.5 | 7.0 | 0.00 | 0.00 | 0.00 | 74 | 1016.5 |
| 20260831051441 | 77 | 143 | 3.5 | 7.0 | 0.00 | 0.00 | 0.00 | 74 | 1016.5 |
| 20260831051341 | 77 | 138 | 4.3 | 7.0 | 0.00 | 0.00 | 0.00 | 74 | 1016.5 |
| 20260831051301 | 77 | 138 | 4.3 | 7.0 | 0.00 | 0.00 | 0.00 | 74 | 1016.5 |
| 20260831051138 | 77 | 144 | 4.3 | 7.0 | 0.00 | 0.00 | 0.00 | 74 | 1016.5 |
| 20260831051037 | 77 | 138 | 4.3 | 7.0 | 0.00 | 0.00 | 0.00 | 74 | 1016.5 |
| 20260831050936 | 77 | 143 | 5.2 | 7.0 | 0.00 | 0.00 | 0.00 | 74 | 1016.5 |
| 20260831050858 | 77 | 151 | 5.2 | 7.0 | 0.00 | 0.00 | 0.00 | 74 | 1016.5 |
| 20260831050757 | 77 | 143 | 3.5 | 6.1 | 0.00 | 0.00 | 0.00 | 74 | 1016.5 |
| 20260831050636 | 77 | 157 | 2.6 | 6.1 | 0.00 | 0.00 | 0.00 | 74 | 1016.5 |
| 20260831050553 | 77 | 145 | 4.3 | 6.1 | 0.00 | 0.00 | 0.00 | 74 | 1016.5 |
| 20260831050431 | 77 | 144 | 2.6 | 7.0 | 0.00 | 0.00 | 0.00 | 74 | 1016.5 |
| 20260831050331 | 77 | 138 | 3.5 | 7.0 | 0.00 | 0.00 | 0.00 | 74 | 1016.5 |
| 20260831050229 | 77 | 140 | 3.5 | 7.0 | 0.00 | 0.00 | 0.00 | 74 | 1016.5 |
| 20260831050159 | 77 | 137 | 3.5 | 7.0 | 0.00 | 0.00 | 0.00 | 74 | 1016.5 |
| 20260831050040 | 77 | 124 | 3.5 | 7.0 | 0.00 | 0.00 | 0.00 | 74 | 1016.5 |
| 20260831045938 | 77 | 121 | 2.6 | 7.0 | 0.00 | 0.00 | 0.00 | 74 | 1016.5 |
| 20260831045839 | 77 | 113 | 2.6 | 7.0 | 0.00 | 0.00 | 0.00 | 74 | 1016.5 |
| 20260831045738 | 77 | 119 | 5.2 | 7.0 | 0.00 | 0.00 | 0.00 | 74 | 1016.6 |
| 20260831045638 | 77 | 127 | 4.3 | 7.0 | 0.00 | 0.00 | 0.00 | 74 | 1016.6 |
| 20260831045540 | 77 | 124 | 4.3 | 7.0 | 0.00 | 0.00 | 0.00 | 74 | 1016.6 |
| 20260831045440 | 77 | 141 | 4.3 | 7.0 | 0.00 | 0.00 | 0.00 | 74 | 1016.6 |
| 20260831045343 | 77 | 133 | 4.3 | 7.0 | 0.00 | 0.00 | 0.00 | 74 | 1016.6 |
| 20260831045241 | 77 | 121 | 4.3 | 7.0 | 0.00 | 0.00 | 0.00 | 73 | 1016.6 |
| 20260831045139 | 77 | 121 | 5.2 | 7.0 | 0.00 | 0.00 | 0.00 | 73 | 1016.6 |
| 20260831045037 | 77 | 133 | 4.3 | 6.1 | 0.00 | 0.00 | 0.00 | 74 | 1016.6 |
| 20260831044956 | 77 | 124 | 2.6 | 6.1 | 0.00 | 0.00 | 0.00 | 73 | 1016.6 |
| 20260831044833 | 77 | 117 | 3.5 | 6.1 | 0.00 | 0.00 | 0.00 | 73 | 1016.6 |
| 20260831044732 | 77 | 114 | 4.3 | 6.1 | 0.00 | 0.00 | 0.00 | 73 | 1016.6 |
| 20260831044700 | 77 | 141 | 3.5 | 6.1 | 0.00 | 0.00 | 0.00 | 74 | 1016.6 |
| 20260831044542 | 77 | 137 | 2.6 | 6.1 | 0.00 | 0.00 | 0.00 | 73 | 1016.6 |
| 20260831044440 | 77 | 138 | 4.3 | 6.1 | 0.00 | 0.00 | 0.00 | 73 | 1016.6 |
| 20260831044400 | 77 | 137 | 4.3 | 6.1 | 0.00 | 0.00 | 0.00 | 73 | 1016.6 |
| 20260831044239 | 77 | 137 | 4.3 | 6.1 | 0.00 | 0.00 | 0.00 | 73 | 1016.5 |
| 20260831044137 | 77 | 134 | 3.5 | 6.1 | 0.00 | 0.00 | 0.00 | 73 | 1016.5 |
| 20260831044037 | 77 | 133 | 4.3 | 6.1 | 0.00 | 0.00 | 0.00 | 73 | 1016.5 |
| 20260831043935 | 77 | 134 | 3.5 | 6.1 | 0.00 | 0.00 | 0.00 | 73 | 1016.5 |
| 20260831043838 | 77 | 137 | 3.5 | 6.1 | 0.00 | 0.00 | 0.00 | 73 | 1016.5 |
| 20260831043735 | 77 | 141 | 2.6 | 6.1 | 0.00 | 0.00 | 0.00 | 73 | 1016.5 |
| 20260831043633 | 77 | 145 | 2.6 | 6.1 | 0.00 | 0.00 | 0.00 | 73 | 1016.5 |
| 20260831043553 | 77 | 137 | 4.3 | 6.1 | 0.00 | 0.00 | 0.00 | 73 | 1016.5 |
| 20260831043452 | 77 | 143 | 2.6 | 6.1 | 0.00 | 0.00 | 0.00 | 73 | 1016.5 |
| 20260831043330 | 77 | 140 | 2.6 | 6.1 | 0.00 | 0.00 | 0.00 | 73 | 1016.5 |
| 20260831043229 | 77 | 144 | 5.2 | 6.1 | 0.00 | 0.00 | 0.00 | 73 | 1016.5 |
| 20260831043201 | 77 | 143 | 4.3 | 6.1 | 0.00 | 0.00 | 0.00 | 73 | 1016.5 |
| 20260831043042 | 77 | 141 | 3.5 | 6.1 | 0.00 | 0.00 | 0.00 | 73 | 1016.5 |
| 20260831043000 | 77 | 147 | 2.6 | 6.1 | 0.00 | 0.00 | 0.00 | 73 | 1016.5 |
| 20260831042837 | 77 | 148 | 4.3 | 6.1 | 0.00 | 0.00 | 0.00 | 73 | 1016.5 |
| 20260831042738 | 77 | 140 | 3.5 | 6.1 | 0.00 | 0.00 | 0.00 | 73 | 1016.6 |
| 20260831042638 | 77 | 141 | 5.2 | 6.1 | 0.00 | 0.00 | 0.00 | 74 | 1016.6 |
| 20260831042536 | 77 | 136 | 3.5 | 6.1 | 0.00 | 0.00 | 0.00 | 73 | 1016.6 |
| 20260831042434 | 77 | 133 | 3.5 | 6.1 | 0.00 | 0.00 | 0.00 | 73 | 1016.6 |
| 20260831042332 | 77 | 144 | 3.5 | 6.1 | 0.00 | 0.00 | 0.00 | 74 | 1016.6 |
| 20260831042256 | 77 | 143 | 2.6 | 6.1 | 0.00 | 0.00 | 0.00 | 74 | 1016.6 |
| 20260831042133 | 77 | 145 | 3.5 | 6.1 | 0.00 | 0.00 | 0.00 | 74 | 1016.6 |
| 20260831042032 | 77 | 140 | 3.5 | 6.1 | 0.00 | 0.00 | 0.00 | 74 | 1016.6 |
| 20260831041951 | 77 | 141 | 3.5 | 6.1 | 0.00 | 0.00 | 0.00 | 74 | 1016.6 |
| 20260831041828 | 77 | 140 | 5.2 | 6.1 | 0.00 | 0.00 | 0.00 | 74 | 1016.6 |
| 20260831041726 | 77 | 141 | 3.5 | 6.1 | 0.00 | 0.00 | 0.00 | 74 | 1016.6 |
| 20260831041656 | 77 | 147 | 3.5 | 6.1 | 0.00 | 0.00 | 0.00 | 74 | 1016.6 |
| 20260831041534 | 77 | 145 | 3.5 | 6.1 | 0.00 | 0.00 | 0.00 | 74 | 1016.6 |
| 20260831041453 | 77 | 151 | 3.5 | 6.1 | 0.00 | 0.00 | 0.00 | 74 | 1016.6 |
| 20260831041355 | 77 | 134 | 4.3 | 6.1 | 0.00 | 0.00 | 0.00 | 74 | 1016.6 |
| 20260831041233 | 77 | 134 | 3.5 | 6.1 | 0.00 | 0.00 | 0.00 | 74 | 1016.8 |
| 20260831041132 | 77 | 137 | 2.6 | 6.1 | 0.00 | 0.00 | 0.00 | 74 | 1016.8 |
| 20260831041032 | 77 | 134 | 2.6 | 6.1 | 0.00 | 0.00 | 0.00 | 74 | 1016.8 |
| 20260831040954 | 77 | 133 | 2.6 | 6.1 | 0.00 | 0.00 | 0.00 | 74 | 1016.8 |
| 20260831040831 | 77 | 136 | 3.5 | 6.1 | 0.00 | 0.00 | 0.00 | 74 | 1016.8 |
| 20260831040730 | 77 | 133 | 5.2 | 6.1 | 0.00 | 0.00 | 0.00 | 74 | 1016.8 |
| 20260831040633 | 77 | 134 | 4.3 | 6.1 | 0.00 | 0.00 | 0.00 | 74 | 1016.8 |
| 20260831040533 | 77 | 137 | 3.5 | 6.1 | 0.00 | 0.00 | 0.00 | 73 | 1016.8 |
| 20260831040432 | 77 | 127 | 2.6 | 6.1 | 0.00 | 0.00 | 0.00 | 73 | 1016.8 |
| 20260831040331 | 77 | 121 | 3.5 | 6.1 | 0.00 | 0.00 | 0.00 | 73 | 1016.8 |
| 20260831040229 | 77 | 119 | 3.5 | 6.1 | 0.00 | 0.00 | 0.00 | 73 | 1016.8 |
| 20260831040200 | 77 | 120 | 4.3 | 6.1 | 0.00 | 0.00 | 0.00 | 73 | 1016.8 |
| 20260831040038 | 77 | 144 | 3.5 | 6.1 | 0.00 | 0.00 | 0.00 | 73 | 1016.8 |
| 20260831035941 | 77 | 144 | 3.5 | 6.1 | 0.00 | 0.00 | 0.00 | 73 | 1016.8 |
| 20260831035859 | 77 | 145 | 2.6 | 6.1 | 0.00 | 0.00 | 0.00 | 73 | 1016.8 |
| 20260831035737 | 77 | 148 | 4.3 | 6.1 | 0.00 | 0.00 | 0.00 | 73 | 1016.8 |
| 20260831035636 | 77 | 137 | 2.6 | 5.2 | 0.00 | 0.00 | 0.00 | 73 | 1016.8 |
| 20260831035535 | 77 | 138 | 3.5 | 5.2 | 0.00 | 0.00 | 0.00 | 73 | 1016.8 |
| 20260831035433 | 77 | 137 | 2.6 | 5.2 | 0.00 | 0.00 | 0.00 | 73 | 1016.8 |
| 20260831035332 | 77 | 140 | 2.6 | 5.2 | 0.00 | 0.00 | 0.00 | 73 | 1016.8 |
| 20260831035234 | 77 | 140 | 3.5 | 5.2 | 0.00 | 0.00 | 0.00 | 72 | 1016.8 |
| 20260831035133 | 77 | 141 | 1.7 | 5.2 | 0.00 | 0.00 | 0.00 | 72 | 1016.8 |
| 20260831035034 | 77 | 143 | 0.9 | 5.2 | 0.00 | 0.00 | 0.00 | 72 | 1016.8 |
| 20260831034932 | 77 | 141 | 2.6 | 5.2 | 0.00 | 0.00 | 0.00 | 72 | 1016.8 |
| 20260831034852 | 77 | 141 | 2.6 | 6.1 | 0.00 | 0.00 | 0.00 | 73 | 1016.8 |
| 20260831034742 | 77 | 143 | 4.3 | 6.1 | 0.00 | 0.00 | 0.00 | 73 | 1016.8 |
| 20260831034649 | 77 | 143 | 4.3 | 6.1 | 0.00 | 0.00 | 0.00 | 73 | 1016.8 |
| 20260831034527 | 77 | 137 | 4.3 | 6.1 | 0.00 | 0.00 | 0.00 | 73 | 1016.8 |
| 20260831034429 | 77 | 137 | 2.6 | 6.1 | 0.00 | 0.00 | 0.00 | 72 | 1016.8 |
| 20260831034329 | 77 | 137 | 4.3 | 6.1 | 0.00 | 0.00 | 0.00 | 72 | 1016.8 |
| 20260831034227 | 77 | 137 | 3.5 | 6.1 | 0.00 | 0.00 | 0.00 | 72 | 1017.1 |
| 20260831034125 | 77 | 131 | 3.5 | 6.1 | 0.00 | 0.00 | 0.00 | 72 | 1017.1 |
| 20260831034024 | 77 | 133 | 4.3 | 6.1 | 0.00 | 0.00 | 0.00 | 73 | 1017.1 |
| 20260831033924 | 77 | 131 | 3.5 | 6.1 | 0.00 | 0.00 | 0.00 | 72 | 1017.1 |
| 20260831033827 | 77 | 127 | 2.6 | 6.1 | 0.00 | 0.00 | 0.00 | 72 | 1017.1 |
| 20260831033725 | 77 | 130 | 4.3 | 6.1 | 0.00 | 0.00 | 0.00 | 72 | 1017.1 |
| 20260831033624 | 77 | 136 | 3.5 | 5.2 | 0.00 | 0.00 | 0.00 | 72 | 1017.1 |
| 20260831033543 | 77 | 137 | 2.6 | 5.2 | 0.00 | 0.00 | 0.00 | 72 | 1017.1 |
| 20260831033502 | 77 | 136 | 2.6 | 5.2 | 0.00 | 0.00 | 0.00 | 72 | 1017.1 |
| 20260831033400 | 77 | 137 | 3.5 | 5.2 | 0.00 | 0.00 | 0.00 | 72 | 1017.1 |
| 20260831033256 | 77 | 138 | 3.5 | 5.2 | 0.00 | 0.00 | 0.00 | 72 | 1017.1 |
| 20260831033225 | 77 | 137 | 2.6 | 5.2 | 0.00 | 0.00 | 0.00 | 72 | 1017.1 |
| 20260831033041 | 77 | 138 | 2.6 | 5.2 | 0.00 | 0.00 | 0.00 | 72 | 1017.1 |
| 20260831032944 | 77 | 140 | 3.5 | 5.2 | 0.00 | 0.00 | 0.00 | 72 | 1017.1 |
| 20260831032843 | 77 | 144 | 3.5 | 5.2 | 0.00 | 0.00 | 0.00 | 72 | 1017.1 |
| 20260831032802 | 77 | 140 | 2.6 | 5.2 | 0.00 | 0.00 | 0.00 | 72 | 1017.2 |
| 20260831032638 | 77 | 140 | 3.5 | 5.2 | 0.00 | 0.00 | 0.00 | 72 | 1017.2 |
| 20260831032538 | 77 | 143 | 3.5 | 5.2 | 0.00 | 0.00 | 0.00 | 71 | 1017.2 |
| 20260831032437 | 77 | 143 | 4.3 | 5.2 | 0.00 | 0.00 | 0.00 | 71 | 1017.2 |
| 20260831032335 | 77 | 138 | 3.5 | 5.2 | 0.00 | 0.00 | 0.00 | 71 | 1017.2 |
| 20260831032238 | 77 | 137 | 3.5 | 5.2 | 0.00 | 0.00 | 0.00 | 71 | 1017.2 |
| 20260831032136 | 77 | 137 | 3.5 | 5.2 | 0.00 | 0.00 | 0.00 | 71 | 1017.2 |
| 20260831032036 | 77 | 138 | 1.7 | 5.2 | 0.00 | 0.00 | 0.00 | 71 | 1017.2 |
| 20260831031939 | 77 | 134 | 2.6 | 5.2 | 0.00 | 0.00 | 0.00 | 71 | 1017.2 |
| 20260831031837 | 77 | 133 | 3.5 | 5.2 | 0.00 | 0.00 | 0.00 | 71 | 1017.2 |
| 20260831031735 | 77 | 128 | 3.5 | 5.2 | 0.00 | 0.00 | 0.00 | 71 | 1017.2 |
| 20260831031703 | 77 | 130 | 2.6 | 5.2 | 0.00 | 0.00 | 0.00 | 71 | 1017.2 |
| 20260831031544 | 77 | 131 | 2.6 | 5.2 | 0.00 | 0.00 | 0.00 | 71 | 1017.2 |
| 20260831031442 | 77 | 131 | 2.6 | 5.2 | 0.00 | 0.00 | 0.00 | 71 | 1017.2 |
| 20260831031340 | 77 | 131 | 3.5 | 5.2 | 0.00 | 0.00 | 0.00 | 71 | 1017.2 |
| 20260831031239 | 77 | 133 | 3.5 | 5.2 | 0.00 | 0.00 | 0.00 | 71 | 1017.3 |
| 20260831031138 | 77 | 131 | 2.6 | 5.2 | 0.00 | 0.00 | 0.00 | 71 | 1017.3 |
| 20260831031037 | 77 | 130 | 3.5 | 5.2 | 0.00 | 0.00 | 0.00 | 72 | 1017.3 |
| 20260831030935 | 77 | 130 | 2.6 | 5.2 | 0.00 | 0.00 | 0.00 | 72 | 1017.3 |
| 20260831030838 | 77 | 130 | 2.6 | 5.2 | 0.00 | 0.00 | 0.00 | 72 | 1017.3 |
| 20260831030737 | 77 | 128 | 2.6 | 5.2 | 0.00 | 0.00 | 0.00 | 72 | 1017.3 |
| 20260831030636 | 77 | 130 | 1.7 | 5.2 | 0.00 | 0.00 | 0.00 | 72 | 1017.3 |
| 20260831030534 | 77 | 130 | 2.6 | 5.2 | 0.00 | 0.00 | 0.00 | 72 | 1017.3 |
| 20260831030432 | 77 | 131 | 3.5 | 5.2 | 0.00 | 0.00 | 0.00 | 72 | 1017.3 |
| 20260831030352 | 77 | 131 | 1.7 | 5.2 | 0.00 | 0.00 | 0.00 | 72 | 1017.3 |
| 20260831030312 | 77 | 130 | 2.6 | 5.2 | 0.00 | 0.00 | 0.00 | 72 | 1017.3 |
| 20260831030220 | 77 | 124 | 3.5 | 6.1 | 0.00 | 0.00 | 0.00 | 72 | 1017.3 |
| 20260831030039 | 78 | 119 | 2.6 | 6.1 | 0.00 | 0.00 | 0.00 | 72 | 1017.3 |
| 20260831025958 | 78 | 121 | 1.7 | 6.1 | 0.00 | 0.00 | 0.00 | 72 | 1017.3 |
| 20260831025834 | 78 | 119 | 1.7 | 6.1 | 0.00 | 0.00 | 0.00 | 72 | 1017.3 |
| 20260831025733 | 78 | 120 | 3.5 | 6.1 | 0.00 | 0.00 | 0.00 | 72 | 1017.3 |
| 20260831025632 | 78 | 119 | 3.5 | 6.1 | 0.00 | 0.00 | 0.00 | 72 | 1017.3 |
| 20260831025550 | 78 | 120 | 4.3 | 6.1 | 0.00 | 0.00 | 0.00 | 72 | 1017.3 |
| 20260831025428 | 78 | 116 | 2.6 | 6.1 | 0.00 | 0.00 | 0.00 | 73 | 1017.3 |
| 20260831025332 | 78 | 120 | 4.3 | 6.1 | 0.00 | 0.00 | 0.00 | 73 | 1017.3 |
| 20260831025253 | 78 | 121 | 4.3 | 6.1 | 0.00 | 0.00 | 0.00 | 72 | 1017.3 |
| 20260831025130 | 78 | 119 | 3.5 | 5.2 | 0.00 | 0.00 | 0.00 | 72 | 1017.3 |
| 20260831025029 | 78 | 123 | 3.5 | 5.2 | 0.00 | 0.00 | 0.00 | 72 | 1017.3 |
| 20260831024928 | 78 | 121 | 3.5 | 6.1 | 0.00 | 0.00 | 0.00 | 73 | 1017.3 |
| 20260831024827 | 78 | 123 | 2.6 | 6.1 | 0.00 | 0.00 | 0.00 | 73 | 1017.3 |
| 20260831024736 | 78 | 123 | 3.5 | 6.1 | 0.00 | 0.00 | 0.00 | 73 | 1017.3 |
| 20260831024646 | 78 | 124 | 4.3 | 6.1 | 0.00 | 0.00 | 0.00 | 73 | 1017.3 |
| 20260831024528 | 78 | 119 | 3.5 | 6.1 | 0.00 | 0.00 | 0.00 | 73 | 1017.3 |
| 20260831024427 | 78 | 123 | 3.5 | 6.1 | 0.00 | 0.00 | 0.00 | 73 | 1017.3 |
| 20260831024327 | 78 | 124 | 3.5 | 6.1 | 0.00 | 0.00 | 0.00 | 73 | 1017.3 |
| 20260831024226 | 78 | 120 | 3.5 | 6.1 | 0.00 | 0.00 | 0.00 | 73 | 1017.2 |
| 20260831024126 | 78 | 127 | 4.3 | 6.1 | 0.00 | 0.00 | 0.00 | 73 | 1017.2 |
| 20260831024025 | 78 | 136 | 3.5 | 5.2 | 0.00 | 0.00 | 0.00 | 73 | 1017.2 |
| 20260831023945 | 78 | 134 | 4.3 | 5.2 | 0.00 | 0.00 | 0.00 | 73 | 1017.2 |
| 20260831023827 | 78 | 134 | 3.5 | 5.2 | 0.00 | 0.00 | 0.00 | 73 | 1017.2 |
| 20260831023726 | 78 | 136 | 2.6 | 5.2 | 0.00 | 0.00 | 0.00 | 73 | 1017.2 |
| 20260831023624 | 78 | 134 | 3.5 | 5.2 | 0.00 | 0.00 | 0.00 | 73 | 1017.2 |
| 20260831023543 | 78 | 136 | 2.6 | 5.2 | 0.00 | 0.00 | 0.00 | 73 | 1017.2 |
| 20260831023442 | 78 | 136 | 2.6 | 5.2 | 0.00 | 0.00 | 0.00 | 73 | 1017.2 |
| 20260831023342 | 78 | 136 | 3.5 | 5.2 | 0.00 | 0.00 | 0.00 | 73 | 1017.2 |
| 20260831023250 | 78 | 136 | 2.6 | 5.2 | 0.00 | 0.00 | 0.00 | 73 | 1017.2 |
| 20260831023146 | 78 | 136 | 2.6 | 5.2 | 0.00 | 0.00 | 0.00 | 73 | 1017.2 |
| 20260831023044 | 78 | 137 | 3.5 | 5.2 | 0.00 | 0.00 | 0.00 | 73 | 1017.2 |
| 20260831022941 | 78 | 137 | 2.6 | 5.2 | 0.00 | 0.00 | 0.00 | 73 | 1017.2 |
| 20260831022839 | 78 | 138 | 2.6 | 5.2 | 0.00 | 0.00 | 0.00 | 73 | 1017.2 |
| 20260831022738 | 78 | 137 | 3.5 | 5.2 | 0.00 | 0.00 | 0.00 | 73 | 1017.1 |
| 20260831022636 | 78 | 138 | 4.3 | 5.2 | 0.00 | 0.00 | 0.00 | 73 | 1017.1 |
| 20260831022556 | 78 | 138 | 3.5 | 5.2 | 0.00 | 0.00 | 0.00 | 73 | 1017.1 |
| 20260831022454 | 78 | 138 | 2.6 | 5.2 | 0.00 | 0.00 | 0.00 | 73 | 1017.1 |
| 20260831022332 | 78 | 138 | 4.3 | 5.2 | 0.00 | 0.00 | 0.00 | 73 | 1017.1 |
| 20260831022235 | 78 | 141 | 2.6 | 5.2 | 0.00 | 0.00 | 0.00 | 73 | 1017.1 |
| 20260831022134 | 78 | 143 | 1.7 | 5.2 | 0.00 | 0.00 | 0.00 | 73 | 1017.1 |
| 20260831022032 | 78 | 143 | 1.7 | 5.2 | 0.00 | 0.00 | 0.00 | 73 | 1017.1 |
| 20260831021951 | 78 | 143 | 2.6 | 5.2 | 0.00 | 0.00 | 0.00 | 73 | 1017.1 |
| 20260831021830 | 78 | 144 | 2.6 | 5.2 | 0.00 | 0.00 | 0.00 | 73 | 1017.1 |
| 20260831021728 | 78 | 151 | 2.6 | 5.2 | 0.00 | 0.00 | 0.00 | 73 | 1017.1 |
| 20260831021659 | 78 | 151 | 3.5 | 5.2 | 0.00 | 0.00 | 0.00 | 73 | 1017.1 |
| 20260831021541 | 78 | 151 | 3.5 | 5.2 | 0.00 | 0.00 | 0.00 | 73 | 1017.1 |
| 20260831021502 | 78 | 155 | 2.6 | 5.2 | 0.00 | 0.00 | 0.00 | 73 | 1017.1 |
| 20260831021339 | 78 | 155 | 3.5 | 5.2 | 0.00 | 0.00 | 0.00 | 73 | 1017.1 |
| 20260831021238 | 78 | 154 | 3.5 | 5.2 | 0.00 | 0.00 | 0.00 | 73 | 1017.1 |
| 20260831021135 | 78 | 155 | 1.7 | 4.3 | 0.00 | 0.00 | 0.00 | 73 | 1017.1 |
| 20260831021034 | 78 | 157 | 2.6 | 4.3 | 0.00 | 0.00 | 0.00 | 72 | 1017.1 |
| 20260831020953 | 78 | 157 | 2.6 | 4.3 | 0.00 | 0.00 | 0.00 | 72 | 1017.1 |
| 20260831020855 | 78 | 157 | 2.6 | 4.3 | 0.00 | 0.00 | 0.00 | 73 | 1017.1 |
| 20260831020736 | 78 | 154 | 2.6 | 4.3 | 0.00 | 0.00 | 0.00 | 73 | 1017.1 |
| 20260831020658 | 78 | 155 | 1.7 | 5.2 | 0.00 | 0.00 | 0.00 | 73 | 1017.1 |
| 20260831020537 | 78 | 157 | 2.6 | 5.2 | 0.00 | 0.00 | 0.00 | 73 | 1017.1 |
| 20260831020436 | 78 | 157 | 2.6 | 5.2 | 0.00 | 0.00 | 0.00 | 73 | 1017.1 |
| 20260831020334 | 78 | 158 | 2.6 | 5.2 | 0.00 | 0.00 | 0.00 | 73 | 1017.1 |
| 20260831020232 | 78 | 157 | 2.6 | 5.2 | 0.00 | 0.00 | 0.00 | 73 | 1017.1 |
| 20260831020202 | 78 | 157 | 1.7 | 5.2 | 0.00 | 0.00 | 0.00 | 73 | 1017.1 |
| 20260831020039 | 78 | 157 | 0.9 | 5.2 | 0.00 | 0.00 | 0.00 | 73 | 1017.1 |
| 20260831015939 | 78 | 158 | 2.6 | 5.2 | 0.00 | 0.00 | 0.00 | 72 | 1017.1 |
| 20260831015842 | 78 | 158 | 3.5 | 5.2 | 0.00 | 0.00 | 0.00 | 73 | 1017.1 |
| 20260831015741 | 78 | 171 | 2.6 | 5.2 | 0.00 | 0.00 | 0.00 | 73 | 1016.9 |
| 20260831015641 | 78 | 171 | 1.7 | 5.2 | 0.00 | 0.00 | 0.00 | 73 | 1016.9 |
| 20260831015541 | 78 | 171 | 2.6 | 5.2 | 0.00 | 0.00 | 0.00 | 73 | 1016.9 |
| 20260831015440 | 78 | 171 | 2.6 | 5.2 | 0.00 | 0.00 | 0.00 | 73 | 1016.9 |
| 20260831015400 | 78 | 171 | 2.6 | 5.2 | 0.00 | 0.00 | 0.00 | 73 | 1016.9 |
| 20260831015257 | 78 | 171 | 3.5 | 5.2 | 0.00 | 0.00 | 0.00 | 73 | 1016.9 |
| 20260831015140 | 78 | 172 | 3.5 | 5.2 | 0.00 | 0.00 | 0.00 | 73 | 1016.9 |
| 20260831015039 | 78 | 174 | 3.5 | 4.3 | 0.00 | 0.00 | 0.00 | 73 | 1016.9 |
| 20260831014939 | 78 | 175 | 1.7 | 4.3 | 0.00 | 0.00 | 0.00 | 73 | 1016.9 |
| 20260831014836 | 78 | 175 | 1.7 | 4.3 | 0.00 | 0.00 | 0.00 | 73 | 1016.9 |
| 20260831014755 | 78 | 176 | 3.5 | 4.3 | 0.00 | 0.00 | 0.00 | 73 | 1016.9 |
| 20260831014704 | 78 | 179 | 3.5 | 4.3 | 0.00 | 0.00 | 0.00 | 73 | 1016.9 |
| 20260831014541 | 78 | 184 | 1.7 | 4.3 | 0.00 | 0.00 | 0.00 | 72 | 1016.9 |
| 20260831014441 | 78 | 182 | 1.7 | 4.3 | 0.00 | 0.00 | 0.00 | 72 | 1016.9 |
| 20260831014343 | 78 | 184 | 2.6 | 4.3 | 0.00 | 0.00 | 0.00 | 72 | 1016.9 |
| 20260831014242 | 78 | 184 | 2.6 | 4.3 | 0.00 | 0.00 | 0.00 | 72 | 1016.7 |
| 20260831014200 | 78 | 182 | 2.6 | 4.3 | 0.00 | 0.00 | 0.00 | 72 | 1016.7 |
| 20260831014038 | 78 | 186 | 1.7 | 3.5 | 0.00 | 0.00 | 0.00 | 72 | 1016.7 |
| 20260831013934 | 78 | 185 | 1.7 | 3.5 | 0.00 | 0.00 | 0.00 | 72 | 1016.7 |
| 20260831013832 | 78 | 186 | 1.7 | 3.5 | 0.00 | 0.00 | 0.00 | 72 | 1016.7 |
| 20260831013730 | 78 | 186 | 1.7 | 3.5 | 0.00 | 0.00 | 0.00 | 72 | 1016.7 |
| 20260831013629 | 78 | 186 | 1.7 | 3.5 | 0.00 | 0.00 | 0.00 | 72 | 1016.7 |
| 20260831013531 | 78 | 184 | 1.7 | 3.5 | 0.00 | 0.00 | 0.00 | 72 | 1016.7 |
| 20260831013429 | 78 | 185 | 1.7 | 3.5 | 0.00 | 0.00 | 0.00 | 72 | 1016.7 |
| 20260831013328 | 78 | 186 | 1.7 | 2.6 | 0.00 | 0.00 | 0.00 | 72 | 1016.7 |
| 20260831013237 | 78 | 186 | 2.6 | 2.6 | 0.00 | 0.00 | 0.00 | 72 | 1016.7 |
| 20260831013146 | 78 | 186 | 2.6 | 2.6 | 0.00 | 0.00 | 0.00 | 72 | 1016.7 |
| 20260831013043 | 78 | 186 | 2.6 | 2.6 | 0.00 | 0.00 | 0.00 | 72 | 1016.7 |
| 20260831012941 | 78 | 185 | 2.6 | 2.6 | 0.00 | 0.00 | 0.00 | 72 | 1016.7 |
| 20260831012839 | 78 | 186 | 1.7 | 3.5 | 0.00 | 0.00 | 0.00 | 72 | 1016.7 |
| 20260831012741 | 78 | 188 | 0.9 | 3.5 | 0.00 | 0.00 | 0.00 | 72 | 1016.4 |
| 20260831012700 | 78 | 186 | 0.9 | 3.5 | 0.00 | 0.00 | 0.00 | 72 | 1016.4 |
| 20260831012557 | 78 | 188 | 0.9 | 3.5 | 0.00 | 0.00 | 0.00 | 72 | 1016.4 |
| 20260831012434 | 78 | 181 | 1.7 | 3.5 | 0.00 | 0.00 | 0.00 | 72 | 1016.4 |
| 20260831012333 | 78 | 186 | 1.7 | 3.5 | 0.00 | 0.00 | 0.00 | 72 | 1016.4 |
| 20260831012232 | 78 | 186 | 1.7 | 4.3 | 0.00 | 0.00 | 0.00 | 72 | 1016.4 |
| 20260831012130 | 78 | 186 | 1.7 | 4.3 | 0.00 | 0.00 | 0.00 | 72 | 1016.4 |
| 20260831012028 | 78 | 186 | 2.6 | 4.3 | 0.00 | 0.00 | 0.00 | 72 | 1016.4 |
| 20260831011932 | 79 | 186 | 1.7 | 4.3 | 0.00 | 0.00 | 0.00 | 72 | 1016.4 |
| 20260831011855 | 79 | 186 | 1.7 | 4.3 | 0.00 | 0.00 | 0.00 | 72 | 1016.4 |
| 20260831011734 | 79 | 185 | 1.7 | 4.3 | 0.00 | 0.00 | 0.00 | 72 | 1016.4 |
| 20260831011702 | 79 | 186 | 1.7 | 4.3 | 0.00 | 0.00 | 0.00 | 72 | 1016.4 |
| 20260831011541 | 79 | 182 | 1.7 | 4.3 | 0.00 | 0.00 | 0.00 | 72 | 1016.4 |
| 20260831011439 | 79 | 186 | 2.6 | 4.3 | 0.00 | 0.00 | 0.00 | 72 | 1016.4 |
| 20260831011338 | 79 | 188 | 2.6 | 4.3 | 0.00 | 0.00 | 0.00 | 72 | 1016.4 |
| 20260831011240 | 79 | 186 | 1.7 | 4.3 | 0.00 | 0.00 | 0.00 | 72 | 1016.4 |
| 20260831011139 | 79 | 184 | 2.6 | 4.3 | 0.00 | 0.00 | 0.00 | 71 | 1016.4 |
| 20260831011038 | 79 | 192 | 2.6 | 3.5 | 0.00 | 0.00 | 0.00 | 71 | 1016.4 |
| 20260831010936 | 79 | 193 | 1.7 | 3.5 | 0.00 | 0.00 | 0.00 | 71 | 1016.4 |
| 20260831010835 | 79 | 193 | 2.6 | 3.5 | 0.00 | 0.00 | 0.00 | 71 | 1016.4 |
| 20260831010733 | 79 | 193 | 2.6 | 3.5 | 0.00 | 0.00 | 0.00 | 71 | 1016.4 |
| 20260831010633 | 79 | 195 | 2.6 | 3.5 | 0.00 | 0.00 | 0.00 | 71 | 1016.4 |
| 20260831010536 | 79 | 193 | 1.7 | 2.6 | 0.00 | 0.00 | 0.00 | 71 | 1016.4 |
| 20260831010434 | 79 | 193 | 1.7 | 2.6 | 0.00 | 0.00 | 0.00 | 71 | 1016.4 |
| 20260831010332 | 79 | 195 | 2.6 | 2.6 | 0.00 | 0.00 | 0.00 | 71 | 1016.4 |
| 20260831010243 | 79 | 195 | 1.7 | 2.6 | 0.00 | 0.00 | 0.00 | 71 | 1016.4 |
| 20260831010153 | 79 | 196 | 1.7 | 2.6 | 0.00 | 0.00 | 0.00 | 71 | 1016.4 |
| 20260831010031 | 79 | 195 | 1.7 | 2.6 | 0.00 | 0.00 | 0.00 | 71 | 1016.4 |
| 20260831005950 | 79 | 195 | 2.6 | 2.6 | 0.00 | 0.00 | 0.00 | 70 | 1016.4 |
| 20260831005827 | 79 | 195 | 1.7 | 2.6 | 0.00 | 0.00 | 0.00 | 70 | 1016.4 |
| 20260831005749 | 79 | 193 | 1.7 | 2.6 | 0.00 | 0.00 | 0.00 | 70 | 1016.2 |
| 20260831005628 | 79 | 195 | 1.7 | 2.6 | 0.00 | 0.00 | 0.00 | 70 | 1016.2 |
| 20260831005527 | 79 | 196 | 1.7 | 2.6 | 0.00 | 0.00 | 0.00 | 70 | 1016.2 |
| 20260831005428 | 79 | 195 | 1.7 | 2.6 | 0.00 | 0.00 | 0.00 | 70 | 1016.2 |
| 20260831005329 | 79 | 195 | 1.7 | 2.6 | 0.00 | 0.00 | 0.00 | 70 | 1016.2 |
| 20260831005231 | 79 | 193 | 1.7 | 2.6 | 0.00 | 0.00 | 0.00 | 70 | 1016.2 |
| 20260831005129 | 79 | 191 | 1.7 | 2.6 | 0.00 | 0.00 | 0.00 | 70 | 1016.2 |
| 20260831005031 | 79 | 195 | 1.7 | 2.6 | 0.00 | 0.00 | 0.00 | 70 | 1016.2 |
| 20260831004931 | 79 | 193 | 1.7 | 2.6 | 0.00 | 0.00 | 0.00 | 69 | 1016.2 |
| 20260831004829 | 79 | 195 | 1.7 | 2.6 | 0.00 | 0.00 | 0.00 | 69 | 1016.2 |
| 20260831004740 | 79 | 195 | 1.7 | 2.6 | 0.00 | 0.00 | 0.00 | 69 | 1016.2 |
| 20260831004649 | 79 | 195 | 1.7 | 2.6 | 0.00 | 0.00 | 0.00 | 69 | 1016.2 |
| 20260831004526 | 80 | 195 | 1.7 | 2.6 | 0.00 | 0.00 | 0.00 | 69 | 1016.2 |
| 20260831004424 | 80 | 195 | 1.7 | 2.6 | 0.00 | 0.00 | 0.00 | 69 | 1016.2 |
| 20260831004327 | 80 | 195 | 1.7 | 2.6 | 0.00 | 0.00 | 0.00 | 69 | 1016.2 |
| 20260831004228 | 80 | 195 | 1.7 | 2.6 | 0.00 | 0.00 | 0.00 | 69 | 1016.1 |
| 20260831004127 | 80 | 196 | 1.7 | 2.6 | 0.00 | 0.00 | 0.00 | 69 | 1016.1 |
| 20260831004025 | 80 | 195 | 1.7 | 2.6 | 0.00 | 0.00 | 0.00 | 69 | 1016.1 |
| 20260831003924 | 80 | 195 | 1.7 | 2.6 | 0.00 | 0.00 | 0.00 | 69 | 1016.1 |
| 20260831003821 | 80 | 192 | 0.9 | 2.6 | 0.00 | 0.00 | 0.00 | 69 | 1016.1 |
| 20260831003724 | 80 | 195 | 1.7 | 2.6 | 0.00 | 0.00 | 0.00 | 69 | 1016.1 |
| 20260831003631 | 80 | 193 | 0.9 | 2.6 | 0.00 | 0.00 | 0.00 | 69 | 1016.1 |
| 20260831003530 | 80 | 195 | 0.9 | 2.6 | 0.00 | 0.00 | 0.00 | 69 | 1016.1 |
| 20260831003429 | 80 | 195 | 1.7 | 2.6 | 0.00 | 0.00 | 0.00 | 69 | 1016.1 |
| 20260831003329 | 80 | 195 | 1.7 | 2.6 | 0.00 | 0.00 | 0.00 | 69 | 1016.1 |
| 20260831003247 | 80 | 195 | 2.6 | 2.6 | 0.00 | 0.00 | 0.00 | 68 | 1016.1 |
| 20260831003157 | 80 | 195 | 1.7 | 2.6 | 0.00 | 0.00 | 0.00 | 68 | 1016.1 |
| 20260831003034 | 80 | 195 | 0.9 | 2.6 | 0.00 | 0.00 | 0.00 | 69 | 1016.1 |
| 20260831002938 | 80 | 195 | 0.9 | 2.6 | 0.00 | 0.00 | 0.00 | 69 | 1016.1 |
| 20260831002836 | 80 | 195 | 0.9 | 2.6 | 0.00 | 0.00 | 0.00 | 69 | 1016.1 |
| 20260831002734 | 80 | 189 | 0.0 | 2.6 | 0.00 | 0.00 | 0.00 | 69 | 1016.2 |
| 20260831002632 | 80 | 193 | 0.0 | 1.7 | 0.00 | 0.00 | 0.00 | 68 | 1016.2 |
| 20260831002533 | 80 | 195 | 0.0 | 1.7 | 0.00 | 0.00 | 0.00 | 68 | 1016.2 |
| 20260831002433 | 80 | 195 | 0.0 | 1.7 | 0.00 | 0.00 | 0.00 | 69 | 1016.2 |
| 20260831002352 | 80 | 195 | 0.0 | 1.7 | 0.00 | 0.00 | 0.00 | 69 | 1016.2 |
| 20260831002228 | 80 | 193 | 0.0 | 1.7 | 0.00 | 0.00 | 0.00 | 69 | 1016.2 |
| 20260831002132 | 80 | 192 | 0.0 | 1.7 | 0.00 | 0.00 | 0.00 | 69 | 1016.2 |
| 20260831002031 | 80 | 195 | 0.9 | 1.7 | 0.00 | 0.00 | 0.00 | 69 | 1016.2 |
| 20260831001953 | 80 | 195 | 0.9 | 1.7 | 0.00 | 0.00 | 0.00 | 68 | 1016.2 |
| 20260831001830 | 80 | 196 | 0.0 | 1.7 | 0.00 | 0.00 | 0.00 | 68 | 1016.2 |
| 20260831001730 | 80 | 195 | 0.9 | 2.6 | 0.00 | 0.00 | 0.00 | 68 | 1016.2 |
| 20260831001700 | 80 | 195 | 0.9 | 2.6 | 0.00 | 0.00 | 0.00 | 68 | 1016.2 |
| 20260831001537 | 80 | 193 | 0.9 | 2.6 | 0.00 | 0.00 | 0.00 | 68 | 1016.2 |
| 20260831001441 | 80 | 195 | 0.0 | 2.6 | 0.00 | 0.00 | 0.00 | 68 | 1016.2 |
| 20260831001339 | 80 | 192 | 0.0 | 2.6 | 0.00 | 0.00 | 0.00 | 68 | 1016.2 |
| 20260831001238 | 80 | 195 | 0.0 | 2.6 | 0.00 | 0.00 | 0.00 | 68 | 1016.3 |
| 20260831001136 | 80 | 196 | 0.9 | 2.6 | 0.00 | 0.00 | 0.00 | 68 | 1016.3 |
| 20260831001035 | 80 | 195 | 0.9 | 2.6 | 0.00 | 0.00 | 0.00 | 68 | 1016.3 |
| 20260831000934 | 80 | 195 | 0.9 | 2.6 | 0.00 | 0.00 | 0.00 | 68 | 1016.3 |
| 20260831000833 | 81 | 189 | 0.9 | 2.6 | 0.00 | 0.00 | 0.00 | 68 | 1016.3 |
| 20260831000736 | 81 | 195 | 0.9 | 2.6 | 0.00 | 0.00 | 0.00 | 68 | 1016.3 |
| 20260831000636 | 81 | 196 | 0.9 | 1.7 | 0.00 | 0.00 | 0.00 | 68 | 1016.3 |
| 20260831000534 | 81 | 193 | 0.0 | 1.7 | 0.00 | 0.00 | 0.00 | 68 | 1016.3 |
| 20260831000432 | 81 | 196 | 0.0 | 1.7 | 0.00 | 0.00 | 0.00 | 68 | 1016.3 |
| 20260831000332 | 81 | 195 | 0.0 | 1.7 | 0.00 | 0.00 | 0.00 | 68 | 1016.3 |
| 20260831000241 | 81 | 195 | 0.0 | 2.6 | 0.00 | 0.00 | 0.00 | 67 | 1016.3 |
| 20260831000150 | 81 | 193 | 0.0 | 2.6 | 0.00 | 0.00 | 0.00 | 67 | 1016.3 |
| 20260831000029 | 81 | 189 | 0.9 | 2.6 | 0.00 | 0.00 | 0.00 | 67 | 1016.3 |
| 20260830235951 | 81 | 195 | 0.0 | 2.6 | 0.00 | 0.00 | 0.00 | 67 | 1016.3 |
| 20260830235828 | 81 | 195 | 0.0 | 2.6 | 0.00 | 0.00 | 0.00 | 67 | 1016.3 |
| 20260830235748 | 81 | 195 | 0.0 | 2.6 | 0.00 | 0.00 | 0.00 | 67 | 1016.3 |
| 20260830235646 | 81 | 193 | 0.0 | 2.6 | 0.00 | 0.00 | 0.00 | 67 | 1016.3 |
| 20260830235544 | 81 | 195 | 0.9 | 2.6 | 0.00 | 0.00 | 0.00 | 67 | 1016.3 |
| 20260830235442 | 81 | 195 | 0.9 | 2.6 | 0.00 | 0.00 | 0.00 | 66 | 1016.3 |
| 20260830235342 | 81 | 195 | 0.9 | 2.6 | 0.00 | 0.00 | 0.00 | 66 | 1016.3 |
| 20260830235237 | 81 | 195 | 0.9 | 2.6 | 0.00 | 0.00 | 0.00 | 66 | 1016.3 |
| 20260830235138 | 81 | 195 | 0.9 | 2.6 | 0.00 | 0.00 | 0.00 | 66 | 1016.3 |
| 20260830235037 | 81 | 196 | 0.9 | 2.6 | 0.00 | 0.00 | 0.00 | 66 | 1016.3 |
| 20260830234934 | 81 | 193 | 1.7 | 2.6 | 0.00 | 0.00 | 0.00 | 66 | 1016.3 |
| 20260830234834 | 81 | 195 | 1.7 | 2.6 | 0.00 | 0.00 | 0.00 | 66 | 1016.3 |
| 20260830234734 | 81 | 195 | 0.0 | 2.6 | 0.00 | 0.00 | 0.00 | 66 | 1016.3 |
| 20260830234703 | 81 | 195 | 0.9 | 2.6 | 0.00 | 0.00 | 0.00 | 66 | 1016.3 |
| 20260830234601 | 81 | 193 | 0.9 | 2.6 | 0.00 | 0.00 | 0.00 | 66 | 1016.3 |
| 20260830234443 | 81 | 195 | 1.7 | 2.6 | 0.00 | 0.00 | 0.00 | 66 | 1016.3 |
| 20260830234343 | 81 | 192 | 1.7 | 2.6 | 0.00 | 0.00 | 0.00 | 66 | 1016.3 |
| 20260830234242 | 81 | 195 | 0.9 | 2.6 | 0.00 | 0.00 | 0.00 | 66 | 1016.5 |
| 20260830234141 | 81 | 196 | 0.9 | 1.7 | 0.00 | 0.00 | 0.00 | 65 | 1016.5 |
| 20260830234040 | 81 | 193 | 1.7 | 1.7 | 0.00 | 0.00 | 0.00 | 65 | 1016.5 |
| 20260830233937 | 81 | 193 | 1.7 | 2.6 | 0.00 | 0.00 | 0.00 | 65 | 1016.5 |
| 20260830233834 | 81 | 195 | 0.9 | 2.6 | 0.00 | 0.00 | 0.00 | 65 | 1016.5 |
| 20260830233739 | 81 | 195 | 0.9 | 2.6 | 0.00 | 0.00 | 0.00 | 65 | 1016.5 |
| 20260830233639 | 81 | 195 | 0.9 | 2.6 | 0.00 | 0.00 | 0.00 | 65 | 1016.5 |
| 20260830233537 | 81 | 195 | 0.9 | 2.6 | 0.00 | 0.00 | 0.00 | 65 | 1016.5 |
| 20260830233456 | 82 | 196 | 0.9 | 2.6 | 0.00 | 0.00 | 0.00 | 65 | 1016.5 |
| 20260830233416 | 82 | 195 | 0.9 | 2.6 | 0.00 | 0.00 | 0.00 | 65 | 1016.5 |
| 20260830233315 | 82 | 195 | 0.0 | 2.6 | 0.00 | 0.00 | 0.00 | 65 | 1016.5 |
| 20260830233224 | 82 | 196 | 0.9 | 5.2 | 0.00 | 0.00 | 0.00 | 65 | 1016.5 |
| 20260830233039 | 82 | 195 | 0.9 | 5.2 | 0.00 | 0.00 | 0.00 | 65 | 1016.5 |
| 20260830232938 | 82 | 195 | 0.9 | 5.2 | 0.00 | 0.00 | 0.00 | 65 | 1016.5 |
| 20260830232841 | 82 | 195 | 0.9 | 5.2 | 0.00 | 0.00 | 0.00 | 65 | 1016.5 |
| 20260830232739 | 82 | 195 | 0.0 | 5.2 | 0.00 | 0.00 | 0.00 | 65 | 1016.4 |
| 20260830232637 | 82 | 193 | 0.9 | 5.2 | 0.00 | 0.00 | 0.00 | 64 | 1016.4 |
| 20260830232537 | 82 | 195 | 0.9 | 5.2 | 0.00 | 0.00 | 0.00 | 64 | 1016.4 |
| 20260830232434 | 82 | 195 | 0.9 | 5.2 | 0.00 | 0.00 | 0.00 | 64 | 1016.4 |
| 20260830232332 | 82 | 189 | 2.6 | 5.2 | 0.00 | 0.00 | 0.00 | 64 | 1016.4 |
| 20260830232235 | 82 | 200 | 1.7 | 4.3 | 0.00 | 0.00 | 0.00 | 64 | 1016.4 |
| 20260830232153 | 82 | 199 | 0.9 | 4.3 | 0.00 | 0.00 | 0.00 | 64 | 1016.4 |
| 20260830232030 | 82 | 199 | 0.9 | 4.3 | 0.00 | 0.00 | 0.00 | 64 | 1016.4 |
| 20260830231929 | 82 | 199 | 0.0 | 4.3 | 0.00 | 0.00 | 0.00 | 65 | 1016.4 |
| 20260830231829 | 82 | 199 | 1.7 | 4.3 | 0.00 | 0.00 | 0.00 | 65 | 1016.4 |
| 20260830231727 | 82 | 200 | 0.9 | 4.3 | 0.00 | 0.00 | 0.00 | 64 | 1016.4 |
| 20260830231656 | 82 | 199 | 2.6 | 4.3 | 0.00 | 0.00 | 0.00 | 64 | 1016.4 |
| 20260830231535 | 82 | 203 | 1.7 | 4.3 | 0.00 | 0.00 | 0.00 | 64 | 1016.4 |
| 20260830231437 | 82 | 208 | 1.7 | 2.6 | 0.00 | 0.00 | 0.00 | 64 | 1016.4 |
| 20260830231339 | 82 | 208 | 1.7 | 2.6 | 0.00 | 0.00 | 0.00 | 64 | 1016.4 |
| 20260830231236 | 82 | 212 | 0.9 | 1.7 | 0.00 | 0.00 | 0.00 | 64 | 1016.2 |
| 20260830231136 | 82 | 212 | 0.0 | 2.6 | 0.00 | 0.00 | 0.00 | 64 | 1016.2 |
| 20260830231035 | 82 | 212 | 0.0 | 2.6 | 0.00 | 0.00 | 0.00 | 63 | 1016.2 |
| 20260830230934 | 82 | 210 | 0.0 | 2.6 | 0.00 | 0.00 | 0.00 | 63 | 1016.2 |
| 20260830230853 | 82 | 212 | 0.0 | 2.6 | 0.00 | 0.00 | 0.00 | 63 | 1016.2 |
| 20260830230730 | 82 | 212 | 0.0 | 2.6 | 0.00 | 0.00 | 0.00 | 63 | 1016.2 |
| 20260830230633 | 82 | 212 | 0.9 | 2.6 | 0.00 | 0.00 | 0.00 | 63 | 1016.2 |
| 20260830230532 | 83 | 212 | 0.0 | 2.6 | 0.00 | 0.00 | 0.00 | 63 | 1016.2 |
| 20260830230453 | 83 | 210 | 0.0 | 2.6 | 0.00 | 0.00 | 0.00 | 63 | 1016.2 |
| 20260830230350 | 83 | 212 | 0.9 | 2.6 | 0.00 | 0.00 | 0.00 | 63 | 1016.2 |
| 20260830230229 | 83 | 213 | 1.7 | 2.6 | 0.00 | 0.00 | 0.00 | 63 | 1016.2 |
| 20260830230201 | 83 | 216 | 0.9 | 2.6 | 0.00 | 0.00 | 0.00 | 64 | 1016.2 |
| 20260830230058 | 83 | 217 | 0.9 | 2.6 | 0.00 | 0.00 | 0.00 | 63 | 1016.2 |
| 20260830225937 | 83 | 213 | 1.7 | 2.6 | 0.00 | 0.00 | 0.00 | 64 | 1016.2 |
| 20260830225840 | 83 | 217 | 0.9 | 2.6 | 0.00 | 0.00 | 0.00 | 64 | 1016.2 |
| 20260830225740 | 83 | 213 | 0.0 | 2.6 | 0.00 | 0.00 | 0.00 | 64 | 1016.1 |
| 20260830225639 | 83 | 219 | 0.9 | 2.6 | 0.00 | 0.00 | 0.00 | 64 | 1016.1 |
| 20260830225538 | 83 | 217 | 0.9 | 2.6 | 0.00 | 0.00 | 0.00 | 64 | 1016.1 |
| 20260830225436 | 83 | 215 | 0.0 | 4.3 | 0.00 | 0.00 | 0.00 | 64 | 1016.1 |
| 20260830225335 | 83 | 217 | 0.0 | 4.3 | 0.00 | 0.00 | 0.00 | 64 | 1016.1 |
| 20260830225234 | 83 | 219 | 0.0 | 4.3 | 0.00 | 0.00 | 0.00 | 64 | 1016.1 |
| 20260830225137 | 83 | 219 | 0.9 | 4.3 | 0.00 | 0.00 | 0.00 | 64 | 1016.1 |
| 20260830225037 | 83 | 217 | 0.9 | 4.3 | 0.00 | 0.00 | 0.00 | 63 | 1016.1 |
| 20260830224955 | 83 | 219 | 0.9 | 4.3 | 0.00 | 0.00 | 0.00 | 63 | 1016.1 |
| 20260830224852 | 83 | 219 | 0.9 | 5.2 | 0.00 | 0.00 | 0.00 | 63 | 1016.1 |
| 20260830224750 | 83 | 220 | 0.0 | 7.0 | 0.00 | 0.00 | 0.00 | 62 | 1016.1 |
| 20260830224720 | 83 | 219 | 0.9 | 7.0 | 0.00 | 0.00 | 0.00 | 62 | 1016.1 |
| 20260830224537 | 83 | 213 | 1.7 | 7.0 | 0.00 | 0.00 | 0.00 | 62 | 1016.1 |
| 20260830224435 | 83 | 205 | 1.7 | 7.0 | 0.00 | 0.00 | 0.00 | 62 | 1016.1 |
| 20260830224337 | 83 | 202 | 0.9 | 7.0 | 0.00 | 0.00 | 0.00 | 63 | 1016.1 |
| 20260830224235 | 83 | 203 | 0.9 | 7.0 | 0.00 | 0.00 | 0.00 | 63 | 1016.0 |
| 20260830224134 | 83 | 202 | 3.5 | 7.0 | 0.00 | 0.00 | 0.00 | 62 | 1016.0 |
| 20260830224054 | 83 | 202 | 3.5 | 7.0 | 0.00 | 0.00 | 0.00 | 62 | 1016.0 |
| 20260830223931 | 83 | 199 | 5.2 | 7.0 | 0.00 | 0.00 | 0.00 | 63 | 1016.0 |
| 20260830223850 | 83 | 202 | 3.5 | 6.1 | 0.00 | 0.00 | 0.00 | 64 | 1016.0 |
| 20260830223728 | 83 | 193 | 1.7 | 6.1 | 0.00 | 0.00 | 0.00 | 63 | 1016.0 |
| 20260830223626 | 83 | 193 | 4.3 | 6.1 | 0.00 | 0.00 | 0.00 | 64 | 1016.0 |
| 20260830223529 | 83 | 191 | 1.7 | 6.1 | 0.00 | 0.00 | 0.00 | 64 | 1016.0 |
| 20260830223429 | 83 | 185 | 2.6 | 6.1 | 0.00 | 0.00 | 0.00 | 62 | 1016.0 |
| 20260830223327 | 83 | 165 | 0.0 | 5.2 | 0.00 | 0.00 | 0.00 | 63 | 1016.0 |
| 20260830223246 | 83 | 167 | 0.9 | 5.2 | 0.00 | 0.00 | 0.00 | 62 | 1016.0 |
| 20260830223217 | 83 | 164 | 0.9 | 5.2 | 0.00 | 0.00 | 0.00 | 62 | 1016.0 |
| 20260830223033 | 83 | 161 | 0.9 | 5.2 | 0.00 | 0.00 | 0.00 | 62 | 1016.0 |
| 20260830222931 | 83 | 162 | 1.7 | 5.2 | 0.00 | 0.00 | 0.00 | 62 | 1016.0 |
| 20260830222835 | 83 | 157 | 1.7 | 5.2 | 0.00 | 0.00 | 0.00 | 62 | 1016.0 |
| 20260830222734 | 83 | 158 | 2.6 | 5.2 | 0.00 | 0.00 | 0.00 | 62 | 1016.2 |
| 20260830222654 | 83 | 162 | 2.6 | 5.2 | 0.00 | 0.00 | 0.00 | 62 | 1016.2 |
| 20260830222531 | 83 | 168 | 3.5 | 5.2 | 0.00 | 0.00 | 0.00 | 63 | 1016.2 |
| 20260830222429 | 83 | 172 | 1.7 | 5.2 | 0.00 | 0.00 | 0.00 | 63 | 1016.2 |
| 20260830222330 | 83 | 171 | 3.5 | 5.2 | 0.00 | 0.00 | 0.00 | 63 | 1016.2 |
| 20260830222228 | 83 | 176 | 2.6 | 5.2 | 0.00 | 0.00 | 0.00 | 63 | 1016.2 |
| 20260830222133 | 83 | 182 | 2.6 | 5.2 | 0.00 | 0.00 | 0.00 | 63 | 1016.2 |
| 20260830222053 | 83 | 184 | 1.7 | 5.2 | 0.00 | 0.00 | 0.00 | 63 | 1016.2 |
| 20260830221930 | 83 | 189 | 0.9 | 5.2 | 0.00 | 0.00 | 0.00 | 62 | 1016.2 |
| 20260830221828 | 83 | 188 | 0.0 | 5.2 | 0.00 | 0.00 | 0.00 | 63 | 1016.2 |
| 20260830221747 | 83 | 191 | 2.6 | 5.2 | 0.00 | 0.00 | 0.00 | 62 | 1016.2 |
| 20260830221657 | 83 | 192 | 2.6 | 5.2 | 0.00 | 0.00 | 0.00 | 62 | 1016.2 |
| 20260830221534 | 83 | 179 | 0.9 | 5.2 | 0.00 | 0.00 | 0.00 | 62 | 1016.2 |
| 20260830221433 | 83 | 182 | 2.6 | 5.2 | 0.00 | 0.00 | 0.00 | 62 | 1016.2 |
| 20260830221336 | 83 | 178 | 2.6 | 3.5 | 0.00 | 0.00 | 0.00 | 62 | 1016.2 |
| 20260830221235 | 83 | 182 | 1.7 | 5.2 | 0.00 | 0.00 | 0.00 | 62 | 1016.2 |
| 20260830221137 | 83 | 182 | 0.0 | 5.2 | 0.00 | 0.00 | 0.00 | 62 | 1016.2 |
| 20260830221035 | 83 | 182 | 0.9 | 5.2 | 0.00 | 0.00 | 0.00 | 62 | 1016.2 |
| 20260830220954 | 83 | 164 | 0.9 | 5.2 | 0.00 | 0.00 | 0.00 | 61 | 1016.2 |
| 20260830220831 | 83 | 154 | 0.0 | 5.2 | 0.00 | 0.00 | 0.00 | 61 | 1016.2 |
| 20260830220729 | 83 | 154 | 0.9 | 5.2 | 0.00 | 0.00 | 0.00 | 60 | 1016.2 |
| 20260830220650 | 83 | 151 | 0.0 | 6.1 | 0.00 | 0.00 | 0.00 | 61 | 1016.2 |
| 20260830220531 | 83 | 151 | 0.9 | 7.8 | 0.00 | 0.00 | 0.00 | 61 | 1016.2 |
| 20260830220430 | 83 | 154 | 1.7 | 7.8 | 0.00 | 0.00 | 0.00 | 62 | 1016.2 |
| 20260830220329 | 83 | 152 | 2.6 | 7.8 | 0.00 | 0.00 | 0.00 | 62 | 1016.2 |
| 20260830220229 | 83 | 150 | 3.5 | 7.8 | 0.00 | 0.00 | 0.00 | 62 | 1016.2 |
| 20260830220200 | 83 | 144 | 3.5 | 7.8 | 0.00 | 0.00 | 0.00 | 62 | 1016.2 |
| 20260830220055 | 83 | 196 | 0.9 | 7.8 | 0.00 | 0.00 | 0.00 | 62 | 1016.2 |
| 20260830215937 | 83 | 196 | 0.9 | 7.8 | 0.00 | 0.00 | 0.00 | 62 | 1016.2 |
| 20260830215838 | 83 | 193 | 4.3 | 7.8 | 0.00 | 0.00 | 0.00 | 62 | 1016.2 |
| 20260830215740 | 83 | 213 | 5.2 | 7.8 | 0.00 | 0.00 | 0.00 | 62 | 1016.3 |
| 20260830215639 | 83 | 210 | 4.3 | 7.8 | 0.00 | 0.00 | 0.00 | 61 | 1016.3 |
| 20260830215538 | 83 | 147 | 0.9 | 6.1 | 0.00 | 0.00 | 0.00 | 61 | 1016.3 |
| 20260830215437 | 83 | 144 | 0.9 | 6.1 | 0.00 | 0.00 | 0.00 | 61 | 1016.3 |
| 20260830215336 | 83 | 145 | 1.7 | 6.1 | 0.00 | 0.00 | 0.00 | 62 | 1016.3 |
| 20260830215254 | 83 | 143 | 2.6 | 6.1 | 0.00 | 0.00 | 0.00 | 62 | 1016.3 |
| 20260830215152 | 83 | 143 | 1.7 | 6.1 | 0.00 | 0.00 | 0.00 | 62 | 1016.3 |
| 20260830215050 | 83 | 141 | 1.7 | 6.1 | 0.00 | 0.00 | 0.00 | 62 | 1016.3 |
| 20260830214947 | 83 | 127 | 4.3 | 6.1 | 0.00 | 0.00 | 0.00 | 62 | 1016.3 |
| 20260830214828 | 83 | 152 | 2.6 | 5.2 | 0.00 | 0.00 | 0.00 | 61 | 1016.3 |
| 20260830214727 | 83 | 158 | 1.7 | 5.2 | 0.00 | 0.00 | 0.00 | 61 | 1016.3 |
| 20260830214657 | 83 | 151 | 1.7 | 5.2 | 0.00 | 0.00 | 0.00 | 61 | 1016.3 |
| 20260830214536 | 83 | 148 | 3.5 | 5.2 | 0.00 | 0.00 | 0.00 | 61 | 1016.3 |
| 20260830214434 | 83 | 191 | 0.9 | 5.2 | 0.00 | 0.00 | 0.00 | 61 | 1016.3 |
| 20260830214354 | 83 | 193 | 1.7 | 5.2 | 0.00 | 0.00 | 0.00 | 62 | 1016.3 |
| 20260830214233 | 83 | 192 | 0.9 | 5.2 | 0.00 | 0.00 | 0.00 | 61 | 1016.1 |
| 20260830214136 | 83 | 192 | 0.0 | 5.2 | 0.00 | 0.00 | 0.00 | 61 | 1016.1 |
| 20260830214035 | 83 | 189 | 0.9 | 5.2 | 0.00 | 0.00 | 0.00 | 61 | 1016.1 |
| 20260830213934 | 83 | 193 | 1.7 | 5.2 | 0.00 | 0.00 | 0.00 | 62 | 1016.1 |
| 20260830213834 | 84 | 193 | 0.9 | 5.2 | 0.00 | 0.00 | 0.00 | 62 | 1016.1 |
| 20260830213733 | 84 | 192 | 0.9 | 5.2 | 0.00 | 0.00 | 0.00 | 61 | 1016.1 |
| 20260830213633 | 84 | 192 | 1.7 | 6.1 | 0.00 | 0.00 | 0.00 | 62 | 1016.1 |
| 20260830213532 | 84 | 178 | 2.6 | 6.1 | 0.00 | 0.00 | 0.00 | 62 | 1016.1 |
| 20260830213435 | 84 | 174 | 2.6 | 6.1 | 0.00 | 0.00 | 0.00 | 63 | 1016.1 |
| 20260830213335 | 84 | 200 | 0.9 | 6.1 | 0.00 | 0.00 | 0.00 | 63 | 1016.1 |
| 20260830213254 | 84 | 205 | 0.0 | 6.1 | 0.00 | 0.00 | 0.00 | 62 | 1016.1 |
| 20260830213204 | 84 | 202 | 0.9 | 6.1 | 0.00 | 0.00 | 0.00 | 62 | 1016.1 |
| 20260830213041 | 84 | 199 | 0.9 | 6.1 | 0.00 | 0.00 | 0.00 | 62 | 1016.1 |
| 20260830212939 | 84 | 196 | 2.6 | 6.1 | 0.00 | 0.00 | 0.00 | 62 | 1016.1 |
| 20260830212836 | 84 | 212 | 5.2 | 6.1 | 0.00 | 0.00 | 0.00 | 62 | 1016.1 |
| 20260830212738 | 84 | 196 | 3.5 | 6.1 | 0.00 | 0.00 | 0.00 | 62 | 1016.3 |
| 20260830212637 | 84 | 167 | 0.9 | 5.2 | 0.00 | 0.00 | 0.00 | 62 | 1016.3 |
| 20260830212536 | 84 | 161 | 1.7 | 6.1 | 0.00 | 0.00 | 0.00 | 62 | 1016.3 |
| 20260830212435 | 84 | 164 | 0.0 | 6.1 | 0.00 | 0.00 | 0.00 | 62 | 1016.3 |
| 20260830212334 | 84 | 164 | 2.6 | 6.1 | 0.00 | 0.00 | 0.00 | 62 | 1016.3 |
| 20260830212232 | 84 | 169 | 1.7 | 6.1 | 0.00 | 0.00 | 0.00 | 61 | 1016.3 |
| 20260830212131 | 84 | 213 | 0.9 | 6.1 | 0.00 | 0.00 | 0.00 | 61 | 1016.3 |
| 20260830212033 | 84 | 215 | 2.6 | 6.1 | 0.00 | 0.00 | 0.00 | 62 | 1016.3 |
| 20260830211933 | 84 | 208 | 1.7 | 6.1 | 0.00 | 0.00 | 0.00 | 62 | 1016.3 |
| 20260830211831 | 84 | 203 | 1.7 | 6.1 | 0.00 | 0.00 | 0.00 | 61 | 1016.3 |
| 20260830211730 | 84 | 226 | 1.7 | 6.1 | 0.00 | 0.00 | 0.00 | 61 | 1016.3 |
| 20260830211700 | 84 | 210 | 2.6 | 6.1 | 0.00 | 0.00 | 0.00 | 62 | 1016.3 |
| 20260830211539 | 84 | 196 | 2.6 | 6.1 | 0.00 | 0.00 | 0.00 | 62 | 1016.3 |
| 20260830211437 | 84 | 200 | 1.7 | 6.1 | 0.00 | 0.00 | 0.00 | 62 | 1016.3 |
| 20260830211341 | 84 | 209 | 1.7 | 6.1 | 0.00 | 0.00 | 0.00 | 61 | 1016.3 |
| 20260830211238 | 84 | 155 | 2.6 | 6.1 | 0.00 | 0.00 | 0.00 | 61 | 1016.4 |
| 20260830211139 | 84 | 155 | 2.6 | 6.1 | 0.00 | 0.00 | 0.00 | 60 | 1016.4 |
| 20260830211039 | 84 | 157 | 1.7 | 6.1 | 0.00 | 0.00 | 0.00 | 60 | 1016.4 |
| 20260830210937 | 84 | 155 | 2.6 | 6.1 | 0.00 | 0.00 | 0.00 | 60 | 1016.4 |
| 20260830210837 | 84 | 128 | 3.5 | 6.1 | 0.00 | 0.00 | 0.00 | 60 | 1016.4 |
| 20260830210739 | 84 | 119 | 3.5 | 6.1 | 0.00 | 0.00 | 0.00 | 62 | 1016.4 |
| 20260830210638 | 84 | 124 | 3.5 | 6.1 | 0.00 | 0.00 | 0.00 | 63 | 1016.4 |
| 20260830210558 | 84 | 116 | 1.7 | 7.0 | 0.00 | 0.00 | 0.00 | 62 | 1016.4 |
| 20260830210435 | 84 | 109 | 1.7 | 7.0 | 0.00 | 0.00 | 0.00 | 62 | 1016.4 |
| 20260830210355 | 84 | 107 | 1.7 | 7.0 | 0.00 | 0.00 | 0.00 | 61 | 1016.4 |
| 20260830210253 | 84 | 113 | 1.7 | 7.0 | 0.00 | 0.00 | 0.00 | 62 | 1016.4 |
| 20260830210203 | 84 | 107 | 1.7 | 7.0 | 0.00 | 0.00 | 0.00 | 62 | 1016.4 |
| 20260830210039 | 84 | 110 | 1.7 | 7.0 | 0.00 | 0.00 | 0.00 | 62 | 1016.4 |
| 20260830205958 | 84 | 175 | 2.6 | 7.0 | 0.00 | 0.00 | 0.00 | 62 | 1016.4 |
| 20260830205840 | 84 | 208 | 2.6 | 7.0 | 0.00 | 0.00 | 0.00 | 63 | 1016.4 |
| 20260830205739 | 84 | 195 | 3.5 | 7.0 | 0.00 | 0.00 | 0.00 | 62 | 1016.5 |
| 20260830205637 | 84 | 198 | 0.9 | 7.0 | 0.00 | 0.00 | 0.00 | 62 | 1016.5 |
| 20260830205556 | 84 | 199 | 0.0 | 7.0 | 0.00 | 0.00 | 0.00 | 62 | 1016.5 |
| 20260830205433 | 84 | 196 | 1.7 | 7.0 | 0.00 | 0.00 | 0.00 | 61 | 1016.5 |
| 20260830205332 | 84 | 195 | 0.0 | 7.0 | 0.00 | 0.00 | 0.00 | 61 | 1016.5 |
| 20260830205232 | 84 | 196 | 1.7 | 7.0 | 0.00 | 0.00 | 0.00 | 61 | 1016.5 |
| 20260830205127 | 84 | 192 | 3.5 | 7.0 | 0.00 | 0.00 | 0.00 | 61 | 1016.5 |
| 20260830205050 | 84 | 186 | 1.7 | 7.0 | 0.00 | 0.00 | 0.00 | 61 | 1016.5 |
| 20260830204948 | 84 | 196 | 3.5 | 7.0 | 0.00 | 0.00 | 0.00 | 60 | 1016.5 |
| 20260830204826 | 84 | 189 | 2.6 | 5.2 | 0.00 | 0.00 | 0.00 | 60 | 1016.5 |
| 20260830204725 | 84 | 181 | 1.7 | 6.1 | 0.00 | 0.00 | 0.00 | 60 | 1016.5 |
| 20260830204654 | 84 | 179 | 1.7 | 6.1 | 0.00 | 0.00 | 0.00 | 61 | 1016.5 |
| 20260830204533 | 84 | 178 | 2.6 | 6.1 | 0.00 | 0.00 | 0.00 | 62 | 1016.5 |
| 20260830204431 | 84 | 195 | 2.6 | 6.1 | 0.00 | 0.00 | 0.00 | 61 | 1016.5 |
| 20260830204349 | 84 | 88 | 2.6 | 6.1 | 0.00 | 0.00 | 0.00 | 61 | 1016.5 |
| 20260830204226 | 84 | 51 | 2.6 | 7.0 | 0.00 | 0.00 | 0.00 | 61 | 1016.8 |
| 20260830204148 | 84 | 48 | 1.7 | 7.0 | 0.00 | 0.00 | 0.00 | 60 | 1016.8 |
| 20260830204046 | 84 | 49 | 0.0 | 7.0 | 0.00 | 0.00 | 0.00 | 61 | 1016.8 |
| 20260830203943 | 84 | 49 | 1.7 | 7.0 | 0.00 | 0.00 | 0.00 | 61 | 1016.8 |
| 20260830203841 | 84 | 49 | 2.6 | 7.0 | 0.00 | 0.00 | 0.00 | 60 | 1016.8 |
| 20260830203740 | 84 | 114 | 2.6 | 7.0 | 0.00 | 0.00 | 0.00 | 60 | 1016.8 |
| 20260830203638 | 83 | 114 | 2.6 | 7.0 | 0.00 | 0.00 | 0.00 | 61 | 1016.8 |
| 20260830203534 | 83 | 109 | 3.5 | 7.0 | 0.00 | 0.00 | 0.00 | 61 | 1016.8 |
| 20260830203453 | 83 | 97 | 5.2 | 7.0 | 0.00 | 0.00 | 0.00 | 62 | 1016.8 |
| 20260830203350 | 83 | 141 | 2.6 | 5.2 | 0.00 | 0.00 | 0.00 | 62 | 1016.8 |
| 20260830203231 | 83 | 203 | 0.9 | 5.2 | 0.00 | 0.00 | 0.00 | 62 | 1016.8 |
| 20260830203202 | 83 | 202 | 0.9 | 5.2 | 0.00 | 0.00 | 0.00 | 62 | 1016.8 |
| 20260830203100 | 83 | 202 | 2.6 | 5.2 | 0.00 | 0.00 | 0.00 | 62 | 1016.8 |
| 20260830202938 | 83 | 133 | 0.0 | 4.3 | 0.00 | 0.00 | 0.00 | 61 | 1016.8 |
| 20260830202835 | 83 | 134 | 0.9 | 4.3 | 0.00 | 0.00 | 0.00 | 62 | 1016.8 |
| 20260830202734 | 83 | 134 | 1.7 | 5.2 | 0.00 | 0.00 | 0.00 | 62 | 1016.8 |
| 20260830202653 | 84 | 92 | 0.0 | 5.2 | 0.00 | 0.00 | 0.00 | 62 | 1016.8 |
| 20260830202531 | 84 | 89 | 0.0 | 5.2 | 0.00 | 0.00 | 0.00 | 61 | 1016.8 |
| 20260830202433 | 84 | 90 | 0.0 | 5.2 | 0.00 | 0.00 | 0.00 | 60 | 1016.8 |
| 20260830202332 | 84 | 92 | 0.0 | 7.0 | 0.00 | 0.00 | 0.00 | 60 | 1016.8 |
| 20260830202231 | 84 | 92 | 0.9 | 7.0 | 0.00 | 0.00 | 0.00 | 60 | 1016.8 |
| 20260830202150 | 84 | 90 | 1.7 | 7.0 | 0.00 | 0.00 | 0.00 | 59 | 1016.8 |
| 20260830202028 | 84 | 89 | 0.9 | 7.0 | 0.00 | 0.00 | 0.00 | 59 | 1016.8 |
| 20260830201926 | 84 | 90 | 2.6 | 7.0 | 0.00 | 0.00 | 0.00 | 60 | 1016.8 |
| 20260830201843 | 84 | 86 | 2.6 | 7.0 | 0.00 | 0.00 | 0.00 | 60 | 1016.8 |
| 20260830201754 | 84 | 96 | 0.0 | 7.0 | 0.00 | 0.00 | 0.00 | 59 | 1016.8 |
| 20260830201646 | 84 | 96 | 2.6 | 7.0 | 0.00 | 0.00 | 0.00 | 59 | 1016.8 |
| 20260830201543 | 84 | 96 | 4.3 | 7.0 | 0.00 | 0.00 | 0.00 | 60 | 1016.8 |
| 20260830201444 | 84 | 76 | 4.3 | 6.1 | 0.00 | 0.00 | 0.00 | 61 | 1016.8 |
| 20260830201343 | 84 | 110 | 4.3 | 6.1 | 0.00 | 0.00 | 0.00 | 61 | 1016.8 |
| 20260830201301 | 84 | 110 | 2.6 | 6.1 | 0.00 | 0.00 | 0.00 | 61 | 1017.0 |
| 20260830201159 | 84 | 172 | 0.0 | 6.1 | 0.00 | 0.00 | 0.00 | 60 | 1017.0 |
| 20260830201056 | 84 | 175 | 0.0 | 6.1 | 0.00 | 0.00 | 0.00 | 59 | 1017.0 |
| 20260830200934 | 84 | 174 | 0.0 | 6.1 | 0.00 | 0.00 | 0.00 | 60 | 1017.0 |
| 20260830200834 | 84 | 175 | 0.0 | 6.1 | 0.00 | 0.00 | 0.00 | 61 | 1017.0 |
| 20260830200736 | 84 | 175 | 0.9 | 6.1 | 0.00 | 0.00 | 0.00 | 62 | 1017.0 |
| 20260830200640 | 84 | 175 | 3.5 | 6.1 | 0.00 | 0.00 | 0.00 | 62 | 1017.0 |
| 20260830200538 | 84 | 162 | 1.7 | 6.1 | 0.00 | 0.00 | 0.00 | 62 | 1017.0 |
| 20260830200436 | 84 | 119 | 2.6 | 5.2 | 0.00 | 0.00 | 0.00 | 61 | 1017.0 |
| 20260830200354 | 84 | 116 | 3.5 | 5.2 | 0.00 | 0.00 | 0.00 | 60 | 1017.0 |
| 20260830200232 | 84 | 113 | 1.7 | 5.2 | 0.00 | 0.00 | 0.00 | 60 | 1017.0 |
| 20260830200202 | 84 | 110 | 0.9 | 5.2 | 0.00 | 0.00 | 0.00 | 60 | 1017.0 |
| 20260830200037 | 84 | 112 | 0.9 | 5.2 | 0.00 | 0.00 | 0.00 | 59 | 1017.0 |
| 20260830195939 | 84 | 113 | 0.0 | 5.2 | 0.00 | 0.00 | 0.00 | 59 | 1017.0 |
| 20260830195838 | 84 | 113 | 1.7 | 6.1 | 0.00 | 0.00 | 0.00 | 60 | 1017.0 |
| 20260830195757 | 84 | 112 | 3.5 | 6.1 | 0.00 | 0.00 | 0.00 | 59 | 1017.2 |
| 20260830195655 | 84 | 112 | 1.7 | 6.1 | 0.00 | 0.00 | 0.00 | 60 | 1017.2 |
| 20260830195553 | 84 | 110 | 2.6 | 6.1 | 0.00 | 0.00 | 0.00 | 60 | 1017.2 |
| 20260830195432 | 84 | 106 | 0.9 | 6.1 | 0.00 | 0.00 | 0.00 | 59 | 1017.2 |
| 20260830195350 | 84 | 106 | 0.9 | 6.1 | 0.00 | 0.00 | 0.00 | 60 | 1017.2 |
| 20260830195229 | 84 | 106 | 0.0 | 6.1 | 0.00 | 0.00 | 0.00 | 60 | 1017.2 |
| 20260830195128 | 84 | 106 | 0.0 | 7.0 | 0.00 | 0.00 | 0.00 | 60 | 1017.2 |
| 20260830195031 | 84 | 104 | 3.5 | 7.0 | 0.00 | 0.00 | 0.00 | 61 | 1017.2 |
| 20260830194931 | 84 | 127 | 3.5 | 7.0 | 0.00 | 0.00 | 0.00 | 60 | 1017.2 |
| 20260830194829 | 84 | 168 | 3.5 | 7.0 | 0.00 | 0.00 | 0.00 | 60 | 1017.2 |
| 20260830194728 | 84 | 148 | 4.3 | 7.0 | 0.00 | 0.00 | 0.00 | 59 | 1017.2 |
| 20260830194658 | 84 | 157 | 4.3 | 7.0 | 0.00 | 0.00 | 0.00 | 59 | 1017.2 |
| 20260830194555 | 84 | 144 | 4.3 | 7.0 | 0.00 | 0.00 | 0.00 | 60 | 1017.2 |
| 20260830194457 | 84 | 134 | 4.3 | 7.0 | 0.00 | 0.00 | 0.00 | 61 | 1017.2 |
| 20260830194336 | 84 | 157 | 5.2 | 7.0 | 0.00 | 0.00 | 0.00 | 62 | 1017.2 |
| 20260830194239 | 84 | 155 | 4.3 | 7.0 | 0.00 | 0.00 | 0.00 | 62 | 1017.2 |
| 20260830194139 | 84 | 199 | 1.7 | 6.1 | 0.00 | 0.00 | 0.00 | 62 | 1017.2 |
| 20260830194038 | 84 | 203 | 0.9 | 5.2 | 0.00 | 0.00 | 0.00 | 61 | 1017.2 |
| 20260830193937 | 84 | 200 | 0.9 | 5.2 | 0.00 | 0.00 | 0.00 | 61 | 1017.2 |
| 20260830193835 | 84 | 157 | 0.9 | 5.2 | 0.00 | 0.00 | 0.00 | 60 | 1017.2 |
| 20260830193733 | 84 | 150 | 3.5 | 5.2 | 0.00 | 0.00 | 0.00 | 62 | 1017.2 |
| 20260830193636 | 84 | 152 | 2.6 | 5.2 | 0.00 | 0.00 | 0.00 | 61 | 1017.2 |
| 20260830193555 | 84 | 158 | 1.7 | 5.2 | 0.00 | 0.00 | 0.00 | 61 | 1017.2 |
| 20260830193453 | 84 | 164 | 1.7 | 5.2 | 0.00 | 0.00 | 0.00 | 60 | 1017.2 |
| 20260830193331 | 84 | 161 | 3.5 | 5.2 | 0.00 | 0.00 | 0.00 | 59 | 1017.2 |
| 20260830193241 | 84 | 145 | 0.9 | 5.2 | 0.00 | 0.00 | 0.00 | 59 | 1017.2 |
| 20260830193151 | 84 | 144 | 0.9 | 5.2 | 0.00 | 0.00 | 0.00 | 61 | 1017.2 |
| 20260830193047 | 84 | 143 | 1.7 | 5.2 | 0.00 | 0.00 | 0.00 | 61 | 1017.2 |
| 20260830192944 | 85 | 141 | 1.7 | 5.2 | 0.00 | 0.00 | 0.00 | 61 | 1017.2 |
| 20260830192841 | 85 | 140 | 0.9 | 6.1 | 0.00 | 0.00 | 0.00 | 61 | 1017.2 |
| 20260830192739 | 85 | 137 | 1.7 | 7.0 | 0.00 | 0.00 | 0.00 | 61 | 1017.4 |
| 20260830192643 | 85 | 133 | 1.7 | 7.0 | 0.00 | 0.00 | 0.00 | 60 | 1017.4 |
| 20260830192541 | 85 | 131 | 3.5 | 7.0 | 0.00 | 0.00 | 0.00 | 60 | 1017.4 |
| 20260830192438 | 85 | 143 | 2.6 | 7.0 | 0.00 | 0.00 | 0.00 | 62 | 1017.4 |
| 20260830192336 | 85 | 136 | 2.6 | 7.0 | 0.00 | 0.00 | 0.00 | 59 | 1017.4 |
| 20260830192255 | 85 | 104 | 2.6 | 7.0 | 0.00 | 0.00 | 0.00 | 58 | 1017.4 |
| 20260830192153 | 85 | 103 | 3.5 | 7.0 | 0.00 | 0.00 | 0.00 | 58 | 1017.4 |
| 20260830192033 | 85 | 95 | 3.5 | 7.0 | 0.00 | 0.00 | 0.00 | 59 | 1017.4 |
| 20260830191951 | 85 | 95 | 4.3 | 7.0 | 0.00 | 0.00 | 0.00 | 59 | 1017.4 |
| 20260830191833 | 85 | 79 | 1.7 | 7.0 | 0.00 | 0.00 | 0.00 | 60 | 1017.4 |
| 20260830191753 | 85 | 158 | 0.9 | 7.0 | 0.00 | 0.00 | 0.00 | 60 | 1017.4 |
| 20260830191702 | 85 | 158 | 1.7 | 7.0 | 0.00 | 0.00 | 0.00 | 60 | 1017.4 |
| 20260830191538 | 85 | 151 | 0.9 | 7.0 | 0.00 | 0.00 | 0.00 | 60 | 1017.4 |
| 20260830191457 | 85 | 152 | 1.7 | 7.0 | 0.00 | 0.00 | 0.00 | 59 | 1017.4 |
| 20260830191355 | 85 | 141 | 2.6 | 7.0 | 0.00 | 0.00 | 0.00 | 60 | 1017.4 |
| 20260830191232 | 85 | 138 | 4.3 | 7.0 | 0.00 | 0.00 | 0.00 | 60 | 1017.4 |
| 20260830191132 | 85 | 136 | 5.2 | 7.0 | 0.00 | 0.00 | 0.00 | 60 | 1017.4 |
| 20260830191029 | 85 | 116 | 5.2 | 7.8 | 0.00 | 0.00 | 0.00 | 59 | 1017.4 |
| 20260830190931 | 85 | 154 | 2.6 | 7.8 | 0.00 | 0.00 | 0.00 | 60 | 1017.4 |
| 20260830190831 | 85 | 150 | 5.2 | 7.8 | 0.00 | 0.00 | 0.00 | 61 | 1017.4 |
| 20260830190729 | 85 | 157 | 2.6 | 7.8 | 0.00 | 0.00 | 0.00 | 61 | 1017.4 |
| 20260830190628 | 85 | 189 | 2.6 | 7.8 | 0.00 | 0.00 | 0.00 | 61 | 1017.4 |
| 20260830190528 | 85 | 185 | 2.6 | 7.8 | 0.00 | 0.00 | 0.00 | 60 | 1017.4 |
| 20260830190427 | 85 | 154 | 2.6 | 7.8 | 0.00 | 0.00 | 0.00 | 60 | 1017.4 |
| 20260830190329 | 85 | 168 | 3.5 | 7.8 | 0.00 | 0.00 | 0.00 | 60 | 1017.4 |
| 20260830190229 | 85 | 178 | 1.7 | 7.8 | 0.00 | 0.00 | 0.00 | 61 | 1017.4 |
| 20260830190158 | 85 | 178 | 0.9 | 7.8 | 0.00 | 0.00 | 0.00 | 61 | 1017.4 |
| 20260830190035 | 85 | 42 | 0.9 | 7.8 | 0.00 | 0.00 | 0.00 | 61 | 1017.4 |
| 20260830185933 | 85 | 41 | 1.7 | 7.8 | 0.00 | 0.00 | 0.00 | 61 | 1017.4 |
| 20260830185832 | 85 | 80 | 1.7 | 8.7 | 0.00 | 0.00 | 0.00 | 60 | 1017.4 |
| 20260830185729 | 85 | 80 | 5.2 | 8.7 | 0.00 | 0.00 | 0.00 | 60 | 1017.6 |
| 20260830185647 | 85 | 158 | 0.9 | 8.7 | 0.00 | 0.00 | 0.00 | 60 | 1017.6 |
| 20260830185529 | 85 | 160 | 0.9 | 8.7 | 0.00 | 0.00 | 0.00 | 59 | 1017.6 |
| 20260830185428 | 85 | 154 | 2.6 | 8.7 | 0.00 | 0.00 | 0.00 | 61 | 1017.6 |
| 20260830185326 | 85 | 131 | 4.3 | 8.7 | 0.00 | 0.00 | 0.00 | 61 | 1017.6 |
| 20260830185228 | 85 | 120 | 5.2 | 8.7 | 0.00 | 0.00 | 0.00 | 62 | 1017.6 |
| 20260830185129 | 85 | 181 | 5.2 | 8.7 | 0.00 | 0.00 | 0.00 | 60 | 1017.6 |
| 20260830185029 | 85 | 210 | 5.2 | 8.7 | 0.00 | 0.00 | 0.00 | 61 | 1017.6 |
| 20260830184927 | 85 | 150 | 4.3 | 7.0 | 0.00 | 0.00 | 0.00 | 61 | 1017.6 |
| 20260830184831 | 85 | 162 | 4.3 | 7.0 | 0.00 | 0.00 | 0.00 | 61 | 1017.6 |
| 20260830184740 | 85 | 182 | 4.3 | 7.0 | 0.00 | 0.00 | 0.00 | 62 | 1017.6 |
| 20260830184649 | 85 | 114 | 4.3 | 7.0 | 0.00 | 0.00 | 0.00 | 61 | 1017.6 |
| 20260830184527 | 85 | 124 | 5.2 | 7.0 | 0.00 | 0.00 | 0.00 | 62 | 1017.6 |
| 20260830184425 | 85 | 185 | 3.5 | 7.0 | 0.00 | 0.00 | 0.00 | 60 | 1017.6 |
| 20260830184343 | 85 | 96 | 1.7 | 7.0 | 0.00 | 0.00 | 0.00 | 59 | 1017.6 |
| 20260830184302 | 85 | 116 | 3.5 | 7.0 | 0.00 | 0.00 | 0.00 | 59 | 1017.9 |
| 20260830184159 | 85 | 127 | 2.6 | 7.0 | 0.00 | 0.00 | 0.00 | 58 | 1017.9 |
| 20260830184037 | 85 | 110 | 0.0 | 7.0 | 0.00 | 0.00 | 0.00 | 58 | 1017.9 |
| 20260830183940 | 85 | 109 | 1.7 | 7.0 | 0.00 | 0.00 | 0.00 | 59 | 1017.9 |
| 20260830183839 | 85 | 110 | 3.5 | 7.0 | 0.00 | 0.00 | 0.00 | 61 | 1017.9 |
| 20260830183739 | 85 | 123 | 2.6 | 6.1 | 0.00 | 0.00 | 0.00 | 59 | 1017.9 |
| 20260830183639 | 85 | 124 | 1.7 | 7.0 | 0.00 | 0.00 | 0.00 | 60 | 1017.9 |
| 20260830183536 | 85 | 114 | 1.7 | 7.0 | 0.00 | 0.00 | 0.00 | 61 | 1017.9 |
| 20260830183454 | 85 | 184 | 1.7 | 7.0 | 0.00 | 0.00 | 0.00 | 62 | 1017.9 |
| 20260830183331 | 85 | 184 | 1.7 | 7.0 | 0.00 | 0.00 | 0.00 | 62 | 1017.9 |
| 20260830183204 | 85 | 202 | 0.9 | 7.0 | 0.00 | 0.00 | 0.00 | 61 | 1017.9 |
| 20260830183101 | 85 | 164 | 2.6 | 7.0 | 0.00 | 0.00 | 0.00 | 61 | 1017.9 |
| 20260830182938 | 85 | 168 | 3.5 | 7.0 | 0.00 | 0.00 | 0.00 | 61 | 1017.9 |
| 20260830182837 | 85 | 162 | 4.3 | 7.0 | 0.00 | 0.00 | 0.00 | 60 | 1017.9 |
| 20260830182734 | 85 | 145 | 4.3 | 7.0 | 0.00 | 0.00 | 0.00 | 60 | 1018.1 |
| 20260830182632 | 85 | 147 | 3.5 | 7.0 | 0.00 | 0.00 | 0.00 | 61 | 1018.1 |
| 20260830182549 | 85 | 148 | 3.5 | 7.0 | 0.00 | 0.00 | 0.00 | 62 | 1018.1 |
| 20260830182432 | 85 | 130 | 4.3 | 7.0 | 0.00 | 0.00 | 0.00 | 62 | 1018.1 |
| 20260830182331 | 85 | 150 | 3.5 | 7.0 | 0.00 | 0.00 | 0.00 | 62 | 1018.1 |
| 20260830182229 | 85 | 202 | 2.6 | 7.0 | 0.00 | 0.00 | 0.00 | 62 | 1018.1 |
| 20260830182129 | 85 | 160 | 0.9 | 7.0 | 0.00 | 0.00 | 0.00 | 62 | 1018.1 |
| 20260830182029 | 85 | 136 | 1.7 | 8.7 | 0.00 | 0.00 | 0.00 | 61 | 1018.1 |
| 20260830181926 | 85 | 130 | 5.2 | 8.7 | 0.00 | 0.00 | 0.00 | 61 | 1018.1 |
| 20260830181825 | 85 | 133 | 3.5 | 8.7 | 0.00 | 0.00 | 0.00 | 62 | 1018.1 |
| 20260830181738 | 85 | 136 | 3.5 | 8.7 | 0.00 | 0.00 | 0.00 | 62 | 1018.1 |
| 20260830181647 | 85 | 145 | 2.6 | 8.7 | 0.00 | 0.00 | 0.00 | 61 | 1018.1 |
| 20260830181524 | 85 | 188 | 2.6 | 8.7 | 0.00 | 0.00 | 0.00 | 63 | 1018.1 |
| 20260830181442 | 85 | 184 | 3.5 | 8.7 | 0.00 | 0.00 | 0.00 | 63 | 1018.1 |
| 20260830181341 | 85 | 200 | 3.5 | 8.7 | 0.00 | 0.00 | 0.00 | 63 | 1018.1 |
| 20260830181300 | 85 | 158 | 3.5 | 8.7 | 0.00 | 0.00 | 0.00 | 62 | 1018.3 |
| 20260830181137 | 85 | 117 | 2.6 | 8.7 | 0.00 | 0.00 | 0.00 | 62 | 1018.3 |
| 20260830181034 | 85 | 158 | 4.3 | 7.8 | 0.00 | 0.00 | 0.00 | 63 | 1018.3 |
| 20260830180954 | 85 | 181 | 3.5 | 7.8 | 0.00 | 0.00 | 0.00 | 63 | 1018.3 |
| 20260830180832 | 85 | 152 | 3.5 | 7.8 | 0.00 | 0.00 | 0.00 | 62 | 1018.3 |
| 20260830180734 | 85 | 138 | 4.3 | 7.8 | 0.00 | 0.00 | 0.00 | 61 | 1018.3 |
| 20260830180633 | 85 | 92 | 4.3 | 7.8 | 0.00 | 0.00 | 0.00 | 60 | 1018.3 |
| 20260830180532 | 85 | 119 | 0.9 | 7.8 | 0.00 | 0.00 | 0.00 | 61 | 1018.3 |
| 20260830180451 | 85 | 120 | 0.9 | 7.8 | 0.00 | 0.00 | 0.00 | 62 | 1018.3 |
| 20260830180328 | 85 | 120 | 2.6 | 7.8 | 0.00 | 0.00 | 0.00 | 62 | 1018.3 |
| 20260830180238 | 85 | 106 | 3.5 | 7.8 | 0.00 | 0.00 | 0.00 | 64 | 1018.3 |
| 20260830180147 | 85 | 93 | 3.5 | 10.4 | 0.00 | 0.00 | 0.00 | 63 | 1018.3 |
| 20260830180028 | 85 | 85 | 5.2 | 10.4 | 0.00 | 0.00 | 0.00 | 62 | 1018.3 |
| 20260830175927 | 84 | 80 | 3.5 | 10.4 | 0.00 | 0.00 | 0.00 | 62 | 1018.3 |
| 20260830175825 | 84 | 116 | 2.6 | 10.4 | 0.00 | 0.00 | 0.00 | 62 | 1018.3 |
| 20260830175742 | 84 | 114 | 1.7 | 10.4 | 0.00 | 0.00 | 0.00 | 62 | 1018.5 |
| 20260830175641 | 84 | 120 | 2.6 | 10.4 | 0.00 | 0.00 | 0.00 | 62 | 1018.5 |
| 20260830175540 | 84 | 114 | 2.6 | 10.4 | 0.00 | 0.00 | 0.00 | 62 | 1018.5 |
| 20260830175459 | 84 | 130 | 2.6 | 10.4 | 0.00 | 0.00 | 0.00 | 61 | 1018.5 |
| 20260830175335 | 84 | 127 | 5.2 | 10.4 | 0.00 | 0.00 | 0.00 | 61 | 1018.5 |
| 20260830175239 | 84 | 134 | 6.1 | 10.4 | 0.00 | 0.00 | 0.00 | 62 | 1018.5 |
| 20260830175139 | 84 | 114 | 3.5 | 7.8 | 0.00 | 0.00 | 0.00 | 62 | 1018.5 |
| 20260830175037 | 84 | 144 | 5.2 | 7.8 | 0.00 | 0.00 | 0.00 | 64 | 1018.5 |
| 20260830174934 | 84 | 136 | 4.3 | 7.8 | 0.00 | 0.00 | 0.00 | 62 | 1018.5 |
| 20260830174833 | 84 | 76 | 2.6 | 7.0 | 0.00 | 0.00 | 0.00 | 63 | 1018.5 |
| 20260830174731 | 84 | 51 | 0.9 | 7.0 | 0.00 | 0.00 | 0.00 | 62 | 1018.5 |
| 20260830174700 | 84 | 51 | 1.7 | 7.0 | 0.00 | 0.00 | 0.00 | 62 | 1018.5 |
| 20260830174542 | 84 | 51 | 5.2 | 7.0 | 0.00 | 0.00 | 0.00 | 65 | 1018.5 |
| 20260830174442 | 84 | 116 | 3.5 | 8.7 | 0.00 | 0.00 | 0.00 | 66 | 1018.5 |
| 20260830174340 | 84 | 171 | 3.5 | 8.7 | 0.00 | 0.00 | 0.00 | 66 | 1018.5 |
| 20260830174239 | 84 | 191 | 2.6 | 8.7 | 0.00 | 0.00 | 0.00 | 66 | 1018.6 |
| 20260830174159 | 84 | 113 | 2.6 | 8.7 | 0.00 | 0.00 | 0.00 | 65 | 1018.6 |
| 20260830174036 | 84 | 113 | 4.3 | 8.7 | 0.00 | 0.00 | 0.00 | 65 | 1018.6 |
| 20260830173934 | 84 | 99 | 3.5 | 8.7 | 0.00 | 0.00 | 0.00 | 65 | 1018.6 |
| 20260830173836 | 84 | 195 | 3.5 | 8.7 | 0.00 | 0.00 | 0.00 | 65 | 1018.6 |
| 20260830173736 | 84 | 121 | 5.2 | 9.6 | 0.00 | 0.00 | 0.00 | 62 | 1018.6 |
| 20260830173632 | 84 | 112 | 5.2 | 10.4 | 0.00 | 0.00 | 0.00 | 63 | 1018.6 |
| 20260830173530 | 84 | 116 | 3.5 | 10.4 | 0.00 | 0.00 | 0.00 | 64 | 1018.6 |
| 20260830173425 | 84 | 161 | 3.5 | 10.4 | 0.00 | 0.00 | 0.00 | 64 | 1018.6 |
| 20260830173346 | 84 | 215 | 1.7 | 10.4 | 0.00 | 0.00 | 0.00 | 65 | 1018.6 |
| 20260830173227 | 84 | 216 | 2.6 | 10.4 | 0.00 | 0.00 | 0.00 | 64 | 1018.6 |
| 20260830173157 | 84 | 216 | 1.7 | 10.4 | 0.00 | 0.00 | 0.00 | 65 | 1018.6 |
| 20260830173037 | 84 | 217 | 3.5 | 10.4 | 0.00 | 0.00 | 0.00 | 65 | 1018.6 |
| 20260830172936 | 84 | 219 | 6.1 | 11.3 | 0.00 | 0.00 | 0.00 | 64 | 1018.6 |
| 20260830172856 | 84 | 124 | 7.8 | 11.3 | 0.00 | 0.00 | 0.00 | 64 | 1018.6 |
| 20260830172734 | 84 | 119 | 6.1 | 11.3 | 0.00 | 0.00 | 0.00 | 65 | 1018.9 |
| 20260830172632 | 84 | 151 | 3.5 | 11.3 | 0.00 | 0.00 | 0.00 | 66 | 1018.9 |
| 20260830172531 | 84 | 133 | 4.3 | 11.3 | 0.00 | 0.00 | 0.00 | 65 | 1018.9 |
| 20260830172430 | 84 | 106 | 4.3 | 11.3 | 0.00 | 0.00 | 0.00 | 64 | 1018.9 |
| 20260830172333 | 84 | 123 | 4.3 | 11.3 | 0.00 | 0.00 | 0.00 | 63 | 1018.9 |
| 20260830172253 | 84 | 96 | 4.3 | 11.3 | 0.00 | 0.00 | 0.00 | 65 | 1018.9 |
| 20260830172150 | 84 | 137 | 7.8 | 11.3 | 0.00 | 0.00 | 0.00 | 64 | 1018.9 |
| 20260830172029 | 84 | 99 | 5.2 | 11.3 | 0.00 | 0.00 | 0.00 | 64 | 1018.9 |
| 20260830171928 | 84 | 82 | 0.9 | 11.3 | 0.00 | 0.00 | 0.00 | 63 | 1018.9 |
| 20260830171826 | 84 | 78 | 2.6 | 11.3 | 0.00 | 0.00 | 0.00 | 64 | 1018.9 |
| 20260830171746 | 84 | 79 | 2.6 | 11.3 | 0.00 | 0.00 | 0.00 | 64 | 1018.9 |
| 20260830171716 | 84 | 86 | 0.9 | 11.3 | 0.00 | 0.00 | 0.00 | 64 | 1018.9 |
| 20260830171532 | 84 | 116 | 2.6 | 11.3 | 0.00 | 0.00 | 0.00 | 64 | 1018.9 |
| 20260830171436 | 84 | 131 | 1.7 | 11.3 | 0.00 | 0.00 | 0.00 | 65 | 1018.9 |
| 20260830171333 | 84 | 128 | 4.3 | 11.3 | 0.00 | 0.00 | 0.00 | 64 | 1018.9 |
| 20260830171253 | 84 | 121 | 4.3 | 11.3 | 0.00 | 0.00 | 0.00 | 64 | 1018.9 |
| 20260830171130 | 84 | 88 | 3.5 | 9.6 | 0.00 | 0.00 | 0.00 | 65 | 1018.9 |
| 20260830171051 | 84 | 106 | 3.5 | 9.6 | 0.00 | 0.00 | 0.00 | 64 | 1018.9 |
| 20260830170928 | 84 | 113 | 2.6 | 9.6 | 0.00 | 0.00 | 0.00 | 64 | 1018.9 |
| 20260830170826 | 84 | 157 | 1.7 | 11.3 | 0.00 | 0.00 | 0.00 | 65 | 1018.9 |
| 20260830170745 | 83 | 152 | 3.5 | 11.3 | 0.00 | 0.00 | 0.00 | 66 | 1018.9 |
| 20260830170630 | 83 | 172 | 2.6 | 11.3 | 0.00 | 0.00 | 0.00 | 66 | 1018.9 |
| 20260830170549 | 83 | 96 | 4.3 | 11.3 | 0.00 | 0.00 | 0.00 | 65 | 1018.9 |
| 20260830170426 | 83 | 110 | 7.0 | 11.3 | 0.00 | 0.00 | 0.00 | 63 | 1018.9 |
| 20260830170326 | 83 | 110 | 3.5 | 11.3 | 0.00 | 0.00 | 0.00 | 64 | 1018.9 |
| 20260830170236 | 83 | 89 | 5.2 | 11.3 | 0.00 | 0.00 | 0.00 | 64 | 1018.9 |
| 20260830170146 | 83 | 106 | 7.0 | 11.3 | 0.00 | 0.00 | 0.00 | 65 | 1018.9 |
| 20260830170043 | 83 | 110 | 8.7 | 11.3 | 0.00 | 0.00 | 0.00 | 66 | 1018.9 |
| 20260830165940 | 83 | 127 | 5.2 | 7.8 | 0.00 | 0.00 | 0.00 | 66 | 1018.9 |
| 20260830165843 | 83 | 162 | 4.3 | 10.4 | 0.00 | 0.00 | 0.00 | 67 | 1018.9 |
| 20260830165742 | 83 | 124 | 3.5 | 10.4 | 0.00 | 0.00 | 0.00 | 67 | 1019.1 |
| 20260830165641 | 83 | 162 | 2.6 | 10.4 | 0.00 | 0.00 | 0.00 | 68 | 1019.1 |
| 20260830165539 | 83 | 158 | 4.3 | 10.4 | 0.00 | 0.00 | 0.00 | 67 | 1019.1 |
| 20260830165437 | 83 | 151 | 5.2 | 10.4 | 0.00 | 0.00 | 0.00 | 67 | 1019.1 |
| 20260830165334 | 83 | 136 | 3.5 | 10.4 | 0.00 | 0.00 | 0.00 | 67 | 1019.1 |
| 20260830165233 | 83 | 130 | 3.5 | 10.4 | 0.00 | 0.00 | 0.00 | 67 | 1019.1 |
| 20260830165132 | 83 | 109 | 4.3 | 10.4 | 0.00 | 0.00 | 0.00 | 67 | 1019.1 |
| 20260830165034 | 83 | 121 | 7.0 | 10.4 | 0.00 | 0.00 | 0.00 | 68 | 1019.1 |
| 20260830164932 | 83 | 124 | 1.7 | 9.6 | 0.00 | 0.00 | 0.00 | 68 | 1019.1 |
| 20260830164832 | 83 | 162 | 4.3 | 9.6 | 0.00 | 0.00 | 0.00 | 68 | 1019.1 |
| 20260830164751 | 82 | 181 | 3.5 | 9.6 | 0.00 | 0.00 | 0.00 | 68 | 1019.1 |
| 20260830164700 | 82 | 193 | 3.5 | 9.6 | 0.00 | 0.00 | 0.00 | 68 | 1019.1 |
| 20260830164538 | 82 | 75 | 2.6 | 9.6 | 0.00 | 0.00 | 0.00 | 67 | 1019.1 |
| 20260830164438 | 82 | 75 | 4.3 | 9.6 | 0.00 | 0.00 | 0.00 | 67 | 1019.1 |
| 20260830164340 | 82 | 80 | 3.5 | 8.7 | 0.00 | 0.00 | 0.00 | 68 | 1019.1 |
| 20260830164239 | 82 | 96 | 5.2 | 8.7 | 0.00 | 0.00 | 0.00 | 68 | 1019.2 |
| 20260830164136 | 82 | 136 | 6.1 | 11.3 | 0.00 | 0.00 | 0.00 | 67 | 1019.2 |
| 20260830164034 | 82 | 109 | 4.3 | 11.3 | 0.00 | 0.00 | 0.00 | 68 | 1019.2 |
| 20260830163952 | 82 | 109 | 2.6 | 11.3 | 0.00 | 0.00 | 0.00 | 68 | 1019.2 |
| 20260830163849 | 82 | 107 | 4.3 | 11.3 | 0.00 | 0.00 | 0.00 | 68 | 1019.2 |
| 20260830163728 | 82 | 151 | 1.7 | 11.3 | 0.00 | 0.00 | 0.00 | 67 | 1019.2 |
| 20260830163626 | 82 | 151 | 0.9 | 11.3 | 0.00 | 0.00 | 0.00 | 68 | 1019.2 |
| 20260830163531 | 82 | 151 | 5.2 | 11.3 | 0.00 | 0.00 | 0.00 | 69 | 1019.2 |
| 20260830163430 | 82 | 169 | 4.3 | 11.3 | 0.00 | 0.00 | 0.00 | 69 | 1019.2 |
| 20260830163349 | 82 | 90 | 7.8 | 11.3 | 0.00 | 0.00 | 0.00 | 69 | 1019.2 |
| 20260830163227 | 82 | 73 | 2.6 | 6.1 | 0.00 | 0.00 | 0.00 | 69 | 1019.2 |
| 20260830163157 | 82 | 100 | 3.5 | 6.1 | 0.00 | 0.00 | 0.00 | 70 | 1019.2 |
| 20260830163035 | 82 | 114 | 3.5 | 6.1 | 0.00 | 0.00 | 0.00 | 69 | 1019.2 |
| 20260830162933 | 82 | 126 | 3.5 | 6.1 | 0.00 | 0.00 | 0.00 | 70 | 1019.2 |
| 20260830162832 | 81 | 126 | 1.7 | 7.8 | 0.00 | 0.00 | 0.00 | 69 | 1019.2 |
| 20260830162734 | 81 | 144 | 1.7 | 7.8 | 0.00 | 0.00 | 0.00 | 69 | 1019.3 |
| 20260830162632 | 81 | 138 | 0.9 | 7.8 | 0.00 | 0.00 | 0.00 | 70 | 1019.3 |
| 20260830162531 | 81 | 137 | 4.3 | 7.8 | 0.00 | 0.00 | 0.00 | 70 | 1019.3 |
| 20260830162430 | 81 | 124 | 2.6 | 7.8 | 0.00 | 0.00 | 0.00 | 69 | 1019.3 |
| 20260830162350 | 81 | 120 | 1.7 | 7.8 | 0.00 | 0.00 | 0.00 | 69 | 1019.3 |
| 20260830162228 | 81 | 119 | 4.3 | 7.8 | 0.00 | 0.00 | 0.00 | 70 | 1019.3 |
| 20260830162127 | 81 | 116 | 4.3 | 7.8 | 0.00 | 0.00 | 0.00 | 71 | 1019.3 |
| 20260830162030 | 81 | 99 | 5.2 | 7.8 | 0.00 | 0.00 | 0.00 | 71 | 1019.3 |
| 20260830161929 | 81 | 141 | 2.6 | 9.6 | 0.00 | 0.00 | 0.00 | 71 | 1019.3 |
| 20260830161828 | 81 | 196 | 2.6 | 9.6 | 0.00 | 0.00 | 0.00 | 71 | 1019.3 |
| 20260830161727 | 81 | 192 | 2.6 | 9.6 | 0.00 | 0.00 | 0.00 | 71 | 1019.3 |
| 20260830161656 | 81 | 179 | 1.7 | 9.6 | 0.00 | 0.00 | 0.00 | 71 | 1019.3 |
| 20260830161431 | 81 | 96 | 2.6 | 9.6 | 0.00 | 0.00 | 0.00 | 71 | 1019.3 |
| 20260830161333 | 81 | 97 | 4.3 | 9.6 | 0.00 | 0.00 | 0.00 | 71 | 1019.3 |
| 20260830161231 | 81 | 85 | 3.5 | 9.6 | 0.00 | 0.00 | 0.00 | 71 | 1019.4 |
| 20260830161132 | 81 | 107 | 6.1 | 9.6 | 0.00 | 0.00 | 0.00 | 71 | 1019.4 |
| 20260830161029 | 81 | 126 | 7.0 | 8.7 | 0.00 | 0.00 | 0.00 | 71 | 1019.4 |
| 20260830160929 | 81 | 103 | 2.6 | 7.0 | 0.00 | 0.00 | 0.00 | 72 | 1019.4 |
| 20260830160828 | 81 | 191 | 1.7 | 7.0 | 0.00 | 0.00 | 0.00 | 72 | 1019.4 |
| 20260830160731 | 81 | 143 | 3.5 | 8.7 | 0.00 | 0.00 | 0.00 | 72 | 1019.4 |
| 20260830160631 | 81 | 117 | 3.5 | 8.7 | 0.00 | 0.00 | 0.00 | 73 | 1019.4 |
| 20260830160530 | 81 | 106 | 3.5 | 8.7 | 0.00 | 0.00 | 0.00 | 72 | 1019.4 |
| 20260830160429 | 81 | 76 | 5.2 | 8.7 | 0.00 | 0.00 | 0.00 | 73 | 1019.4 |
| 20260830160326 | 81 | 83 | 3.5 | 8.7 | 0.00 | 0.00 | 0.00 | 73 | 1019.4 |
| 20260830160225 | 81 | 141 | 3.5 | 8.7 | 0.00 | 0.00 | 0.00 | 73 | 1019.4 |
| 20260830160155 | 81 | 137 | 5.2 | 8.7 | 0.00 | 0.00 | 0.00 | 73 | 1019.4 |
| 20260830160033 | 80 | 195 | 3.5 | 8.7 | 0.00 | 0.00 | 0.00 | 73 | 1019.4 |
| 20260830155938 | 80 | 124 | 3.5 | 8.7 | 0.00 | 0.00 | 0.00 | 73 | 1019.4 |
| 20260830155837 | 80 | 116 | 4.3 | 8.7 | 0.00 | 0.00 | 0.00 | 72 | 1019.4 |
| 20260830155734 | 80 | 124 | 0.9 | 8.7 | 0.00 | 0.00 | 0.00 | 72 | 1019.4 |
| 20260830155633 | 80 | 123 | 1.7 | 8.7 | 0.00 | 0.00 | 0.00 | 72 | 1019.4 |
| 20260830155532 | 80 | 117 | 4.3 | 8.7 | 0.00 | 0.00 | 0.00 | 72 | 1019.4 |
| 20260830155432 | 80 | 127 | 4.3 | 8.7 | 0.00 | 0.00 | 0.00 | 71 | 1019.4 |
| 20260830155334 | 80 | 116 | 3.5 | 8.7 | 0.00 | 0.00 | 0.00 | 71 | 1019.4 |
| 20260830155235 | 80 | 113 | 5.2 | 8.7 | 0.00 | 0.00 | 0.00 | 72 | 1019.4 |
| 20260830155134 | 80 | 136 | 6.1 | 8.7 | 0.00 | 0.00 | 0.00 | 72 | 1019.4 |
| 20260830155031 | 80 | 110 | 6.1 | 8.7 | 0.00 | 0.00 | 0.00 | 73 | 1019.4 |
| 20260830154930 | 80 | 124 | 6.1 | 8.7 | 0.00 | 0.00 | 0.00 | 73 | 1019.4 |
| 20260830154829 | 80 | 128 | 6.1 | 11.3 | 0.00 | 0.00 | 0.00 | 74 | 1019.4 |
| 20260830154739 | 80 | 112 | 6.1 | 11.3 | 0.00 | 0.00 | 0.00 | 73 | 1019.4 |
| 20260830154650 | 80 | 134 | 6.1 | 11.3 | 0.00 | 0.00 | 0.00 | 74 | 1019.4 |
| 20260830154528 | 80 | 95 | 5.2 | 11.3 | 0.00 | 0.00 | 0.00 | 74 | 1019.4 |
| 20260830154448 | 80 | 157 | 3.5 | 11.3 | 0.00 | 0.00 | 0.00 | 74 | 1019.4 |
| 20260830154325 | 80 | 151 | 0.9 | 11.3 | 0.00 | 0.00 | 0.00 | 74 | 1019.4 |
| 20260830154226 | 80 | 151 | 0.9 | 11.3 | 0.00 | 0.00 | 0.00 | 75 | 1019.5 |
| 20260830154145 | 80 | 148 | 5.2 | 11.3 | 0.00 | 0.00 | 0.00 | 75 | 1019.5 |
| 20260830154026 | 79 | 152 | 7.8 | 11.3 | 0.00 | 0.00 | 0.00 | 75 | 1019.5 |
| 20260830153926 | 79 | 134 | 5.2 | 9.6 | 0.00 | 0.00 | 0.00 | 74 | 1019.5 |
| 20260830153829 | 79 | 104 | 4.3 | 9.6 | 0.00 | 0.00 | 0.00 | 74 | 1019.5 |
| 20260830153747 | 79 | 145 | 2.6 | 11.3 | 0.00 | 0.00 | 0.00 | 76 | 1019.5 |
| 20260830153626 | 79 | 134 | 6.1 | 11.3 | 0.00 | 0.00 | 0.00 | 76 | 1019.5 |
| 20260830153524 | 79 | 137 | 4.3 | 11.3 | 0.00 | 0.00 | 0.00 | 76 | 1019.5 |
| 20260830153444 | 79 | 127 | 4.3 | 11.3 | 0.00 | 0.00 | 0.00 | 76 | 1019.5 |
| 20260830153341 | 79 | 107 | 2.6 | 11.3 | 0.00 | 0.00 | 0.00 | 77 | 1019.5 |
| 20260830153240 | 79 | 100 | 5.2 | 11.3 | 0.00 | 0.00 | 0.00 | 77 | 1019.5 |
| 20260830153210 | 79 | 127 | 3.5 | 11.3 | 0.00 | 0.00 | 0.00 | 77 | 1019.5 |
| 20260830153030 | 79 | 168 | 5.2 | 11.3 | 0.00 | 0.00 | 0.00 | 77 | 1019.5 |
| 20260830152928 | 79 | 107 | 6.1 | 11.3 | 0.00 | 0.00 | 0.00 | 76 | 1019.5 |
| 20260830152825 | 79 | 126 | 3.5 | 8.7 | 0.00 | 0.00 | 0.00 | 78 | 1019.5 |
| 20260830152743 | 79 | 96 | 2.6 | 8.7 | 0.00 | 0.00 | 0.00 | 78 | 1019.4 |
| 20260830152641 | 79 | 86 | 1.7 | 8.7 | 0.00 | 0.00 | 0.00 | 79 | 1019.4 |
| 20260830152540 | 79 | 83 | 2.6 | 8.7 | 0.00 | 0.00 | 0.00 | 78 | 1019.4 |
| 20260830152459 | 79 | 78 | 5.2 | 8.7 | 0.00 | 0.00 | 0.00 | 78 | 1019.4 |
| 20260830152357 | 78 | 76 | 5.2 | 8.7 | 0.00 | 0.00 | 0.00 | 80 | 1019.4 |
| 20260830152233 | 78 | 86 | 2.6 | 8.7 | 0.00 | 0.00 | 0.00 | 80 | 1019.4 |
| 20260830152135 | 78 | 136 | 5.2 | 8.7 | 0.00 | 0.00 | 0.00 | 80 | 1019.4 |
| 20260830152034 | 78 | 113 | 5.2 | 8.7 | 0.00 | 0.00 | 0.00 | 80 | 1019.4 |
| 20260830151931 | 78 | 127 | 2.6 | 8.7 | 0.00 | 0.00 | 0.00 | 80 | 1019.4 |
| 20260830151851 | 78 | 128 | 1.7 | 8.7 | 0.00 | 0.00 | 0.00 | 80 | 1019.4 |
| 20260830151747 | 78 | 92 | 4.3 | 8.7 | 0.00 | 0.00 | 0.00 | 81 | 1019.4 |
| 20260830151655 | 78 | 110 | 4.3 | 8.7 | 0.00 | 0.00 | 0.00 | 81 | 1019.4 |
| 20260830151532 | 78 | 143 | 5.2 | 8.7 | 0.00 | 0.00 | 0.00 | 81 | 1019.4 |
| 20260830151430 | 78 | 131 | 5.2 | 8.7 | 0.00 | 0.00 | 0.00 | 82 | 1019.4 |
| 20260830151349 | 78 | 138 | 2.6 | 8.7 | 0.00 | 0.00 | 0.00 | 82 | 1019.4 |
| 20260830151230 | 78 | 133 | 4.3 | 8.7 | 0.00 | 0.00 | 0.00 | 82 | 1019.4 |
| 20260830151129 | 77 | 138 | 0.9 | 7.8 | 0.00 | 0.00 | 0.00 | 83 | 1019.4 |
| 20260830151028 | 77 | 141 | 3.5 | 7.8 | 0.00 | 0.00 | 0.00 | 83 | 1019.4 |
| 20260830150926 | 77 | 66 | 2.6 | 7.8 | 0.00 | 0.00 | 0.00 | 83 | 1019.4 |
| 20260830150843 | 77 | 72 | 5.2 | 7.8 | 0.00 | 0.00 | 0.00 | 83 | 1019.4 |
| 20260830150740 | 77 | 88 | 2.6 | 7.8 | 0.00 | 0.00 | 0.00 | 84 | 1019.4 |
| 20260830150637 | 77 | 168 | 0.9 | 7.8 | 0.00 | 0.00 | 0.00 | 84 | 1019.4 |
| 20260830150438 | 77 | 145 | 4.3 | 7.8 | 0.00 | 0.00 | 0.00 | 84 | 1019.4 |
| 20260830150336 | 77 | 127 | 4.3 | 7.8 | 0.00 | 0.00 | 0.00 | 84 | 1019.4 |
| 20260830150255 | 77 | 175 | 2.6 | 5.2 | 0.00 | 0.00 | 0.00 | 84 | 1019.4 |
| 20260830150205 | 77 | 182 | 2.6 | 6.1 | 0.00 | 0.00 | 0.00 | 84 | 1019.4 |
| 20260830150042 | 77 | 174 | 2.6 | 6.1 | 0.00 | 0.00 | 0.00 | 84 | 1019.4 |
| 20260830145939 | 77 | 168 | 1.7 | 6.1 | 0.00 | 0.00 | 0.00 | 84 | 1019.4 |
| 20260830145838 | 77 | 162 | 1.7 | 6.1 | 0.00 | 0.00 | 0.00 | 84 | 1019.4 |
| 20260830145741 | 77 | 155 | 0.9 | 6.1 | 0.00 | 0.00 | 0.00 | 84 | 1019.5 |
| 20260830145640 | 77 | 155 | 0.0 | 6.1 | 0.00 | 0.00 | 0.00 | 84 | 1019.5 |
| 20260830145538 | 77 | 155 | 0.9 | 6.1 | 0.00 | 0.00 | 0.00 | 85 | 1019.5 |
| 20260830145437 | 77 | 152 | 2.6 | 6.1 | 0.00 | 0.00 | 0.00 | 85 | 1019.5 |
| 20260830145334 | 77 | 154 | 3.5 | 6.1 | 0.00 | 0.00 | 0.00 | 85 | 1019.5 |
| 20260830145232 | 77 | 155 | 2.6 | 6.1 | 0.00 | 0.00 | 0.00 | 85 | 1019.5 |
| 20260830145129 | 76 | 151 | 3.5 | 6.1 | 0.00 | 0.00 | 0.00 | 85 | 1019.5 |
| 20260830145031 | 76 | 186 | 1.7 | 6.1 | 0.00 | 0.00 | 0.00 | 85 | 1019.5 |
| 20260830144933 | 76 | 188 | 1.7 | 7.0 | 0.00 | 0.00 | 0.00 | 85 | 1019.5 |
| 20260830144853 | 76 | 186 | 2.6 | 7.0 | 0.00 | 0.00 | 0.00 | 85 | 1019.5 |
| 20260830144801 | 76 | 188 | 1.7 | 7.0 | 0.00 | 0.00 | 0.00 | 85 | 1019.5 |
| 20260830144650 | 76 | 189 | 1.7 | 7.0 | 0.00 | 0.00 | 0.00 | 85 | 1019.5 |
| 20260830144528 | 76 | 178 | 0.0 | 7.0 | 0.00 | 0.00 | 0.00 | 85 | 1019.5 |
| 20260830144426 | 76 | 178 | 2.6 | 7.0 | 0.00 | 0.00 | 0.00 | 86 | 1019.5 |
| 20260830144346 | 76 | 169 | 4.3 | 7.0 | 0.00 | 0.00 | 0.00 | 86 | 1019.5 |
| 20260830144244 | 76 | 144 | 4.3 | 7.0 | 0.00 | 0.00 | 0.00 | 86 | 1019.5 |
| 20260830144127 | 76 | 138 | 6.1 | 7.0 | 0.00 | 0.00 | 0.00 | 86 | 1019.5 |
| 20260830144026 | 76 | 157 | 4.3 | 6.1 | 0.00 | 0.00 | 0.00 | 86 | 1019.5 |
| 20260830143925 | 76 | 104 | 3.5 | 5.2 | 0.00 | 0.00 | 0.00 | 86 | 1019.5 |
| 20260830143824 | 76 | 162 | 0.9 | 5.2 | 0.00 | 0.00 | 0.00 | 86 | 1019.5 |
| 20260830143742 | 76 | 160 | 0.9 | 6.1 | 0.00 | 0.00 | 0.00 | 86 | 1019.5 |
| 20260830143700 | 76 | 182 | 2.6 | 6.1 | 0.00 | 0.00 | 0.00 | 86 | 1019.5 |
| 20260830143539 | 76 | 165 | 2.6 | 6.1 | 0.00 | 0.00 | 0.00 | 86 | 1019.5 |
| 20260830143457 | 76 | 121 | 0.9 | 6.1 | 0.00 | 0.00 | 0.00 | 86 | 1019.5 |
| 20260830143354 | 76 | 121 | 0.9 | 6.1 | 0.00 | 0.00 | 0.00 | 86 | 1019.5 |
| 20260830143234 | 76 | 120 | 1.7 | 6.1 | 0.00 | 0.00 | 0.00 | 86 | 1019.5 |
| 20260830143205 | 76 | 121 | 2.6 | 6.1 | 0.00 | 0.00 | 0.00 | 86 | 1019.5 |
| 20260830143042 | 75 | 124 | 2.6 | 6.1 | 0.00 | 0.00 | 0.00 | 86 | 1019.5 |
| 20260830142940 | 75 | 123 | 2.6 | 6.1 | 0.00 | 0.00 | 0.00 | 86 | 1019.5 |
| 20260830142840 | 75 | 119 | 4.3 | 6.1 | 0.00 | 0.00 | 0.00 | 86 | 1019.5 |
| 20260830142739 | 75 | 128 | 1.7 | 5.2 | 0.00 | 0.00 | 0.00 | 86 | 1019.5 |
| 20260830142639 | 75 | 130 | 0.9 | 5.2 | 0.00 | 0.00 | 0.00 | 87 | 1019.5 |
| 20260830142541 | 75 | 131 | 1.7 | 5.2 | 0.00 | 0.00 | 0.00 | 86 | 1019.5 |
| 20260830142440 | 75 | 130 | 1.7 | 5.2 | 0.00 | 0.00 | 0.00 | 86 | 1019.5 |
| 20260830142340 | 75 | 130 | 1.7 | 6.1 | 0.00 | 0.00 | 0.00 | 86 | 1019.5 |
| 20260830142238 | 75 | 127 | 1.7 | 6.1 | 0.00 | 0.00 | 0.00 | 86 | 1019.5 |
| 20260830142137 | 75 | 124 | 1.7 | 6.1 | 0.00 | 0.00 | 0.00 | 86 | 1019.5 |
| 20260830142036 | 75 | 127 | 1.7 | 7.0 | 0.00 | 0.00 | 0.00 | 86 | 1019.5 |
| 20260830141935 | 75 | 124 | 3.5 | 7.8 | 0.00 | 0.00 | 0.00 | 86 | 1019.5 |
| 20260830141857 | 75 | 150 | 1.7 | 8.7 | 0.00 | 0.00 | 0.00 | 86 | 1019.5 |
| 20260830141816 | 75 | 158 | 2.6 | 8.7 | 0.00 | 0.00 | 0.00 | 86 | 1019.5 |
| 20260830141726 | 75 | 152 | 2.6 | 8.7 | 0.00 | 0.00 | 0.00 | 86 | 1019.5 |
| 20260830141542 | 75 | 145 | 2.6 | 8.7 | 0.00 | 0.00 | 0.00 | 86 | 1019.5 |
| 20260830141441 | 75 | 121 | 2.6 | 8.7 | 0.00 | 0.00 | 0.00 | 86 | 1019.5 |
| 20260830141341 | 75 | 119 | 1.7 | 8.7 | 0.00 | 0.00 | 0.00 | 86 | 1019.5 |
| 20260830141238 | 75 | 114 | 5.2 | 8.7 | 0.00 | 0.00 | 0.00 | 87 | 1019.5 |
| 20260830141138 | 75 | 121 | 4.3 | 8.7 | 0.00 | 0.00 | 0.00 | 87 | 1019.5 |
| 20260830141041 | 75 | 97 | 3.5 | 8.7 | 0.00 | 0.00 | 0.00 | 87 | 1019.5 |
| 20260830140941 | 75 | 136 | 2.6 | 8.7 | 0.00 | 0.00 | 0.00 | 87 | 1019.5 |
| 20260830140840 | 75 | 137 | 4.3 | 8.7 | 0.00 | 0.00 | 0.00 | 87 | 1019.5 |
| 20260830140736 | 75 | 138 | 4.3 | 8.7 | 0.00 | 0.00 | 0.00 | 87 | 1019.5 |
| 20260830140655 | 75 | 137 | 5.2 | 8.7 | 0.00 | 0.00 | 0.00 | 87 | 1019.5 |
| 20260830140552 | 75 | 141 | 5.2 | 8.7 | 0.00 | 0.00 | 0.00 | 87 | 1019.5 |
| 20260830140428 | 75 | 133 | 4.3 | 8.7 | 0.00 | 0.00 | 0.00 | 87 | 1019.5 |
| 20260830140328 | 75 | 155 | 6.1 | 8.7 | 0.00 | 0.00 | 0.00 | 87 | 1019.5 |
| 20260830140230 | 75 | 138 | 4.3 | 7.0 | 0.00 | 0.00 | 0.00 | 87 | 1019.5 |
| 20260830140201 | 75 | 137 | 2.6 | 7.0 | 0.00 | 0.00 | 0.00 | 87 | 1019.5 |
| 20260830140038 | 75 | 127 | 1.7 | 7.0 | 0.00 | 0.00 | 0.00 | 87 | 1019.5 |
| 20260830135937 | 75 | 121 | 4.3 | 7.0 | 0.00 | 0.00 | 0.00 | 87 | 1019.5 |
| 20260830135836 | 75 | 137 | 3.5 | 7.0 | 0.00 | 0.00 | 0.00 | 87 | 1019.5 |
| 20260830135738 | 75 | 152 | 0.9 | 7.0 | 0.00 | 0.00 | 0.00 | 87 | 1019.4 |
| 20260830135635 | 75 | 141 | 3.5 | 7.0 | 0.00 | 0.00 | 0.00 | 87 | 1019.4 |
| 20260830135534 | 75 | 130 | 4.3 | 7.0 | 0.00 | 0.00 | 0.00 | 87 | 1019.4 |
| 20260830135440 | 75 | 143 | 3.5 | 6.1 | 0.00 | 0.00 | 0.00 | 87 | 1019.4 |
| 20260830135336 | 75 | 127 | 4.3 | 6.1 | 0.00 | 0.00 | 0.00 | 88 | 1019.4 |
| 20260830135255 | 75 | 128 | 4.3 | 6.1 | 0.00 | 0.00 | 0.00 | 88 | 1019.4 |
| 20260830135132 | 75 | 154 | 4.3 | 6.1 | 0.00 | 0.00 | 0.00 | 88 | 1019.4 |
| 20260830135031 | 75 | 152 | 3.5 | 6.1 | 0.00 | 0.00 | 0.00 | 88 | 1019.4 |
| 20260830134931 | 75 | 137 | 3.5 | 7.0 | 0.00 | 0.00 | 0.00 | 88 | 1019.4 |
| 20260830134847 | 75 | 158 | 2.6 | 7.0 | 0.00 | 0.00 | 0.00 | 88 | 1019.4 |
| 20260830134739 | 75 | 137 | 4.3 | 7.0 | 0.00 | 0.00 | 0.00 | 88 | 1019.4 |
| 20260830134651 | 75 | 161 | 5.2 | 7.0 | 0.00 | 0.00 | 0.00 | 88 | 1019.4 |
| 20260830134529 | 75 | 157 | 4.3 | 7.0 | 0.00 | 0.00 | 0.00 | 88 | 1019.4 |
| 20260830134448 | 75 | 178 | 4.3 | 7.0 | 0.00 | 0.00 | 0.00 | 88 | 1019.4 |
| 20260830134406 | 75 | 162 | 4.3 | 7.0 | 0.00 | 0.00 | 0.00 | 88 | 1019.4 |
| 20260830134244 | 75 | 151 | 4.3 | 7.0 | 0.00 | 0.00 | 0.00 | 88 | 1019.4 |
| 20260830134142 | 75 | 160 | 4.3 | 7.0 | 0.00 | 0.00 | 0.00 | 88 | 1019.4 |
| 20260830134041 | 75 | 168 | 3.5 | 7.0 | 0.00 | 0.00 | 0.00 | 88 | 1019.4 |
| 20260830133959 | 75 | 178 | 1.7 | 6.1 | 0.00 | 0.00 | 0.00 | 88 | 1019.4 |
| 20260830133836 | 75 | 172 | 2.6 | 7.0 | 0.00 | 0.00 | 0.00 | 88 | 1019.4 |
| 20260830133740 | 75 | 176 | 4.3 | 7.0 | 0.00 | 0.00 | 0.00 | 88 | 1019.4 |
| 20260830133637 | 75 | 174 | 4.3 | 7.0 | 0.00 | 0.00 | 0.00 | 88 | 1019.4 |
| 20260830133535 | 75 | 158 | 4.3 | 7.0 | 0.00 | 0.00 | 0.00 | 88 | 1019.4 |
| 20260830133433 | 74 | 171 | 3.5 | 7.0 | 0.00 | 0.00 | 0.00 | 88 | 1019.4 |
| 20260830133332 | 74 | 165 | 2.6 | 7.0 | 0.00 | 0.00 | 0.00 | 88 | 1019.4 |
| 20260830133230 | 74 | 172 | 2.6 | 7.0 | 0.00 | 0.00 | 0.00 | 88 | 1019.4 |
| 20260830133201 | 74 | 176 | 2.6 | 7.0 | 0.00 | 0.00 | 0.00 | 88 | 1019.4 |
| 20260830133035 | 74 | 176 | 4.3 | 7.0 | 0.00 | 0.00 | 0.00 | 88 | 1019.4 |
| 20260830132937 | 74 | 184 | 4.3 | 7.0 | 0.00 | 0.00 | 0.00 | 88 | 1019.4 |
| 20260830132856 | 74 | 161 | 3.5 | 5.2 | 0.00 | 0.00 | 0.00 | 88 | 1019.4 |
| 20260830132732 | 74 | 150 | 3.5 | 5.2 | 0.00 | 0.00 | 0.00 | 88 | 1019.2 |
| 20260830132651 | 74 | 151 | 3.5 | 5.2 | 0.00 | 0.00 | 0.00 | 88 | 1019.2 |
| 20260830132527 | 74 | 158 | 3.5 | 5.2 | 0.00 | 0.00 | 0.00 | 88 | 1019.2 |
| 20260830132426 | 74 | 158 | 3.5 | 5.2 | 0.00 | 0.00 | 0.00 | 88 | 1019.2 |
| 20260830132343 | 74 | 172 | 1.7 | 5.2 | 0.00 | 0.00 | 0.00 | 88 | 1019.2 |
| 20260830132243 | 74 | 150 | 2.6 | 5.2 | 0.00 | 0.00 | 0.00 | 88 | 1019.2 |
| 20260830132202 | 74 | 151 | 3.5 | 5.2 | 0.00 | 0.00 | 0.00 | 88 | 1019.2 |
| 20260830132059 | 74 | 161 | 2.6 | 6.1 | 0.00 | 0.00 | 0.00 | 88 | 1019.2 |
| 20260830132001 | 74 | 161 | 3.5 | 6.1 | 0.00 | 0.00 | 0.00 | 88 | 1019.2 |
| 20260830131838 | 74 | 161 | 3.5 | 7.0 | 0.00 | 0.00 | 0.00 | 88 | 1019.2 |
| 20260830131756 | 74 | 161 | 1.7 | 7.0 | 0.00 | 0.00 | 0.00 | 88 | 1019.2 |
| 20260830131705 | 74 | 158 | 1.7 | 7.0 | 0.00 | 0.00 | 0.00 | 89 | 1019.2 |
| 20260830131543 | 74 | 157 | 2.6 | 7.0 | 0.00 | 0.00 | 0.00 | 89 | 1019.2 |
| 20260830131443 | 74 | 147 | 3.5 | 7.0 | 0.00 | 0.00 | 0.00 | 89 | 1019.2 |
| 20260830131402 | 74 | 148 | 2.6 | 7.0 | 0.00 | 0.00 | 0.00 | 89 | 1019.2 |
| 20260830131240 | 74 | 147 | 3.5 | 7.0 | 0.00 | 0.00 | 0.00 | 89 | 1019.0 |
| 20260830131143 | 74 | 144 | 5.2 | 7.0 | 0.00 | 0.00 | 0.00 | 89 | 1019.0 |
| 20260830131041 | 74 | 150 | 4.3 | 7.0 | 0.00 | 0.00 | 0.00 | 89 | 1019.0 |
| 20260830130941 | 74 | 152 | 2.6 | 6.1 | 0.00 | 0.00 | 0.00 | 89 | 1019.0 |
| 20260830130900 | 74 | 152 | 2.6 | 6.1 | 0.00 | 0.00 | 0.00 | 89 | 1019.0 |
| 20260830130739 | 74 | 152 | 1.7 | 7.0 | 0.00 | 0.00 | 0.00 | 89 | 1019.0 |
| 20260830130636 | 74 | 151 | 3.5 | 7.0 | 0.00 | 0.00 | 0.00 | 89 | 1019.0 |
| 20260830130555 | 74 | 155 | 3.5 | 7.0 | 0.00 | 0.00 | 0.00 | 89 | 1019.0 |
| 20260830130452 | 74 | 157 | 3.5 | 7.0 | 0.00 | 0.00 | 0.00 | 89 | 1019.0 |
| 20260830130334 | 74 | 168 | 3.5 | 7.0 | 0.00 | 0.00 | 0.00 | 89 | 1019.0 |
| 20260830130233 | 74 | 184 | 3.5 | 7.0 | 0.00 | 0.00 | 0.00 | 89 | 1019.0 |
| 20260830130203 | 74 | 155 | 3.5 | 7.0 | 0.00 | 0.00 | 0.00 | 89 | 1019.0 |
| 20260830130040 | 74 | 145 | 4.3 | 7.0 | 0.00 | 0.00 | 0.00 | 89 | 1019.0 |
| 20260830125939 | 74 | 151 | 5.2 | 7.0 | 0.00 | 0.00 | 0.00 | 89 | 1019.0 |
| 20260830125838 | 74 | 160 | 3.5 | 7.0 | 0.00 | 0.00 | 0.00 | 89 | 1019.0 |
| 20260830125736 | 74 | 181 | 2.6 | 7.0 | 0.00 | 0.00 | 0.00 | 89 | 1018.9 |
| 20260830125639 | 74 | 176 | 2.6 | 7.0 | 0.00 | 0.00 | 0.00 | 89 | 1018.9 |
| 20260830125540 | 74 | 175 | 3.5 | 7.0 | 0.00 | 0.00 | 0.00 | 89 | 1018.9 |
| 20260830125438 | 74 | 200 | 2.6 | 7.0 | 0.00 | 0.00 | 0.00 | 89 | 1018.9 |
| 20260830125358 | 74 | 186 | 3.5 | 7.0 | 0.00 | 0.00 | 0.00 | 89 | 1018.9 |
| 20260830125237 | 74 | 206 | 4.3 | 7.0 | 0.00 | 0.00 | 0.00 | 89 | 1018.9 |
| 20260830125135 | 74 | 220 | 1.7 | 6.1 | 0.00 | 0.00 | 0.00 | 89 | 1018.9 |
| 20260830125053 | 73 | 224 | 4.3 | 6.1 | 0.00 | 0.00 | 0.00 | 89 | 1018.9 |
| 20260830124931 | 73 | 206 | 5.2 | 6.1 | 0.00 | 0.00 | 0.00 | 89 | 1018.9 |
| 20260830124854 | 73 | 230 | 4.3 | 7.0 | 0.00 | 0.00 | 0.00 | 89 | 1018.9 |
| 20260830124804 | 73 | 233 | 4.3 | 7.0 | 0.00 | 0.00 | 0.00 | 89 | 1018.9 |
| 20260830124651 | 73 | 230 | 2.6 | 7.0 | 0.00 | 0.00 | 0.00 | 89 | 1018.9 |
| 20260830124532 | 73 | 226 | 1.7 | 7.0 | 0.00 | 0.00 | 0.00 | 89 | 1018.9 |
| 20260830124452 | 73 | 206 | 1.7 | 7.0 | 0.00 | 0.00 | 0.00 | 89 | 1018.9 |
| 20260830124331 | 73 | 202 | 1.7 | 7.0 | 0.00 | 0.00 | 0.00 | 89 | 1018.9 |
| 20260830124229 | 73 | 198 | 2.6 | 7.0 | 0.00 | 0.00 | 0.00 | 89 | 1018.7 |
| 20260830124127 | 73 | 200 | 2.6 | 7.0 | 0.00 | 0.00 | 0.00 | 89 | 1018.7 |
| 20260830124030 | 73 | 196 | 4.3 | 7.0 | 0.00 | 0.00 | 0.00 | 89 | 1018.7 |
| 20260830123929 | 73 | 191 | 3.5 | 7.0 | 0.00 | 0.00 | 0.00 | 89 | 1018.7 |
| 20260830123829 | 73 | 192 | 2.6 | 7.0 | 0.00 | 0.00 | 0.00 | 89 | 1018.7 |
| 20260830123730 | 73 | 171 | 2.6 | 7.0 | 0.00 | 0.00 | 0.00 | 89 | 1018.7 |
| 20260830123649 | 73 | 176 | 3.5 | 7.0 | 0.00 | 0.00 | 0.00 | 89 | 1018.7 |
| 20260830123527 | 73 | 191 | 4.3 | 7.0 | 0.00 | 0.00 | 0.00 | 89 | 1018.7 |
| 20260830123425 | 73 | 169 | 4.3 | 7.0 | 0.00 | 0.00 | 0.00 | 89 | 1018.7 |
| 20260830123328 | 73 | 186 | 4.3 | 6.1 | 0.00 | 0.00 | 0.00 | 89 | 1018.7 |
| 20260830123247 | 73 | 188 | 3.5 | 6.1 | 0.00 | 0.00 | 0.00 | 89 | 1018.7 |
| 20260830123217 | 73 | 179 | 3.5 | 6.1 | 0.00 | 0.00 | 0.00 | 89 | 1018.7 |
| 20260830123032 | 73 | 174 | 2.6 | 7.0 | 0.00 | 0.00 | 0.00 | 89 | 1018.7 |
| 20260830122932 | 73 | 189 | 1.7 | 7.0 | 0.00 | 0.00 | 0.00 | 88 | 1018.7 |
| 20260830122830 | 73 | 164 | 2.6 | 7.0 | 0.00 | 0.00 | 0.00 | 88 | 1018.7 |
| 20260830122728 | 73 | 157 | 3.5 | 7.0 | 0.00 | 0.00 | 0.00 | 88 | 1018.4 |
| 20260830122627 | 73 | 178 | 3.5 | 7.0 | 0.00 | 0.00 | 0.00 | 88 | 1018.4 |
| 20260830122551 | 73 | 168 | 2.6 | 7.0 | 0.00 | 0.00 | 0.00 | 88 | 1018.4 |
| 20260830122428 | 73 | 168 | 2.6 | 7.0 | 0.00 | 0.00 | 0.00 | 88 | 1018.4 |
| 20260830122327 | 73 | 144 | 2.6 | 8.7 | 0.00 | 0.00 | 0.00 | 88 | 1018.4 |
| 20260830122226 | 73 | 138 | 5.2 | 8.7 | 0.00 | 0.00 | 0.00 | 88 | 1018.4 |
| 20260830122128 | 73 | 168 | 3.5 | 8.7 | 0.00 | 0.00 | 0.00 | 88 | 1018.4 |
| 20260830122047 | 73 | 165 | 4.3 | 8.7 | 0.00 | 0.00 | 0.00 | 88 | 1018.4 |
| 20260830121926 | 73 | 136 | 3.5 | 8.7 | 0.00 | 0.00 | 0.00 | 88 | 1018.4 |
| 20260830121828 | 73 | 158 | 4.3 | 8.7 | 0.00 | 0.00 | 0.00 | 88 | 1018.4 |
| 20260830121726 | 73 | 161 | 3.5 | 8.7 | 0.00 | 0.00 | 0.00 | 88 | 1018.4 |
| 20260830121655 | 73 | 154 | 4.3 | 8.7 | 0.00 | 0.00 | 0.00 | 88 | 1018.4 |
| 20260830121532 | 73 | 154 | 5.2 | 8.7 | 0.00 | 0.00 | 0.00 | 88 | 1018.4 |
| 20260830121430 | 73 | 160 | 5.2 | 7.8 | 0.00 | 0.00 | 0.00 | 88 | 1018.4 |
| 20260830121329 | 73 | 172 | 2.6 | 7.0 | 0.00 | 0.00 | 0.00 | 88 | 1018.4 |
| 20260830121227 | 73 | 176 | 3.5 | 7.0 | 0.00 | 0.00 | 0.00 | 88 | 1018.3 |
| 20260830121129 | 73 | 167 | 5.2 | 7.0 | 0.00 | 0.00 | 0.00 | 88 | 1018.3 |
| 20260830121025 | 73 | 144 | 5.2 | 7.0 | 0.00 | 0.00 | 0.00 | 88 | 1018.3 |
| 20260830120943 | 73 | 165 | 4.3 | 7.0 | 0.00 | 0.00 | 0.00 | 88 | 1018.3 |
| 20260830120842 | 73 | 174 | 3.5 | 7.0 | 0.00 | 0.00 | 0.00 | 88 | 1018.3 |
| 20260830120743 | 73 | 171 | 4.3 | 7.0 | 0.00 | 0.00 | 0.00 | 88 | 1018.3 |
| 20260830120643 | 73 | 172 | 3.5 | 7.0 | 0.00 | 0.00 | 0.00 | 88 | 1018.3 |
| 20260830120543 | 73 | 160 | 4.3 | 7.0 | 0.00 | 0.00 | 0.00 | 88 | 1018.3 |
| 20260830120442 | 73 | 164 | 4.3 | 7.0 | 0.00 | 0.00 | 0.00 | 88 | 1018.3 |
| 20260830120324 | 73 | 182 | 3.5 | 7.0 | 0.00 | 0.00 | 0.00 | 88 | 1018.3 |
| 20260830120243 | 73 | 182 | 3.5 | 7.0 | 0.00 | 0.00 | 0.00 | 88 | 1018.3 |
| 20260830120153 | 73 | 144 | 4.3 | 7.0 | 0.00 | 0.00 | 0.00 | 88 | 1018.3 |
| 20260830120028 | 73 | 174 | 2.6 | 7.0 | 0.00 | 0.00 | 0.00 | 88 | 1018.3 |
| 20260830115946 | 73 | 168 | 3.5 | 7.0 | 0.00 | 0.00 | 0.00 | 88 | 1018.3 |
| 20260830115842 | 73 | 165 | 3.5 | 7.0 | 0.00 | 0.00 | 0.00 | 88 | 1018.3 |
| 20260830115741 | 73 | 167 | 4.3 | 7.0 | 0.00 | 0.00 | 0.00 | 88 | 1018.2 |
| 20260830115639 | 73 | 184 | 3.5 | 7.0 | 0.00 | 0.00 | 0.00 | 88 | 1018.2 |
| 20260830115538 | 73 | 189 | 3.5 | 8.7 | 0.00 | 0.00 | 0.00 | 88 | 1018.2 |
| 20260830115440 | 73 | 172 | 3.5 | 11.3 | 0.00 | 0.00 | 0.00 | 88 | 1018.2 |
| 20260830115338 | 73 | 165 | 3.5 | 11.3 | 0.00 | 0.00 | 0.00 | 88 | 1018.2 |
| 20260830115238 | 73 | 179 | 2.6 | 11.3 | 0.00 | 0.00 | 0.00 | 88 | 1018.2 |
| 20260830115158 | 73 | 143 | 4.3 | 11.3 | 0.00 | 0.00 | 0.00 | 88 | 1018.2 |
| 20260830115057 | 73 | 169 | 4.3 | 11.3 | 0.00 | 0.00 | 0.00 | 87 | 1018.2 |
| 20260830114935 | 73 | 174 | 4.3 | 11.3 | 0.00 | 0.00 | 0.00 | 87 | 1018.2 |
| 20260830114854 | 73 | 168 | 4.3 | 11.3 | 0.00 | 0.00 | 0.00 | 87 | 1018.2 |
| 20260830114730 | 73 | 172 | 4.3 | 11.3 | 0.00 | 0.00 | 0.00 | 87 | 1018.2 |
| 20260830114659 | 73 | 186 | 5.2 | 11.3 | 0.00 | 0.00 | 0.00 | 87 | 1018.2 |
| 20260830114541 | 73 | 192 | 5.2 | 9.6 | 0.00 | 0.00 | 0.00 | 87 | 1018.2 |
| 20260830114439 | 73 | 175 | 5.2 | 9.6 | 0.00 | 0.00 | 0.00 | 87 | 1018.2 |
| 20260830114336 | 73 | 184 | 4.3 | 9.6 | 0.00 | 0.00 | 0.00 | 87 | 1018.2 |
| 20260830114235 | 73 | 188 | 3.5 | 9.6 | 0.00 | 0.00 | 0.00 | 87 | 1018.2 |
| 20260830114133 | 73 | 181 | 4.3 | 9.6 | 0.00 | 0.00 | 0.00 | 87 | 1018.2 |
| 20260830114050 | 73 | 158 | 3.5 | 9.6 | 0.00 | 0.00 | 0.00 | 87 | 1018.2 |
| 20260830113928 | 73 | 192 | 4.3 | 9.6 | 0.00 | 0.00 | 0.00 | 87 | 1018.2 |
| 20260830113847 | 73 | 188 | 6.1 | 9.6 | 0.00 | 0.00 | 0.00 | 87 | 1018.2 |
| 20260830113805 | 73 | 158 | 4.3 | 7.8 | 0.00 | 0.00 | 0.00 | 87 | 1018.2 |
| 20260830113707 | 73 | 168 | 3.5 | 7.8 | 0.00 | 0.00 | 0.00 | 87 | 1018.2 |
| 20260830113604 | 73 | 169 | 4.3 | 7.8 | 0.00 | 0.00 | 0.00 | 87 | 1018.2 |
| 20260830113442 | 73 | 181 | 5.2 | 7.8 | 0.00 | 0.00 | 0.00 | 87 | 1018.2 |
| 20260830113341 | 73 | 168 | 4.3 | 8.7 | 0.00 | 0.00 | 0.00 | 87 | 1018.2 |
| 20260830113238 | 73 | 162 | 4.3 | 8.7 | 0.00 | 0.00 | 0.00 | 87 | 1018.2 |
| 20260830113210 | 73 | 174 | 3.5 | 8.7 | 0.00 | 0.00 | 0.00 | 87 | 1018.2 |
| 20260830113029 | 73 | 174 | 4.3 | 9.6 | 0.00 | 0.00 | 0.00 | 87 | 1018.2 |
| 20260830112926 | 73 | 167 | 4.3 | 9.6 | 0.00 | 0.00 | 0.00 | 87 | 1018.2 |
| 20260830112829 | 73 | 162 | 3.5 | 9.6 | 0.00 | 0.00 | 0.00 | 87 | 1018.2 |
| 20260830112726 | 73 | 167 | 5.2 | 9.6 | 0.00 | 0.00 | 0.00 | 87 | 1018.0 |
| 20260830112645 | 73 | 171 | 5.2 | 9.6 | 0.00 | 0.00 | 0.00 | 87 | 1018.0 |
| 20260830112604 | 73 | 158 | 5.2 | 9.6 | 0.00 | 0.00 | 0.00 | 87 | 1018.0 |
| 20260830112503 | 73 | 154 | 5.2 | 9.6 | 0.00 | 0.00 | 0.00 | 87 | 1018.0 |
| 20260830112339 | 73 | 144 | 4.3 | 9.6 | 0.00 | 0.00 | 0.00 | 87 | 1018.0 |
| 20260830112258 | 73 | 176 | 5.2 | 9.6 | 0.00 | 0.00 | 0.00 | 87 | 1018.0 |
| 20260830112135 | 73 | 169 | 5.2 | 9.6 | 0.00 | 0.00 | 0.00 | 87 | 1018.0 |
| 20260830112034 | 73 | 182 | 4.3 | 9.6 | 0.00 | 0.00 | 0.00 | 87 | 1018.0 |
| 20260830111936 | 73 | 140 | 4.3 | 9.6 | 0.00 | 0.00 | 0.00 | 87 | 1018.0 |
| 20260830111834 | 73 | 164 | 4.3 | 9.6 | 0.00 | 0.00 | 0.00 | 87 | 1018.0 |
| 20260830111733 | 73 | 152 | 5.2 | 9.6 | 0.00 | 0.00 | 0.00 | 87 | 1018.0 |
| 20260830111702 | 73 | 161 | 5.2 | 9.6 | 0.00 | 0.00 | 0.00 | 87 | 1018.0 |
| 20260830111540 | 73 | 157 | 5.2 | 9.6 | 0.00 | 0.00 | 0.00 | 87 | 1018.0 |
| 20260830111438 | 73 | 158 | 5.2 | 9.6 | 0.00 | 0.00 | 0.00 | 87 | 1018.0 |
| 20260830111338 | 73 | 165 | 7.0 | 9.6 | 0.00 | 0.00 | 0.00 | 87 | 1018.0 |
| 20260830111241 | 73 | 137 | 5.2 | 9.6 | 0.00 | 0.00 | 0.00 | 87 | 1017.6 |
| 20260830111140 | 73 | 174 | 5.2 | 9.6 | 0.00 | 0.00 | 0.00 | 87 | 1017.6 |
| 20260830111040 | 73 | 162 | 4.3 | 9.6 | 0.00 | 0.00 | 0.00 | 87 | 1017.6 |
| 20260830110938 | 73 | 179 | 4.3 | 9.6 | 0.00 | 0.00 | 0.00 | 87 | 1017.6 |
| 20260830110837 | 73 | 157 | 4.3 | 9.6 | 0.00 | 0.00 | 0.00 | 87 | 1017.6 |
| 20260830110735 | 73 | 172 | 3.5 | 9.6 | 0.00 | 0.00 | 0.00 | 87 | 1017.6 |
| 20260830110634 | 73 | 168 | 4.3 | 9.6 | 0.00 | 0.00 | 0.00 | 87 | 1017.6 |
| 20260830110536 | 73 | 169 | 4.3 | 10.4 | 0.00 | 0.00 | 0.00 | 86 | 1017.6 |
| 20260830110433 | 73 | 157 | 5.2 | 10.4 | 0.00 | 0.00 | 0.00 | 86 | 1017.6 |
| 20260830110332 | 73 | 175 | 4.3 | 10.4 | 0.00 | 0.00 | 0.00 | 86 | 1017.6 |
| 20260830110251 | 73 | 174 | 7.0 | 10.4 | 0.00 | 0.00 | 0.00 | 86 | 1017.6 |
| 20260830110222 | 73 | 154 | 6.1 | 10.4 | 0.00 | 0.00 | 0.00 | 86 | 1017.6 |
| 20260830110039 | 73 | 141 | 5.2 | 10.4 | 0.00 | 0.00 | 0.00 | 86 | 1017.6 |
| 20260830105937 | 73 | 150 | 4.3 | 10.4 | 0.00 | 0.00 | 0.00 | 86 | 1017.6 |
| 20260830105840 | 73 | 164 | 5.2 | 10.4 | 0.00 | 0.00 | 0.00 | 86 | 1017.6 |
| 20260830105739 | 73 | 165 | 6.1 | 10.4 | 0.00 | 0.00 | 0.00 | 86 | 1017.5 |
| 20260830105638 | 73 | 169 | 5.2 | 10.4 | 0.00 | 0.00 | 0.00 | 86 | 1017.5 |
| 20260830105538 | 73 | 152 | 6.1 | 10.4 | 0.00 | 0.00 | 0.00 | 86 | 1017.5 |
| 20260830105437 | 73 | 168 | 7.0 | 10.4 | 0.00 | 0.00 | 0.00 | 86 | 1017.5 |
| 20260830105335 | 73 | 167 | 6.1 | 8.7 | 0.00 | 0.00 | 0.00 | 86 | 1017.5 |
| 20260830105253 | 74 | 164 | 6.1 | 9.6 | 0.00 | 0.00 | 0.00 | 86 | 1017.5 |
| 20260830105135 | 74 | 160 | 5.2 | 9.6 | 0.00 | 0.00 | 0.00 | 86 | 1017.5 |
| 20260830105033 | 74 | 171 | 4.3 | 9.6 | 0.00 | 0.00 | 0.00 | 86 | 1017.5 |
| 20260830104931 | 74 | 171 | 3.5 | 9.6 | 0.00 | 0.00 | 0.00 | 86 | 1017.5 |
| 20260830104834 | 74 | 185 | 3.5 | 9.6 | 0.00 | 0.00 | 0.00 | 86 | 1017.5 |
| 20260830104804 | 74 | 176 | 5.2 | 9.6 | 0.00 | 0.00 | 0.00 | 86 | 1017.5 |
| 20260830104651 | 74 | 151 | 5.2 | 9.6 | 0.00 | 0.00 | 0.00 | 86 | 1017.5 |
| 20260830104529 | 74 | 152 | 4.3 | 9.6 | 0.00 | 0.00 | 0.00 | 86 | 1017.5 |
| 20260830104428 | 74 | 141 | 5.2 | 9.6 | 0.00 | 0.00 | 0.00 | 86 | 1017.5 |
| 20260830104331 | 74 | 143 | 5.2 | 10.4 | 0.00 | 0.00 | 0.00 | 86 | 1017.5 |
| 20260830104229 | 74 | 165 | 3.5 | 10.4 | 0.00 | 0.00 | 0.00 | 86 | 1017.3 |
| 20260830104128 | 74 | 155 | 4.3 | 10.4 | 0.00 | 0.00 | 0.00 | 86 | 1017.3 |
| 20260830104048 | 74 | 179 | 5.2 | 10.4 | 0.00 | 0.00 | 0.00 | 86 | 1017.3 |
| 20260830103925 | 74 | 182 | 4.3 | 10.4 | 0.00 | 0.00 | 0.00 | 86 | 1017.3 |
| 20260830103843 | 74 | 164 | 4.3 | 10.4 | 0.00 | 0.00 | 0.00 | 86 | 1017.3 |
| 20260830103744 | 74 | 161 | 5.2 | 10.4 | 0.00 | 0.00 | 0.00 | 86 | 1017.3 |
| 20260830103626 | 74 | 161 | 4.3 | 10.4 | 0.00 | 0.00 | 0.00 | 86 | 1017.3 |
| 20260830103524 | 74 | 167 | 6.1 | 10.4 | 0.00 | 0.00 | 0.00 | 86 | 1017.3 |
| 20260830103424 | 74 | 174 | 6.1 | 9.6 | 0.00 | 0.00 | 0.00 | 86 | 1017.3 |
| 20260830103325 | 74 | 164 | 6.1 | 9.6 | 0.00 | 0.00 | 0.00 | 86 | 1017.3 |
| 20260830103235 | 74 | 167 | 7.8 | 9.6 | 0.00 | 0.00 | 0.00 | 86 | 1017.3 |
| 20260830103146 | 74 | 157 | 4.3 | 9.6 | 0.00 | 0.00 | 0.00 | 86 | 1017.3 |
| 20260830103043 | 74 | 181 | 5.2 | 9.6 | 0.00 | 0.00 | 0.00 | 86 | 1017.3 |
| 20260830102927 | 74 | 167 | 5.2 | 9.6 | 0.00 | 0.00 | 0.00 | 86 | 1017.3 |
| 20260830102826 | 74 | 161 | 4.3 | 7.8 | 0.00 | 0.00 | 0.00 | 86 | 1017.3 |
| 20260830102743 | 74 | 176 | 5.2 | 7.0 | 0.00 | 0.00 | 0.00 | 86 | 1017.3 |
| 20260830102643 | 74 | 164 | 4.3 | 7.0 | 0.00 | 0.00 | 0.00 | 86 | 1017.3 |